Mountain Fork River (Oklahoma), Eagleville (07339000)

StateOklahomaLatestGood (841 cfs)
RiverMountain Fork RiverRatingObservedEstimated
Updated2020-08-06 9:30 (53 minutes ago)Flood - The river is flooding. Obstacles can be treacherous or deadly. The river should be avoided at this stage for casual trips and definitely for the inexperienced. Trips should be attempted only with protective gear and equipment.Flood(none)6210
Discharge841 cfs (median: 602 cfs)High - The river is high and potentially dangerous, especially for the young and / or inexperienced. Normal stream obstacles are sometimes difficult to navigate. Extended distances can be attempted, but canoe travel may not be advisable.High(none)960
Height2.2 feetGood - Conditions are ideal for a canoe or kayak. Boats typically will drag on fewer than one-quarter of riffles, if at all, and portages are unnecessary or rare. Normal float lengths can be attempted without a problem.Good(none)712
TrendFalling (rising over 24 hours)Low - River is low but can still be floated. Some riffles are okay but most come with significant dragging and might need a portage. Float lengths should be reduced to accommodate low flow, dragging, and portages.Low(none)655
USGSExternal icon USGS Site (External icon Google Maps)Poor - River is too low to float comfortably. Most or all riffles will drag or must be portaged and some obstacles (such as slick shelf rock) cause undue problems. Avoid the river at this stage for casual paddling trips.Poor(none)197

Trending Data

Plot Image

Trips for Mountain Fork River (Oklahoma), Eagleville (07339000)

DateStartEndDistanceConditionDischargeHeightFishingDetails
Click for details2003-07-06 Rereg Dam US 70 Total trip distance: 3.2 miles3.2 Good 363 None NoneNone Fillmore, Brian
Wann, Denny
Fillmore, Brian; Wann, Denny
No notes for this trip<i>No notes for this trip</i> USGS Gauge Data:
Eagleville (07339000)
Discharge: 363
Height:
<b>USGS Gauge Data:</b></br />Eagleville (07339000)<br />Discharge: 363<br />Height:
Source: FillmoreSource: Fillmore

A total of 1 rows are displayed.

Trip Summary for Mountain Fork River (Oklahoma), Eagleville (07339000)

Miles3.2
Trips1
People2
Dates1
Years1
Months1
Rows1
Sources1

Condition Descriptions

Fishing Conditions

Fish Species

Notes

Classic Trip List

The classic River Trips application is still available for use. It is updated with the new system using a data retrofit. It is no longer maintained. The original River Trips application is no longer updated (as of 1 Dec 2016) but can be checked for errors or for the condition of the data before it was converted to the new system.

Gauge Data Table

ObservationHeightDischargeMaximum
Discharge
Minimum
Discharge
Mean
Discharge
P05P10P20P25P50
(Median)
P75P80P90P95
2020-08-06 09:30 2.20 841 2780 (1982) 121 (1978) 768 154 205 269 321 602 1060 1120 1690 2080
2020-08-06 08:30 2.30 903 2780 (1982) 121 (1978) 768 154 205 269 321 602 1060 1120 1690 2080
2020-08-06 07:30 2.42 981 2780 (1982) 121 (1978) 768 154 205 269 321 602 1060 1120 1690 2080
2020-08-06 06:30 2.54 1060 2780 (1982) 121 (1978) 768 154 205 269 321 602 1060 1120 1690 2080
2020-08-06 05:30 2.68 1160 2780 (1982) 121 (1978) 768 154 205 269 321 602 1060 1120 1690 2080
2020-08-06 04:30 2.83 1270 2780 (1982) 121 (1978) 768 154 205 269 321 602 1060 1120 1690 2080
2020-08-06 03:30 2.99 1380 2780 (1982) 121 (1978) 768 154 205 269 321 602 1060 1120 1690 2080
2020-08-06 02:30 3.17 1520 2780 (1982) 121 (1978) 768 154 205 269 321 602 1060 1120 1690 2080
2020-08-06 01:30 3.35 1670 2780 (1982) 121 (1978) 768 154 205 269 321 602 1060 1120 1690 2080
2020-08-06 00:30 3.55 1830 2780 (1982) 121 (1978) 768 154 205 269 321 602 1060 1120 1690 2080
2020-08-05 23:30 3.78 2030 2890 (1982) 121 (1984) 684 168 180 230 246 508 1020 1080 1380 1750
2020-08-05 22:30 3.99 2220 2890 (1982) 121 (1984) 684 168 180 230 246 508 1020 1080 1380 1750
2020-08-05 21:30 4.18 2400 2890 (1982) 121 (1984) 684 168 180 230 246 508 1020 1080 1380 1750
2020-08-05 20:30 4.23 2450 2890 (1982) 121 (1984) 684 168 180 230 246 508 1020 1080 1380 1750
2020-08-05 19:30 3.78 2030 2890 (1982) 121 (1984) 684 168 180 230 246 508 1020 1080 1380 1750
2020-08-05 18:30 2.65 1140 2890 (1982) 121 (1984) 684 168 180 230 246 508 1020 1080 1380 1750
2020-08-05 17:30 1.75 582 2890 (1982) 121 (1984) 684 168 180 230 246 508 1020 1080 1380 1750
2020-08-05 16:30 1.48 446 2890 (1982) 121 (1984) 684 168 180 230 246 508 1020 1080 1380 1750
2020-08-05 15:30 1.50 456 2890 (1982) 121 (1984) 684 168 180 230 246 508 1020 1080 1380 1750
2020-08-05 14:30 1.54 475 2890 (1982) 121 (1984) 684 168 180 230 246 508 1020 1080 1380 1750
2020-08-05 13:30 1.59 500 2890 (1982) 121 (1984) 684 168 180 230 246 508 1020 1080 1380 1750
2020-08-05 12:30 1.62 515 2890 (1982) 121 (1984) 684 168 180 230 246 508 1020 1080 1380 1750
2020-08-05 11:30 1.66 535 2890 (1982) 121 (1984) 684 168 180 230 246 508 1020 1080 1380 1750
2020-08-05 10:30 1.72 566 2890 (1982) 121 (1984) 684 168 180 230 246 508 1020 1080 1380 1750
2020-08-05 09:30 1.78 598 2890 (1982) 121 (1984) 684 168 180 230 246 508 1020 1080 1380 1750
2020-08-05 08:30 1.84 631 2890 (1982) 121 (1984) 684 168 180 230 246 508 1020 1080 1380 1750
2020-08-05 07:30 1.91 670 2890 (1982) 121 (1984) 684 168 180 230 246 508 1020 1080 1380 1750
2020-08-05 06:30 1.98 710 2890 (1982) 121 (1984) 684 168 180 230 246 508 1020 1080 1380 1750
2020-08-05 05:30 2.06 756 2890 (1982) 121 (1984) 684 168 180 230 246 508 1020 1080 1380 1750
2020-08-05 04:30 2.16 816 2890 (1982) 121 (1984) 684 168 180 230 246 508 1020 1080 1380 1750
2020-08-05 03:30 2.26 878 2890 (1982) 121 (1984) 684 168 180 230 246 508 1020 1080 1380 1750
2020-08-05 02:30 2.37 948 2890 (1982) 121 (1984) 684 168 180 230 246 508 1020 1080 1380 1750
2020-08-05 01:30 2.48 1020 2890 (1982) 121 (1984) 684 168 180 230 246 508 1020 1080 1380 1750
2020-08-05 00:30 2.61 1110 2890 (1982) 121 (1984) 684 168 180 230 246 508 1020 1080 1380 1750
2020-08-04 23:30 2.75 1210 2810 (1982) 156 (1985) 714 167 199 273 311 569 1010 1250 1420 1790
2020-08-04 22:30 2.88 1300 2810 (1982) 156 (1985) 714 167 199 273 311 569 1010 1250 1420 1790
2020-08-04 21:30 2.96 1360 2810 (1982) 156 (1985) 714 167 199 273 311 569 1010 1250 1420 1790
2020-08-04 20:30 2.92 1330 2810 (1982) 156 (1985) 714 167 199 273 311 569 1010 1250 1420 1790
2020-08-04 19:30 2.54 1060 2810 (1982) 156 (1985) 714 167 199 273 311 569 1010 1250 1420 1790
2020-08-04 18:30 1.79 604 2810 (1982) 156 (1985) 714 167 199 273 311 569 1010 1250 1420 1790
2020-08-04 17:30 1.41 413 2810 (1982) 156 (1985) 714 167 199 273 311 569 1010 1250 1420 1790
2020-08-04 16:30 1.40 409 2810 (1982) 156 (1985) 714 167 199 273 311 569 1010 1250 1420 1790
2020-08-04 15:30 1.46 437 2810 (1982) 156 (1985) 714 167 199 273 311 569 1010 1250 1420 1790
2020-08-04 14:30 1.50 456 2810 (1982) 156 (1985) 714 167 199 273 311 569 1010 1250 1420 1790
2020-08-04 13:30 1.54 475 2810 (1982) 156 (1985) 714 167 199 273 311 569 1010 1250 1420 1790
2020-08-04 12:30 1.59 500 2810 (1982) 156 (1985) 714 167 199 273 311 569 1010 1250 1420 1790
2020-08-04 11:30 1.63 520 2810 (1982) 156 (1985) 714 167 199 273 311 569 1010 1250 1420 1790
2020-08-04 10:30 1.69 551 2810 (1982) 156 (1985) 714 167 199 273 311 569 1010 1250 1420 1790
2020-08-04 09:30 1.76 588 2810 (1982) 156 (1985) 714 167 199 273 311 569 1010 1250 1420 1790
2020-08-04 08:30 1.82 620 2810 (1982) 156 (1985) 714 167 199 273 311 569 1010 1250 1420 1790
2020-08-04 07:30 1.89 659 2810 (1982) 156 (1985) 714 167 199 273 311 569 1010 1250 1420 1790
2020-08-04 06:30 1.97 704 2810 (1982) 156 (1985) 714 167 199 273 311 569 1010 1250 1420 1790
2020-08-04 05:30 2.05 750 2810 (1982) 156 (1985) 714 167 199 273 311 569 1010 1250 1420 1790
2020-08-04 04:30 2.14 804 2810 (1982) 156 (1985) 714 167 199 273 311 569 1010 1250 1420 1790
2020-08-04 03:30 2.24 866 2810 (1982) 156 (1985) 714 167 199 273 311 569 1010 1250 1420 1790
2020-08-04 02:30 2.34 929 2810 (1982) 156 (1985) 714 167 199 273 311 569 1010 1250 1420 1790
2020-08-04 01:30 2.45 1000 2810 (1982) 156 (1985) 714 167 199 273 311 569 1010 1250 1420 1790
2020-08-04 00:30 2.57 1080 2810 (1982) 156 (1985) 714 167 199 273 311 569 1010 1250 1420 1790
2020-08-03 23:30 2.69 1160 2610 (1979) 134 (1988) 759 168 196 293 308 561 1040 1160 1640 2180
2020-08-03 22:30 2.78 1230 2610 (1979) 134 (1988) 759 168 196 293 308 561 1040 1160 1640 2180
2020-08-03 21:30 2.78 1230 2610 (1979) 134 (1988) 759 168 196 293 308 561 1040 1160 1640 2180
2020-08-03 20:30 2.56 1070 2610 (1979) 134 (1988) 759 168 196 293 308 561 1040 1160 1640 2180
2020-08-03 19:30 1.97 704 2610 (1979) 134 (1988) 759 168 196 293 308 561 1040 1160 1640 2180
2020-08-03 18:30 1.33 377 2610 (1979) 134 (1988) 759 168 196 293 308 561 1040 1160 1640 2180
2020-08-03 17:30 1.16 305 2610 (1979) 134 (1988) 759 168 196 293 308 561 1040 1160 1640 2180
2020-08-03 16:30 1.15 301 2610 (1979) 134 (1988) 759 168 196 293 308 561 1040 1160 1640 2180
2020-08-03 15:30 1.18 313 2610 (1979) 134 (1988) 759 168 196 293 308 561 1040 1160 1640 2180
2020-08-03 14:30 1.19 317 2610 (1979) 134 (1988) 759 168 196 293 308 561 1040 1160 1640 2180
2020-08-03 13:30 1.21 325 2610 (1979) 134 (1988) 759 168 196 293 308 561 1040 1160 1640 2180
2020-08-03 12:30 1.22 329 2610 (1979) 134 (1988) 759 168 196 293 308 561 1040 1160 1640 2180
2020-08-03 11:30 1.24 338 2610 (1979) 134 (1988) 759 168 196 293 308 561 1040 1160 1640 2180
2020-08-03 10:30 1.26 346 2610 (1979) 134 (1988) 759 168 196 293 308 561 1040 1160 1640 2180
2020-08-03 09:30 1.28 355 2610 (1979) 134 (1988) 759 168 196 293 308 561 1040 1160 1640 2180
2020-08-03 08:30 1.30 364 2610 (1979) 134 (1988) 759 168 196 293 308 561 1040 1160 1640 2180
2020-08-03 07:30 1.32 373 2610 (1979) 134 (1988) 759 168 196 293 308 561 1040 1160 1640 2180
2020-08-03 06:30 1.34 382 2610 (1979) 134 (1988) 759 168 196 293 308 561 1040 1160 1640 2180
2020-08-03 05:30 1.36 391 2610 (1979) 134 (1988) 759 168 196 293 308 561 1040 1160 1640 2180
2020-08-03 04:30 1.38 400 2610 (1979) 134 (1988) 759 168 196 293 308 561 1040 1160 1640 2180
2020-08-03 03:30 1.41 413 2610 (1979) 134 (1988) 759 168 196 293 308 561 1040 1160 1640 2180
2020-08-03 02:30 1.44 427 2610 (1979) 134 (1988) 759 168 196 293 308 561 1040 1160 1640 2180
2020-08-03 01:30 1.47 441 2610 (1979) 134 (1988) 759 168 196 293 308 561 1040 1160 1640 2180
2020-08-03 00:30 1.50 456 2610 (1979) 134 (1988) 759 168 196 293 308 561 1040 1160 1640 2180
2020-08-02 23:30 1.53 470 3330 (2007) 99 (1988) 852 176 203 304 367 642 1150 1340 1720 2370
2020-08-02 22:30 1.57 490 3330 (2007) 99 (1988) 852 176 203 304 367 642 1150 1340 1720 2370
2020-08-02 21:30 1.62 515 3330 (2007) 99 (1988) 852 176 203 304 367 642 1150 1340 1720 2370
2020-08-02 20:30 1.66 535 3330 (2007) 99 (1988) 852 176 203 304 367 642 1150 1340 1720 2370
2020-08-02 19:30 1.70 556 3330 (2007) 99 (1988) 852 176 203 304 367 642 1150 1340 1720 2370
2020-08-02 18:30 1.74 577 3330 (2007) 99 (1988) 852 176 203 304 367 642 1150 1340 1720 2370
2020-08-02 17:30 1.79 604 3330 (2007) 99 (1988) 852 176 203 304 367 642 1150 1340 1720 2370
2020-08-02 16:30 1.81 615 3330 (2007) 99 (1988) 852 176 203 304 367 642 1150 1340 1720 2370
2020-08-02 15:30 1.80 609 3330 (2007) 99 (1988) 852 176 203 304 367 642 1150 1340 1720 2370
2020-08-02 14:30 1.74 577 3330 (2007) 99 (1988) 852 176 203 304 367 642 1150 1340 1720 2370
2020-08-02 13:30 1.53 470 3330 (2007) 99 (1988) 852 176 203 304 367 642 1150 1340 1720 2370
2020-08-02 12:30 1.27 351 3330 (2007) 99 (1988) 852 176 203 304 367 642 1150 1340 1720 2370
2020-08-02 11:30 1.14 296 3330 (2007) 99 (1988) 852 176 203 304 367 642 1150 1340 1720 2370
2020-08-02 10:30 1.14 296 3330 (2007) 99 (1988) 852 176 203 304 367 642 1150 1340 1720 2370
2020-08-02 09:30 1.14 296 3330 (2007) 99 (1988) 852 176 203 304 367 642 1150 1340 1720 2370
2020-08-02 08:30 1.15 301 3330 (2007) 99 (1988) 852 176 203 304 367 642 1150 1340 1720 2370
2020-08-02 07:30 1.16 305 3330 (2007) 99 (1988) 852 176 203 304 367 642 1150 1340 1720 2370
2020-08-02 06:30 1.16 305 3330 (2007) 99 (1988) 852 176 203 304 367 642 1150 1340 1720 2370
2020-08-02 05:30 1.17 309 3330 (2007) 99 (1988) 852 176 203 304 367 642 1150 1340 1720 2370
2020-08-02 03:30 1.19 317 3330 (2007) 99 (1988) 852 176 203 304 367 642 1150 1340 1720 2370
2020-08-02 02:30 1.20 321 3330 (2007) 99 (1988) 852 176 203 304 367 642 1150 1340 1720 2370
2020-08-02 01:30 1.20 321 3330 (2007) 99 (1988) 852 176 203 304 367 642 1150 1340 1720 2370
2020-08-02 00:30 1.21 325 3330 (2007) 99 (1988) 852 176 203 304 367 642 1150 1340 1720 2370
2020-08-01 23:30 1.22 329 3250 (2007) 121 (1988) 931 173 303 402 484 759 1290 1440 1940 2230
2020-08-01 22:30 1.23 334 3250 (2007) 121 (1988) 931 173 303 402 484 759 1290 1440 1940 2230
2020-08-01 21:30 1.24 338 3250 (2007) 121 (1988) 931 173 303 402 484 759 1290 1440 1940 2230
2020-08-01 20:30 1.26 346 3250 (2007) 121 (1988) 931 173 303 402 484 759 1290 1440 1940 2230
2020-08-01 19:30 1.28 355 3250 (2007) 121 (1988) 931 173 303 402 484 759 1290 1440 1940 2230
2020-08-01 18:30 1.28 355 3250 (2007) 121 (1988) 931 173 303 402 484 759 1290 1440 1940 2230
2020-08-01 17:30 1.31 368 3250 (2007) 121 (1988) 931 173 303 402 484 759 1290 1440 1940 2230
2020-08-01 16:30 1.33 377 3250 (2007) 121 (1988) 931 173 303 402 484 759 1290 1440 1940 2230
2020-08-01 15:30 1.33 377 3250 (2007) 121 (1988) 931 173 303 402 484 759 1290 1440 1940 2230
2020-08-01 14:30 1.39 404 3250 (2007) 121 (1988) 931 173 303 402 484 759 1290 1440 1940 2230
2020-08-01 13:30 1.42 418 3250 (2007) 121 (1988) 931 173 303 402 484 759 1290 1440 1940 2230
2020-08-01 12:30 1.44 427 3250 (2007) 121 (1988) 931 173 303 402 484 759 1290 1440 1940 2230
2020-08-01 11:30 1.50 456 3250 (2007) 121 (1988) 931 173 303 402 484 759 1290 1440 1940 2230
2020-08-01 10:30 1.54 475 3250 (2007) 121 (1988) 931 173 303 402 484 759 1290 1440 1940 2230
2020-08-01 09:30 1.59 500 3250 (2007) 121 (1988) 931 173 303 402 484 759 1290 1440 1940 2230
2020-08-01 08:30 1.64 525 3250 (2007) 121 (1988) 931 173 303 402 484 759 1290 1440 1940 2230
2020-08-01 07:30 1.68 546 3250 (2007) 121 (1988) 931 173 303 402 484 759 1290 1440 1940 2230
2020-08-01 06:30 1.74 577 3250 (2007) 121 (1988) 931 173 303 402 484 759 1290 1440 1940 2230
2020-08-01 05:30 1.79 604 3250 (2007) 121 (1988) 931 173 303 402 484 759 1290 1440 1940 2230
2020-08-01 04:30 1.86 642 3250 (2007) 121 (1988) 931 173 303 402 484 759 1290 1440 1940 2230
2020-08-01 03:30 1.92 675 3250 (2007) 121 (1988) 931 173 303 402 484 759 1290 1440 1940 2230
2020-08-01 02:30 2.00 721 3250 (2007) 121 (1988) 931 173 303 402 484 759 1290 1440 1940 2230
2020-08-01 01:30 2.08 768 3250 (2007) 121 (1988) 931 173 303 402 484 759 1290 1440 1940 2230
2020-08-01 00:30 2.16 816 3250 (2007) 121 (1988) 931 173 303 402 484 759 1290 1440 1940 2230
2020-07-31 23:30 2.24 866 2930 (2014) 137 (1988) 1020 190 209 353 417 708 1550 1610 2240 2810
2020-07-31 22:30 2.30 903 2930 (2014) 137 (1988) 1020 190 209 353 417 708 1550 1610 2240 2810
2020-07-31 21:30 2.32 916 2930 (2014) 137 (1988) 1020 190 209 353 417 708 1550 1610 2240 2810
2020-07-31 20:30 2.24 866 2930 (2014) 137 (1988) 1020 190 209 353 417 708 1550 1610 2240 2810
2020-07-31 19:30 2.01 727 2930 (2014) 137 (1988) 1020 190 209 353 417 708 1550 1610 2240 2810
2020-07-31 18:30 1.71 561 2930 (2014) 137 (1988) 1020 190 209 353 417 708 1550 1610 2240 2810
2020-07-31 17:30 1.63 520 2930 (2014) 137 (1988) 1020 190 209 353 417 708 1550 1610 2240 2810
2020-07-31 16:30 1.65 530 2930 (2014) 137 (1988) 1020 190 209 353 417 708 1550 1610 2240 2810
2020-07-31 15:30 1.72 566 2930 (2014) 137 (1988) 1020 190 209 353 417 708 1550 1610 2240 2810
2020-07-31 14:30 1.77 593 2930 (2014) 137 (1988) 1020 190 209 353 417 708 1550 1610 2240 2810
2020-07-31 13:30 1.85 636 2930 (2014) 137 (1988) 1020 190 209 353 417 708 1550 1610 2240 2810
2020-07-31 12:30 1.93 681 2930 (2014) 137 (1988) 1020 190 209 353 417 708 1550 1610 2240 2810
2020-07-31 11:30 2.00 721 2930 (2014) 137 (1988) 1020 190 209 353 417 708 1550 1610 2240 2810
2020-07-31 10:30 2.09 774 2930 (2014) 137 (1988) 1020 190 209 353 417 708 1550 1610 2240 2810
2020-07-31 09:30 2.19 835 2930 (2014) 137 (1988) 1020 190 209 353 417 708 1550 1610 2240 2810
2020-07-31 08:30 2.29 897 2930 (2014) 137 (1988) 1020 190 209 353 417 708 1550 1610 2240 2810
2020-07-31 07:30 2.32 916 2930 (2014) 137 (1988) 1020 190 209 353 417 708 1550 1610 2240 2810
2020-07-31 06:30 2.47 1010 2930 (2014) 137 (1988) 1020 190 209 353 417 708 1550 1610 2240 2810
2020-07-31 05:30 2.58 1090 2930 (2014) 137 (1988) 1020 190 209 353 417 708 1550 1610 2240 2810
2020-07-31 04:30 2.72 1190 2930 (2014) 137 (1988) 1020 190 209 353 417 708 1550 1610 2240 2810
2020-07-31 03:30 2.87 1290 2930 (2014) 137 (1988) 1020 190 209 353 417 708 1550 1610 2240 2810
2020-07-31 02:30 3.03 1410 2930 (2014) 137 (1988) 1020 190 209 353 417 708 1550 1610 2240 2810
2020-07-31 01:30 3.21 1550 2930 (2014) 137 (1988) 1020 190 209 353 417 708 1550 1610 2240 2810
2020-07-30 23:30 3.59 1870 3100 (1976) 133 (1988) 1040 134 184 327 387 834 1570 1830 2040 2670
2020-07-30 22:30 3.79 2040 3100 (1976) 133 (1988) 1040 134 184 327 387 834 1570 1830 2040 2670
2020-07-30 21:30 4.01 2240 3100 (1976) 133 (1988) 1040 134 184 327 387 834 1570 1830 2040 2670
2020-07-30 20:30 4.20 2420 3100 (1976) 133 (1988) 1040 134 184 327 387 834 1570 1830 2040 2670
2020-07-30 19:30 4.24 2450 3100 (1976) 133 (1988) 1040 134 184 327 387 834 1570 1830 2040 2670
2020-07-30 18:30 3.74 2000 3100 (1976) 133 (1988) 1040 134 184 327 387 834 1570 1830 2040 2670
2020-07-30 17:30 2.55 1070 3100 (1976) 133 (1988) 1040 134 184 327 387 834 1570 1830 2040 2670
2020-07-30 16:30 1.85 636 3100 (1976) 133 (1988) 1040 134 184 327 387 834 1570 1830 2040 2670
2020-07-30 15:30 1.82 620 3100 (1976) 133 (1988) 1040 134 184 327 387 834 1570 1830 2040 2670
2020-07-30 14:30 1.87 647 3100 (1976) 133 (1988) 1040 134 184 327 387 834 1570 1830 2040 2670
2020-07-30 13:30 1.98 710 3100 (1976) 133 (1988) 1040 134 184 327 387 834 1570 1830 2040 2670
2020-07-30 12:30 2.06 756 3100 (1976) 133 (1988) 1040 134 184 327 387 834 1570 1830 2040 2670
2020-07-30 11:30 2.17 822 3100 (1976) 133 (1988) 1040 134 184 327 387 834 1570 1830 2040 2670
2020-07-30 10:30 2.27 884 3100 (1976) 133 (1988) 1040 134 184 327 387 834 1570 1830 2040 2670
2020-07-30 09:30 2.38 955 3100 (1976) 133 (1988) 1040 134 184 327 387 834 1570 1830 2040 2670
2020-07-30 08:30 2.50 1030 3100 (1976) 133 (1988) 1040 134 184 327 387 834 1570 1830 2040 2670
2020-07-30 07:30 2.63 1120 3100 (1976) 133 (1988) 1040 134 184 327 387 834 1570 1830 2040 2670
2020-07-30 06:30 2.78 1230 3100 (1976) 133 (1988) 1040 134 184 327 387 834 1570 1830 2040 2670
2020-07-30 05:30 2.93 1340 3100 (1976) 133 (1988) 1040 134 184 327 387 834 1570 1830 2040 2670
2020-07-30 04:30 3.10 1470 3100 (1976) 133 (1988) 1040 134 184 327 387 834 1570 1830 2040 2670
2020-07-30 03:30 3.29 1620 3100 (1976) 133 (1988) 1040 134 184 327 387 834 1570 1830 2040 2670
2020-07-30 02:30 3.48 1770 3100 (1976) 133 (1988) 1040 134 184 327 387 834 1570 1830 2040 2670
2020-07-30 01:30 3.70 1960 3100 (1976) 133 (1988) 1040 134 184 327 387 834 1570 1830 2040 2670
2020-07-30 00:30 3.94 2180 3100 (1976) 133 (1988) 1040 134 184 327 387 834 1570 1830 2040 2670
2020-07-29 23:30 4.17 2390 2960 (1999) 107 (1988) 871 181 201 328 434 677 1210 1270 1670 2450
2020-07-29 22:30 4.39 2600 2960 (1999) 107 (1988) 871 181 201 328 434 677 1210 1270 1670 2450
2020-07-29 21:30 4.60 2810 2960 (1999) 107 (1988) 871 181 201 328 434 677 1210 1270 1670 2450
2020-07-29 20:30 4.73 2940 2960 (1999) 107 (1988) 871 181 201 328 434 677 1210 1270 1670 2450
2020-07-29 19:30 4.58 2790 2960 (1999) 107 (1988) 871 181 201 328 434 677 1210 1270 1670 2450
2020-07-29 18:30 3.80 2050 2960 (1999) 107 (1988) 871 181 201 328 434 677 1210 1270 1670 2450
2020-07-29 17:30 2.58 1090 2960 (1999) 107 (1988) 871 181 201 328 434 677 1210 1270 1670 2450
2020-07-29 16:30 1.85 636 2960 (1999) 107 (1988) 871 181 201 328 434 677 1210 1270 1670 2450
2020-07-29 15:30 1.85 636 2960 (1999) 107 (1988) 871 181 201 328 434 677 1210 1270 1670 2450
2020-07-29 14:30 1.93 681 2960 (1999) 107 (1988) 871 181 201 328 434 677 1210 1270 1670 2450
2020-07-29 13:30 2.01 727 2960 (1999) 107 (1988) 871 181 201 328 434 677 1210 1270 1670 2450
2020-07-29 12:30 2.10 780 2960 (1999) 107 (1988) 871 181 201 328 434 677 1210 1270 1670 2450
2020-07-29 11:30 2.19 835 2960 (1999) 107 (1988) 871 181 201 328 434 677 1210 1270 1670 2450
2020-07-29 10:30 2.29 897 2960 (1999) 107 (1988) 871 181 201 328 434 677 1210 1270 1670 2450
2020-07-29 09:30 2.40 968 2960 (1999) 107 (1988) 871 181 201 328 434 677 1210 1270 1670 2450
2020-07-29 08:30 2.52 1050 2960 (1999) 107 (1988) 871 181 201 328 434 677 1210 1270 1670 2450
2020-07-29 07:30 2.65 1140 2960 (1999) 107 (1988) 871 181 201 328 434 677 1210 1270 1670 2450
2020-07-29 06:30 2.79 1240 2960 (1999) 107 (1988) 871 181 201 328 434 677 1210 1270 1670 2450
2020-07-29 05:30 2.95 1350 2960 (1999) 107 (1988) 871 181 201 328 434 677 1210 1270 1670 2450
2020-07-29 04:30 3.12 1480 2960 (1999) 107 (1988) 871 181 201 328 434 677 1210 1270 1670 2450
2020-07-29 03:30 3.30 1630 2960 (1999) 107 (1988) 871 181 201 328 434 677 1210 1270 1670 2450
2020-07-29 02:30 3.50 1790 2960 (1999) 107 (1988) 871 181 201 328 434 677 1210 1270 1670 2450
2020-07-29 00:30 3.95 2180 2960 (1999) 107 (1988) 871 181 201 328 434 677 1210 1270 1670 2450
2020-07-28 23:30 4.18 2400 3290 (1989) 125 (1988) 927 153 205 307 379 690 1300 1430 2010 2510
2020-07-28 22:30 4.41 2620 3290 (1989) 125 (1988) 927 153 205 307 379 690 1300 1430 2010 2510
2020-07-28 21:30 4.61 2820 3290 (1989) 125 (1988) 927 153 205 307 379 690 1300 1430 2010 2510
2020-07-28 20:30 4.75 2960 3290 (1989) 125 (1988) 927 153 205 307 379 690 1300 1430 2010 2510
2020-07-28 19:30 4.58 2790 3290 (1989) 125 (1988) 927 153 205 307 379 690 1300 1430 2010 2510
2020-07-28 18:30 3.84 2090 3290 (1989) 125 (1988) 927 153 205 307 379 690 1300 1430 2010 2510
2020-07-28 17:30 2.64 1130 3290 (1989) 125 (1988) 927 153 205 307 379 690 1300 1430 2010 2510
2020-07-28 16:30 1.90 664 3290 (1989) 125 (1988) 927 153 205 307 379 690 1300 1430 2010 2510
2020-07-28 15:30 1.87 647 3290 (1989) 125 (1988) 927 153 205 307 379 690 1300 1430 2010 2510
2020-07-28 14:30 1.98 710 3290 (1989) 125 (1988) 927 153 205 307 379 690 1300 1430 2010 2510
2020-07-28 13:30 2.07 762 3290 (1989) 125 (1988) 927 153 205 307 379 690 1300 1430 2010 2510
2020-07-28 12:30 2.17 822 3290 (1989) 125 (1988) 927 153 205 307 379 690 1300 1430 2010 2510
2020-07-28 11:30 2.28 891 3290 (1989) 125 (1988) 927 153 205 307 379 690 1300 1430 2010 2510
2020-07-28 10:30 2.38 955 3290 (1989) 125 (1988) 927 153 205 307 379 690 1300 1430 2010 2510
2020-07-28 09:30 2.51 1040 3290 (1989) 125 (1988) 927 153 205 307 379 690 1300 1430 2010 2510
2020-07-28 08:30 2.65 1140 3290 (1989) 125 (1988) 927 153 205 307 379 690 1300 1430 2010 2510
2020-07-28 07:30 2.79 1240 3290 (1989) 125 (1988) 927 153 205 307 379 690 1300 1430 2010 2510
2020-07-28 06:30 2.95 1350 3290 (1989) 125 (1988) 927 153 205 307 379 690 1300 1430 2010 2510
2020-07-28 05:30 3.12 1480 3290 (1989) 125 (1988) 927 153 205 307 379 690 1300 1430 2010 2510
2020-07-28 04:30 3.30 1630 3290 (1989) 125 (1988) 927 153 205 307 379 690 1300 1430 2010 2510
2020-07-28 03:30 3.51 1800 3290 (1989) 125 (1988) 927 153 205 307 379 690 1300 1430 2010 2510
2020-07-28 02:30 3.73 1990 3290 (1989) 125 (1988) 927 153 205 307 379 690 1300 1430 2010 2510
2020-07-28 01:30 3.96 2190 3290 (1989) 125 (1988) 927 153 205 307 379 690 1300 1430 2010 2510
2020-07-28 00:30 4.19 2410 3290 (1989) 125 (1988) 927 153 205 307 379 690 1300 1430 2010 2510
2020-07-27 23:30 4.43 2640 6150 (2007) 128 (1988) 977 157 209 310 337 723 1190 1240 2310 3160
2020-07-27 22:30 4.65 2860 6150 (2007) 128 (1988) 977 157 209 310 337 723 1190 1240 2310 3160
2020-07-27 21:30 4.86 3080 6150 (2007) 128 (1988) 977 157 209 310 337 723 1190 1240 2310 3160
2020-07-27 20:30 5.02 3240 6150 (2007) 128 (1988) 977 157 209 310 337 723 1190 1240 2310 3160
2020-07-27 19:30 4.98 3200 6150 (2007) 128 (1988) 977 157 209 310 337 723 1190 1240 2310 3160
2020-07-27 18:30 4.53 2740 6150 (2007) 128 (1988) 977 157 209 310 337 723 1190 1240 2310 3160
2020-07-27 17:30 3.65 1920 6150 (2007) 128 (1988) 977 157 209 310 337 723 1190 1240 2310 3160
2020-07-27 16:30 2.41 974 6150 (2007) 128 (1988) 977 157 209 310 337 723 1190 1240 2310 3160
2020-07-27 15:30 1.71 561 6150 (2007) 128 (1988) 977 157 209 310 337 723 1190 1240 2310 3160
2020-07-27 14:30 1.69 551 6150 (2007) 128 (1988) 977 157 209 310 337 723 1190 1240 2310 3160
2020-07-27 13:30 1.78 598 6150 (2007) 128 (1988) 977 157 209 310 337 723 1190 1240 2310 3160
2020-07-27 12:30 1.85 636 6150 (2007) 128 (1988) 977 157 209 310 337 723 1190 1240 2310 3160
2020-07-27 11:30 1.92 675 6150 (2007) 128 (1988) 977 157 209 310 337 723 1190 1240 2310 3160
2020-07-27 10:30 2.00 721 6150 (2007) 128 (1988) 977 157 209 310 337 723 1190 1240 2310 3160
2020-07-27 09:30 2.08 768 6150 (2007) 128 (1988) 977 157 209 310 337 723 1190 1240 2310 3160
2020-07-27 08:30 2.18 829 6150 (2007) 128 (1988) 977 157 209 310 337 723 1190 1240 2310 3160
2020-07-27 07:30 2.27 884 6150 (2007) 128 (1988) 977 157 209 310 337 723 1190 1240 2310 3160
2020-07-27 06:30 2.38 955 6150 (2007) 128 (1988) 977 157 209 310 337 723 1190 1240 2310 3160
2020-07-27 05:30 2.50 1030 6150 (2007) 128 (1988) 977 157 209 310 337 723 1190 1240 2310 3160
2020-07-27 04:30 2.63 1120 6150 (2007) 128 (1988) 977 157 209 310 337 723 1190 1240 2310 3160
2020-07-27 03:30 2.77 1220 6150 (2007) 128 (1988) 977 157 209 310 337 723 1190 1240 2310 3160
2020-07-27 01:30 3.09 1460 6150 (2007) 128 (1988) 977 157 209 310 337 723 1190 1240 2310 3160
2020-07-27 00:30 3.27 1600 6150 (2007) 128 (1988) 977 157 209 310 337 723 1190 1240 2310 3160
2020-07-26 23:30 3.48 1770 6340 (2007) 119 (1988) 924 168 184 281 294 671 1130 1260 1910 2800
2020-07-26 22:30 3.70 1960 6340 (2007) 119 (1988) 924 168 184 281 294 671 1130 1260 1910 2800
2020-07-26 21:30 3.92 2150 6340 (2007) 119 (1988) 924 168 184 281 294 671 1130 1260 1910 2800
2020-07-26 20:30 4.08 2280 6340 (2007) 119 (1988) 924 168 184 281 294 671 1130 1260 1910 2800
2020-07-26 19:30 4.06 2260 6340 (2007) 119 (1988) 924 168 184 281 294 671 1130 1260 1910 2800
2020-07-26 18:30 3.39 1700 6340 (2007) 119 (1988) 924 168 184 281 294 671 1130 1260 1910 2800
2020-07-26 17:30 2.09 774 6340 (2007) 119 (1988) 924 168 184 281 294 671 1130 1260 1910 2800
2020-07-26 16:30 1.42 418 6340 (2007) 119 (1988) 924 168 184 281 294 671 1130 1260 1910 2800
2020-07-26 15:30 1.44 427 6340 (2007) 119 (1988) 924 168 184 281 294 671 1130 1260 1910 2800
2020-07-26 14:30 1.48 446 6340 (2007) 119 (1988) 924 168 184 281 294 671 1130 1260 1910 2800
2020-07-26 13:30 1.52 465 6340 (2007) 119 (1988) 924 168 184 281 294 671 1130 1260 1910 2800
2020-07-26 12:30 1.56 485 6340 (2007) 119 (1988) 924 168 184 281 294 671 1130 1260 1910 2800
2020-07-26 11:30 1.60 505 6340 (2007) 119 (1988) 924 168 184 281 294 671 1130 1260 1910 2800
2020-07-26 10:30 1.65 530 6340 (2007) 119 (1988) 924 168 184 281 294 671 1130 1260 1910 2800
2020-07-26 09:30 1.70 556 6340 (2007) 119 (1988) 924 168 184 281 294 671 1130 1260 1910 2800
2020-07-26 08:30 1.76 588 6340 (2007) 119 (1988) 924 168 184 281 294 671 1130 1260 1910 2800
2020-07-26 07:30 1.82 620 6340 (2007) 119 (1988) 924 168 184 281 294 671 1130 1260 1910 2800
2020-07-26 06:30 1.88 653 6340 (2007) 119 (1988) 924 168 184 281 294 671 1130 1260 1910 2800
2020-07-26 05:30 1.95 692 6340 (2007) 119 (1988) 924 168 184 281 294 671 1130 1260 1910 2800
2020-07-26 04:30 2.03 739 6340 (2007) 119 (1988) 924 168 184 281 294 671 1130 1260 1910 2800
2020-07-26 03:30 2.11 786 6340 (2007) 119 (1988) 924 168 184 281 294 671 1130 1260 1910 2800
2020-07-26 02:30 2.21 847 6340 (2007) 119 (1988) 924 168 184 281 294 671 1130 1260 1910 2800
2020-07-26 01:30 2.31 910 6340 (2007) 119 (1988) 924 168 184 281 294 671 1130 1260 1910 2800
2020-07-26 00:30 2.41 974 6340 (2007) 119 (1988) 924 168 184 281 294 671 1130 1260 1910 2800
2020-07-25 23:30 2.52 1050 8610 (2007) 135 (1988) 987 141 187 295 305 573 1030 1200 2180 3750
2020-07-25 22:30 2.61 1110 8610 (2007) 135 (1988) 987 141 187 295 305 573 1030 1200 2180 3750
2020-07-25 21:30 2.64 1130 8610 (2007) 135 (1988) 987 141 187 295 305 573 1030 1200 2180 3750
2020-07-25 20:30 2.49 1030 8610 (2007) 135 (1988) 987 141 187 295 305 573 1030 1200 2180 3750
2020-07-25 19:30 2.14 804 8610 (2007) 135 (1988) 987 141 187 295 305 573 1030 1200 2180 3750
2020-07-25 18:30 1.78 598 8610 (2007) 135 (1988) 987 141 187 295 305 573 1030 1200 2180 3750
2020-07-25 17:30 1.79 604 8610 (2007) 135 (1988) 987 141 187 295 305 573 1030 1200 2180 3750
2020-07-25 16:30 1.86 642 8610 (2007) 135 (1988) 987 141 187 295 305 573 1030 1200 2180 3750
2020-07-25 15:30 1.89 659 8610 (2007) 135 (1988) 987 141 187 295 305 573 1030 1200 2180 3750
2020-07-25 14:30 2.01 727 8610 (2007) 135 (1988) 987 141 187 295 305 573 1030 1200 2180 3750
2020-07-25 13:30 2.07 762 8610 (2007) 135 (1988) 987 141 187 295 305 573 1030 1200 2180 3750
2020-07-25 12:30 2.20 841 8610 (2007) 135 (1988) 987 141 187 295 305 573 1030 1200 2180 3750
2020-07-25 11:30 2.29 897 8610 (2007) 135 (1988) 987 141 187 295 305 573 1030 1200 2180 3750
2020-07-25 10:30 2.39 961 8610 (2007) 135 (1988) 987 141 187 295 305 573 1030 1200 2180 3750
2020-07-25 09:30 2.55 1070 8610 (2007) 135 (1988) 987 141 187 295 305 573 1030 1200 2180 3750
2020-07-25 08:30 2.67 1150 8610 (2007) 135 (1988) 987 141 187 295 305 573 1030 1200 2180 3750
2020-07-25 07:30 2.82 1260 8610 (2007) 135 (1988) 987 141 187 295 305 573 1030 1200 2180 3750
2020-07-25 06:30 2.97 1370 8610 (2007) 135 (1988) 987 141 187 295 305 573 1030 1200 2180 3750
2020-07-25 05:30 3.16 1510 8610 (2007) 135 (1988) 987 141 187 295 305 573 1030 1200 2180 3750
2020-07-25 04:30 3.33 1650 8610 (2007) 135 (1988) 987 141 187 295 305 573 1030 1200 2180 3750
2020-07-25 02:30 3.76 2010 8610 (2007) 135 (1988) 987 141 187 295 305 573 1030 1200 2180 3750
2020-07-25 01:30 3.99 2200 8610 (2007) 135 (1988) 987 141 187 295 305 573 1030 1200 2180 3750
2020-07-25 00:30 4.24 2420 8610 (2007) 135 (1988) 987 141 187 295 305 573 1030 1200 2180 3750
2020-07-24 23:30 4.46 2620 8570 (2007) 131 (1978) 993 162 194 276 319 603 1270 1420 1980 3470
2020-07-24 22:30 4.69 2830 8570 (2007) 131 (1978) 993 162 194 276 319 603 1270 1420 1980 3470
2020-07-24 21:30 4.90 3020 8570 (2007) 131 (1978) 993 162 194 276 319 603 1270 1420 1980 3470
2020-07-24 20:30 5.05 3170 8570 (2007) 131 (1978) 993 162 194 276 319 603 1270 1420 1980 3470
2020-07-24 19:30 5.02 3140 8570 (2007) 131 (1978) 993 162 194 276 319 603 1270 1420 1980 3470
2020-07-24 18:30 4.63 2770 8570 (2007) 131 (1978) 993 162 194 276 319 603 1270 1420 1980 3470
2020-07-24 17:30 3.84 2080 8570 (2007) 131 (1978) 993 162 194 276 319 603 1270 1420 1980 3470
2020-07-24 16:30 2.70 1170 8570 (2007) 131 (1978) 993 162 194 276 319 603 1270 1420 1980 3470
2020-07-24 15:30 1.94 687 8570 (2007) 131 (1978) 993 162 194 276 319 603 1270 1420 1980 3470
2020-07-24 14:30 1.97 704 8570 (2007) 131 (1978) 993 162 194 276 319 603 1270 1420 1980 3470
2020-07-24 13:30 2.07 762 8570 (2007) 131 (1978) 993 162 194 276 319 603 1270 1420 1980 3470
2020-07-24 12:30 2.16 816 8570 (2007) 131 (1978) 993 162 194 276 319 603 1270 1420 1980 3470
2020-07-24 11:30 2.25 872 8570 (2007) 131 (1978) 993 162 194 276 319 603 1270 1420 1980 3470
2020-07-24 10:30 2.36 942 8570 (2007) 131 (1978) 993 162 194 276 319 603 1270 1420 1980 3470
2020-07-24 09:30 2.48 1020 8570 (2007) 131 (1978) 993 162 194 276 319 603 1270 1420 1980 3470
2020-07-24 08:30 2.60 1100 8570 (2007) 131 (1978) 993 162 194 276 319 603 1270 1420 1980 3470
2020-07-24 07:30 2.75 1210 8570 (2007) 131 (1978) 993 162 194 276 319 603 1270 1420 1980 3470
2020-07-24 06:30 2.89 1310 8570 (2007) 131 (1978) 993 162 194 276 319 603 1270 1420 1980 3470
2020-07-24 05:30 3.07 1440 8570 (2007) 131 (1978) 993 162 194 276 319 603 1270 1420 1980 3470
2020-07-24 04:30 3.23 1570 8570 (2007) 131 (1978) 993 162 194 276 319 603 1270 1420 1980 3470
2020-07-24 03:30 3.43 1730 8570 (2007) 131 (1978) 993 162 194 276 319 603 1270 1420 1980 3470
2020-07-24 02:30 3.63 1900 8570 (2007) 131 (1978) 993 162 194 276 319 603 1270 1420 1980 3470
2020-07-24 01:30 3.87 2100 8570 (2007) 131 (1978) 993 162 194 276 319 603 1270 1420 1980 3470
2020-07-24 00:30 4.11 2310 8570 (2007) 131 (1978) 993 162 194 276 319 603 1270 1420 1980 3470
2020-07-23 23:30 4.34 2510 6410 (2007) 113 (1978) 1040 186 218 301 336 594 1430 1590 2220 2900
2020-07-23 22:30 4.57 2720 6410 (2007) 113 (1978) 1040 186 218 301 336 594 1430 1590 2220 2900
2020-07-23 21:30 4.78 2910 6410 (2007) 113 (1978) 1040 186 218 301 336 594 1430 1590 2220 2900
2020-07-23 20:30 4.93 3050 6410 (2007) 113 (1978) 1040 186 218 301 336 594 1430 1590 2220 2900
2020-07-23 19:30 4.86 2990 6410 (2007) 113 (1978) 1040 186 218 301 336 594 1430 1590 2220 2900
2020-07-23 18:30 4.31 2480 6410 (2007) 113 (1978) 1040 186 218 301 336 594 1430 1590 2220 2900
2020-07-23 17:30 3.35 1670 6410 (2007) 113 (1978) 1040 186 218 301 336 594 1430 1590 2220 2900
2020-07-23 16:30 2.32 916 6410 (2007) 113 (1978) 1040 186 218 301 336 594 1430 1590 2220 2900
2020-07-23 15:30 1.98 710 6410 (2007) 113 (1978) 1040 186 218 301 336 594 1430 1590 2220 2900
2020-07-23 14:30 2.05 750 6410 (2007) 113 (1978) 1040 186 218 301 336 594 1430 1590 2220 2900
2020-07-23 13:30 2.14 804 6410 (2007) 113 (1978) 1040 186 218 301 336 594 1430 1590 2220 2900
2020-07-23 12:30 2.23 859 6410 (2007) 113 (1978) 1040 186 218 301 336 594 1430 1590 2220 2900
2020-07-23 11:30 2.33 923 6410 (2007) 113 (1978) 1040 186 218 301 336 594 1430 1590 2220 2900
2020-07-23 10:30 2.44 994 6410 (2007) 113 (1978) 1040 186 218 301 336 594 1430 1590 2220 2900
2020-07-23 09:30 2.56 1070 6410 (2007) 113 (1978) 1040 186 218 301 336 594 1430 1590 2220 2900
2020-07-23 08:30 2.69 1160 6410 (2007) 113 (1978) 1040 186 218 301 336 594 1430 1590 2220 2900
2020-07-23 07:30 2.83 1270 6410 (2007) 113 (1978) 1040 186 218 301 336 594 1430 1590 2220 2900
2020-07-23 06:30 2.98 1380 6410 (2007) 113 (1978) 1040 186 218 301 336 594 1430 1590 2220 2900
2020-07-23 05:30 3.14 1500 6410 (2007) 113 (1978) 1040 186 218 301 336 594 1430 1590 2220 2900
2020-07-23 04:30 3.32 1640 6410 (2007) 113 (1978) 1040 186 218 301 336 594 1430 1590 2220 2900
2020-07-23 03:30 3.51 1800 6410 (2007) 113 (1978) 1040 186 218 301 336 594 1430 1590 2220 2900
2020-07-23 02:30 3.71 1970 6410 (2007) 113 (1978) 1040 186 218 301 336 594 1430 1590 2220 2900
2020-07-23 01:30 3.94 2160 6410 (2007) 113 (1978) 1040 186 218 301 336 594 1430 1590 2220 2900
2020-07-23 00:30 4.17 2360 6410 (2007) 113 (1978) 1040 186 218 301 336 594 1430 1590 2220 2900
2020-07-22 23:30 4.39 2550 7070 (2007) 145 (1988) 1130 164 181 342 417 765 1630 1930 2400 2590
2020-07-22 22:30 4.63 2770 7070 (2007) 145 (1988) 1130 164 181 342 417 765 1630 1930 2400 2590
2020-07-22 21:30 4.81 2940 7070 (2007) 145 (1988) 1130 164 181 342 417 765 1630 1930 2400 2590
2020-07-22 20:30 4.94 3060 7070 (2007) 145 (1988) 1130 164 181 342 417 765 1630 1930 2400 2590
2020-07-22 19:30 4.86 2990 7070 (2007) 145 (1988) 1130 164 181 342 417 765 1630 1930 2400 2590
2020-07-22 18:30 4.19 2380 7070 (2007) 145 (1988) 1130 164 181 342 417 765 1630 1930 2400 2590
2020-07-22 17:30 3.12 1480 7070 (2007) 145 (1988) 1130 164 181 342 417 765 1630 1930 2400 2590
2020-07-22 16:30 2.27 884 7070 (2007) 145 (1988) 1130 164 181 342 417 765 1630 1930 2400 2590
2020-07-22 15:30 2.07 762 7070 (2007) 145 (1988) 1130 164 181 342 417 765 1630 1930 2400 2590
2020-07-22 14:30 1.91 670 7070 (2007) 145 (1988) 1130 164 181 342 417 765 1630 1930 2400 2590
2020-07-22 13:30 1.98 710 7070 (2007) 145 (1988) 1130 164 181 342 417 765 1630 1930 2400 2590
2020-07-22 12:30 2.08 768 7070 (2007) 145 (1988) 1130 164 181 342 417 765 1630 1930 2400 2590
2020-07-22 11:30 2.16 816 7070 (2007) 145 (1988) 1130 164 181 342 417 765 1630 1930 2400 2590
2020-07-22 10:30 2.26 878 7070 (2007) 145 (1988) 1130 164 181 342 417 765 1630 1930 2400 2590
2020-07-22 09:30 2.38 955 7070 (2007) 145 (1988) 1130 164 181 342 417 765 1630 1930 2400 2590
2020-07-22 08:30 2.50 1030 7070 (2007) 145 (1988) 1130 164 181 342 417 765 1630 1930 2400 2590
2020-07-22 07:30 2.63 1120 7070 (2007) 145 (1988) 1130 164 181 342 417 765 1630 1930 2400 2590
2020-07-22 06:30 2.77 1220 7070 (2007) 145 (1988) 1130 164 181 342 417 765 1630 1930 2400 2590
2020-07-22 05:30 2.93 1340 7070 (2007) 145 (1988) 1130 164 181 342 417 765 1630 1930 2400 2590
2020-07-22 04:30 3.09 1460 7070 (2007) 145 (1988) 1130 164 181 342 417 765 1630 1930 2400 2590
2020-07-22 03:30 3.27 1600 7070 (2007) 145 (1988) 1130 164 181 342 417 765 1630 1930 2400 2590
2020-07-22 02:30 3.46 1760 7070 (2007) 145 (1988) 1130 164 181 342 417 765 1630 1930 2400 2590
2020-07-22 01:30 3.69 1950 7070 (2007) 145 (1988) 1130 164 181 342 417 765 1630 1930 2400 2590
2020-07-22 00:30 3.91 2140 7070 (2007) 145 (1988) 1130 164 181 342 417 765 1630 1930 2400 2590
2020-07-21 23:30 4.14 2330 8560 (2007) 111 (2008) 1200 157 223 389 416 820 1610 1940 2410 3000
2020-07-21 22:30 4.37 2530 8560 (2007) 111 (2008) 1200 157 223 389 416 820 1610 1940 2410 3000
2020-07-21 21:30 4.58 2720 8560 (2007) 111 (2008) 1200 157 223 389 416 820 1610 1940 2410 3000
2020-07-21 20:30 4.72 2850 8560 (2007) 111 (2008) 1200 157 223 389 416 820 1610 1940 2410 3000
2020-07-21 19:30 4.56 2710 8560 (2007) 111 (2008) 1200 157 223 389 416 820 1610 1940 2410 3000
2020-07-21 18:30 3.77 2020 8560 (2007) 111 (2008) 1200 157 223 389 416 820 1610 1940 2410 3000
2020-07-21 17:30 2.58 1090 8560 (2007) 111 (2008) 1200 157 223 389 416 820 1610 1940 2410 3000
2020-07-21 16:30 1.87 647 8560 (2007) 111 (2008) 1200 157 223 389 416 820 1610 1940 2410 3000
2020-07-21 15:30 1.84 631 8560 (2007) 111 (2008) 1200 157 223 389 416 820 1610 1940 2410 3000
2020-07-21 14:30 1.93 681 8560 (2007) 111 (2008) 1200 157 223 389 416 820 1610 1940 2410 3000
2020-07-21 13:30 2.01 727 8560 (2007) 111 (2008) 1200 157 223 389 416 820 1610 1940 2410 3000
2020-07-21 12:30 2.10 780 8560 (2007) 111 (2008) 1200 157 223 389 416 820 1610 1940 2410 3000
2020-07-21 11:30 2.21 847 8560 (2007) 111 (2008) 1200 157 223 389 416 820 1610 1940 2410 3000
2020-07-21 10:30 2.31 910 8560 (2007) 111 (2008) 1200 157 223 389 416 820 1610 1940 2410 3000
2020-07-21 09:30 2.43 988 8560 (2007) 111 (2008) 1200 157 223 389 416 820 1610 1940 2410 3000
2020-07-21 08:30 2.55 1070 8560 (2007) 111 (2008) 1200 157 223 389 416 820 1610 1940 2410 3000
2020-07-21 07:30 2.69 1160 8560 (2007) 111 (2008) 1200 157 223 389 416 820 1610 1940 2410 3000
2020-07-21 06:30 2.83 1270 8560 (2007) 111 (2008) 1200 157 223 389 416 820 1610 1940 2410 3000
2020-07-21 05:30 2.99 1380 8560 (2007) 111 (2008) 1200 157 223 389 416 820 1610 1940 2410 3000
2020-07-21 04:30 3.17 1520 8560 (2007) 111 (2008) 1200 157 223 389 416 820 1610 1940 2410 3000
2020-07-21 03:30 3.34 1660 8560 (2007) 111 (2008) 1200 157 223 389 416 820 1610 1940 2410 3000
2020-07-21 02:30 3.54 1820 8560 (2007) 111 (2008) 1200 157 223 389 416 820 1610 1940 2410 3000
2020-07-21 01:30 3.77 2020 8560 (2007) 111 (2008) 1200 157 223 389 416 820 1610 1940 2410 3000
2020-07-21 00:30 4.01 2220 8560 (2007) 111 (2008) 1200 157 223 389 416 820 1610 1940 2410 3000
2020-07-20 23:30 4.24 2420 8580 (2007) 147 (2008) 1190 168 178 291 336 836 1750 1880 2470 3030
2020-07-20 22:30 4.44 2600 8580 (2007) 147 (2008) 1190 168 178 291 336 836 1750 1880 2470 3030
2020-07-20 21:30 4.53 2680 8580 (2007) 147 (2008) 1190 168 178 291 336 836 1750 1880 2470 3030
2020-07-20 20:30 4.30 2470 8580 (2007) 147 (2008) 1190 168 178 291 336 836 1750 1880 2470 3030
2020-07-20 19:30 3.33 1650 8580 (2007) 147 (2008) 1190 168 178 291 336 836 1750 1880 2470 3030
2020-07-20 18:30 2.22 853 8580 (2007) 147 (2008) 1190 168 178 291 336 836 1750 1880 2470 3030
2020-07-20 17:30 1.72 566 8580 (2007) 147 (2008) 1190 168 178 291 336 836 1750 1880 2470 3030
2020-07-20 16:30 1.65 530 8580 (2007) 147 (2008) 1190 168 178 291 336 836 1750 1880 2470 3030
2020-07-20 15:30 1.71 561 8580 (2007) 147 (2008) 1190 168 178 291 336 836 1750 1880 2470 3030
2020-07-20 14:30 1.77 593 8580 (2007) 147 (2008) 1190 168 178 291 336 836 1750 1880 2470 3030
2020-07-20 13:30 1.84 631 8580 (2007) 147 (2008) 1190 168 178 291 336 836 1750 1880 2470 3030
2020-07-20 12:30 1.92 675 8580 (2007) 147 (2008) 1190 168 178 291 336 836 1750 1880 2470 3030
2020-07-20 11:30 2.00 721 8580 (2007) 147 (2008) 1190 168 178 291 336 836 1750 1880 2470 3030
2020-07-20 10:30 2.08 768 8580 (2007) 147 (2008) 1190 168 178 291 336 836 1750 1880 2470 3030
2020-07-20 09:30 2.18 829 8580 (2007) 147 (2008) 1190 168 178 291 336 836 1750 1880 2470 3030
2020-07-20 08:30 2.28 891 8580 (2007) 147 (2008) 1190 168 178 291 336 836 1750 1880 2470 3030
2020-07-20 07:30 2.39 961 8580 (2007) 147 (2008) 1190 168 178 291 336 836 1750 1880 2470 3030
2020-07-20 06:30 2.51 1040 8580 (2007) 147 (2008) 1190 168 178 291 336 836 1750 1880 2470 3030
2020-07-20 05:30 2.64 1130 8580 (2007) 147 (2008) 1190 168 178 291 336 836 1750 1880 2470 3030
2020-07-20 04:30 2.78 1230 8580 (2007) 147 (2008) 1190 168 178 291 336 836 1750 1880 2470 3030
2020-07-20 03:30 2.93 1340 8580 (2007) 147 (2008) 1190 168 178 291 336 836 1750 1880 2470 3030
2020-07-20 02:30 3.10 1470 8580 (2007) 147 (2008) 1190 168 178 291 336 836 1750 1880 2470 3030
2020-07-20 01:30 3.28 1610 8580 (2007) 147 (2008) 1190 168 178 291 336 836 1750 1880 2470 3030
2020-07-19 23:30 3.69 1950 8570 (2007) 152 (1985) 1110 160 185 275 377 677 1430 1490 2740 3070
2020-07-19 22:30 3.90 2130 8570 (2007) 152 (1985) 1110 160 185 275 377 677 1430 1490 2740 3070
2020-07-19 21:30 4.10 2300 8570 (2007) 152 (1985) 1110 160 185 275 377 677 1430 1490 2740 3070
2020-07-19 20:30 4.17 2360 8570 (2007) 152 (1985) 1110 160 185 275 377 677 1430 1490 2740 3070
2020-07-19 19:30 3.78 2030 8570 (2007) 152 (1985) 1110 160 185 275 377 677 1430 1490 2740 3070
2020-07-19 18:30 2.65 1140 8570 (2007) 152 (1985) 1110 160 185 275 377 677 1430 1490 2740 3070
2020-07-19 17:30 1.53 470 8570 (2007) 152 (1985) 1110 160 185 275 377 677 1430 1490 2740 3070
2020-07-19 16:30 1.16 305 8570 (2007) 152 (1985) 1110 160 185 275 377 677 1430 1490 2740 3070
2020-07-19 15:30 1.19 317 8570 (2007) 152 (1985) 1110 160 185 275 377 677 1430 1490 2740 3070
2020-07-19 14:30 1.21 325 8570 (2007) 152 (1985) 1110 160 185 275 377 677 1430 1490 2740 3070
2020-07-19 13:30 1.23 334 8570 (2007) 152 (1985) 1110 160 185 275 377 677 1430 1490 2740 3070
2020-07-19 12:30 1.24 338 8570 (2007) 152 (1985) 1110 160 185 275 377 677 1430 1490 2740 3070
2020-07-19 11:30 1.25 342 8570 (2007) 152 (1985) 1110 160 185 275 377 677 1430 1490 2740 3070
2020-07-19 10:30 1.27 351 8570 (2007) 152 (1985) 1110 160 185 275 377 677 1430 1490 2740 3070
2020-07-19 09:30 1.29 359 8570 (2007) 152 (1985) 1110 160 185 275 377 677 1430 1490 2740 3070
2020-07-19 08:30 1.30 364 8570 (2007) 152 (1985) 1110 160 185 275 377 677 1430 1490 2740 3070
2020-07-19 07:30 1.32 373 8570 (2007) 152 (1985) 1110 160 185 275 377 677 1430 1490 2740 3070
2020-07-19 06:30 1.34 382 8570 (2007) 152 (1985) 1110 160 185 275 377 677 1430 1490 2740 3070
2020-07-19 05:30 1.35 386 8570 (2007) 152 (1985) 1110 160 185 275 377 677 1430 1490 2740 3070
2020-07-19 04:30 1.38 400 8570 (2007) 152 (1985) 1110 160 185 275 377 677 1430 1490 2740 3070
2020-07-19 03:30 1.39 404 8570 (2007) 152 (1985) 1110 160 185 275 377 677 1430 1490 2740 3070
2020-07-19 02:30 1.42 418 8570 (2007) 152 (1985) 1110 160 185 275 377 677 1430 1490 2740 3070
2020-07-19 01:30 1.44 427 8570 (2007) 152 (1985) 1110 160 185 275 377 677 1430 1490 2740 3070
2020-07-19 00:30 1.47 441 8570 (2007) 152 (1985) 1110 160 185 275 377 677 1430 1490 2740 3070
2020-07-18 23:30 1.50 456 8580 (2007) 158 (1988) 1040 187 257 329 347 633 1400 1520 2160 2720
2020-07-18 22:30 1.54 475 8580 (2007) 158 (1988) 1040 187 257 329 347 633 1400 1520 2160 2720
2020-07-18 21:30 1.57 490 8580 (2007) 158 (1988) 1040 187 257 329 347 633 1400 1520 2160 2720
2020-07-18 20:30 1.61 510 8580 (2007) 158 (1988) 1040 187 257 329 347 633 1400 1520 2160 2720
2020-07-18 19:30 1.66 535 8580 (2007) 158 (1988) 1040 187 257 329 347 633 1400 1520 2160 2720
2020-07-18 18:30 1.72 566 8580 (2007) 158 (1988) 1040 187 257 329 347 633 1400 1520 2160 2720
2020-07-18 17:30 1.75 582 8580 (2007) 158 (1988) 1040 187 257 329 347 633 1400 1520 2160 2720
2020-07-18 16:30 1.82 620 8580 (2007) 158 (1988) 1040 187 257 329 347 633 1400 1520 2160 2720
2020-07-18 15:30 1.90 664 8580 (2007) 158 (1988) 1040 187 257 329 347 633 1400 1520 2160 2720
2020-07-18 14:30 1.94 687 8580 (2007) 158 (1988) 1040 187 257 329 347 633 1400 1520 2160 2720
2020-07-18 13:30 2.05 750 8580 (2007) 158 (1988) 1040 187 257 329 347 633 1400 1520 2160 2720
2020-07-18 12:30 2.11 786 8580 (2007) 158 (1988) 1040 187 257 329 347 633 1400 1520 2160 2720
2020-07-18 11:30 2.24 866 8580 (2007) 158 (1988) 1040 187 257 329 347 633 1400 1520 2160 2720
2020-07-18 10:30 2.36 942 8580 (2007) 158 (1988) 1040 187 257 329 347 633 1400 1520 2160 2720
2020-07-18 09:30 2.48 1020 8580 (2007) 158 (1988) 1040 187 257 329 347 633 1400 1520 2160 2720
2020-07-18 08:30 2.61 1110 8580 (2007) 158 (1988) 1040 187 257 329 347 633 1400 1520 2160 2720
2020-07-18 07:30 2.75 1210 8580 (2007) 158 (1988) 1040 187 257 329 347 633 1400 1520 2160 2720
2020-07-18 06:30 2.90 1320 8580 (2007) 158 (1988) 1040 187 257 329 347 633 1400 1520 2160 2720
2020-07-18 05:30 3.06 1440 8580 (2007) 158 (1988) 1040 187 257 329 347 633 1400 1520 2160 2720
2020-07-18 04:30 3.23 1570 8580 (2007) 158 (1988) 1040 187 257 329 347 633 1400 1520 2160 2720
2020-07-18 03:30 3.43 1730 8580 (2007) 158 (1988) 1040 187 257 329 347 633 1400 1520 2160 2720
2020-07-18 02:30 3.65 1920 8580 (2007) 158 (1988) 1040 187 257 329 347 633 1400 1520 2160 2720
2020-07-18 00:30 4.10 2300 8580 (2007) 158 (1988) 1040 187 257 329 347 633 1400 1520 2160 2720
2020-07-17 23:30 4.33 2500 8570 (2007) 143 (2008) 1060 151 183 282 356 743 1470 1540 2100 2650
2020-07-17 22:30 4.56 2710 8570 (2007) 143 (2008) 1060 151 183 282 356 743 1470 1540 2100 2650
2020-07-17 21:30 4.77 2900 8570 (2007) 143 (2008) 1060 151 183 282 356 743 1470 1540 2100 2650
2020-07-17 20:30 4.92 3040 8570 (2007) 143 (2008) 1060 151 183 282 356 743 1470 1540 2100 2650
2020-07-17 19:30 4.85 2980 8570 (2007) 143 (2008) 1060 151 183 282 356 743 1470 1540 2100 2650
2020-07-17 18:30 4.35 2520 8570 (2007) 143 (2008) 1060 151 183 282 356 743 1470 1540 2100 2650
2020-07-17 17:30 3.45 1750 8570 (2007) 143 (2008) 1060 151 183 282 356 743 1470 1540 2100 2650
2020-07-17 16:30 2.44 994 8570 (2007) 143 (2008) 1060 151 183 282 356 743 1470 1540 2100 2650
2020-07-17 15:30 2.13 798 8570 (2007) 143 (2008) 1060 151 183 282 356 743 1470 1540 2100 2650
2020-07-17 14:30 2.18 829 8570 (2007) 143 (2008) 1060 151 183 282 356 743 1470 1540 2100 2650
2020-07-17 13:30 2.30 903 8570 (2007) 143 (2008) 1060 151 183 282 356 743 1470 1540 2100 2650
2020-07-17 12:30 2.42 981 8570 (2007) 143 (2008) 1060 151 183 282 356 743 1470 1540 2100 2650
2020-07-17 11:30 2.54 1060 8570 (2007) 143 (2008) 1060 151 183 282 356 743 1470 1540 2100 2650
2020-07-17 10:30 2.67 1150 8570 (2007) 143 (2008) 1060 151 183 282 356 743 1470 1540 2100 2650
2020-07-17 09:30 2.81 1250 8570 (2007) 143 (2008) 1060 151 183 282 356 743 1470 1540 2100 2650
2020-07-17 08:30 2.97 1370 8570 (2007) 143 (2008) 1060 151 183 282 356 743 1470 1540 2100 2650
2020-07-17 07:30 3.14 1500 8570 (2007) 143 (2008) 1060 151 183 282 356 743 1470 1540 2100 2650
2020-07-17 06:30 3.32 1640 8570 (2007) 143 (2008) 1060 151 183 282 356 743 1470 1540 2100 2650
2020-07-17 05:30 3.52 1810 8570 (2007) 143 (2008) 1060 151 183 282 356 743 1470 1540 2100 2650
2020-07-17 03:30 3.97 2190 8570 (2007) 143 (2008) 1060 151 183 282 356 743 1470 1540 2100 2650
2020-07-17 02:30 4.21 2390 8570 (2007) 143 (2008) 1060 151 183 282 356 743 1470 1540 2100 2650
2020-07-17 01:30 4.46 2620 8570 (2007) 143 (2008) 1060 151 183 282 356 743 1470 1540 2100 2650
2020-07-17 00:30 4.68 2820 8570 (2007) 143 (2008) 1060 151 183 282 356 743 1470 1540 2100 2650
2020-07-16 23:30 4.91 3030 3510 (2004) 111 (1978) 925 139 176 267 326 710 1410 1470 2160 2460
2020-07-16 22:30 5.11 3230 3510 (2004) 111 (1978) 925 139 176 267 326 710 1410 1470 2160 2460
2020-07-16 21:30 5.34 3460 3510 (2004) 111 (1978) 925 139 176 267 326 710 1410 1470 2160 2460
2020-07-16 20:30 5.49 3610 3510 (2004) 111 (1978) 925 139 176 267 326 710 1410 1470 2160 2460
2020-07-16 19:30 5.09 3210 3510 (2004) 111 (1978) 925 139 176 267 326 710 1410 1470 2160 2460
2020-07-16 18:30 4.64 2780 3510 (2004) 111 (1978) 925 139 176 267 326 710 1410 1470 2160 2460
2020-07-16 17:30 3.88 2110 3510 (2004) 111 (1978) 925 139 176 267 326 710 1410 1470 2160 2460
2020-07-16 16:30 2.81 1250 3510 (2004) 111 (1978) 925 139 176 267 326 710 1410 1470 2160 2460
2020-07-16 15:30 2.11 786 3510 (2004) 111 (1978) 925 139 176 267 326 710 1410 1470 2160 2460
2020-07-16 14:30 2.08 768 3510 (2004) 111 (1978) 925 139 176 267 326 710 1410 1470 2160 2460
2020-07-16 13:30 2.20 841 3510 (2004) 111 (1978) 925 139 176 267 326 710 1410 1470 2160 2460
2020-07-16 12:30 2.28 891 3510 (2004) 111 (1978) 925 139 176 267 326 710 1410 1470 2160 2460
2020-07-16 11:30 2.40 968 3510 (2004) 111 (1978) 925 139 176 267 326 710 1410 1470 2160 2460
2020-07-16 10:30 2.52 1050 3510 (2004) 111 (1978) 925 139 176 267 326 710 1410 1470 2160 2460
2020-07-16 09:30 2.65 1140 3510 (2004) 111 (1978) 925 139 176 267 326 710 1410 1470 2160 2460
2020-07-16 08:30 2.80 1240 3510 (2004) 111 (1978) 925 139 176 267 326 710 1410 1470 2160 2460
2020-07-16 07:30 2.95 1350 3510 (2004) 111 (1978) 925 139 176 267 326 710 1410 1470 2160 2460
2020-07-16 06:30 3.12 1480 3510 (2004) 111 (1978) 925 139 176 267 326 710 1410 1470 2160 2460
2020-07-16 05:30 3.30 1630 3510 (2004) 111 (1978) 925 139 176 267 326 710 1410 1470 2160 2460
2020-07-16 04:30 3.49 1780 3510 (2004) 111 (1978) 925 139 176 267 326 710 1410 1470 2160 2460
2020-07-16 03:30 3.70 1960 3510 (2004) 111 (1978) 925 139 176 267 326 710 1410 1470 2160 2460
2020-07-16 02:30 3.93 2150 3510 (2004) 111 (1978) 925 139 176 267 326 710 1410 1470 2160 2460
2020-07-16 01:30 4.19 2380 3510 (2004) 111 (1978) 925 139 176 267 326 710 1410 1470 2160 2460
2020-07-16 00:30 4.42 2580 3510 (2004) 111 (1978) 925 139 176 267 326 710 1410 1470 2160 2460
2020-07-15 23:30 4.65 2790 6200 (1999) 139 (1985) 1080 159 176 264 316 738 1430 1550 2220 3870
2020-07-15 22:30 4.84 2970 6200 (1999) 139 (1985) 1080 159 176 264 316 738 1430 1550 2220 3870
2020-07-15 21:30 5.01 3130 6200 (1999) 139 (1985) 1080 159 176 264 316 738 1430 1550 2220 3870
2020-07-15 20:30 4.98 3100 6200 (1999) 139 (1985) 1080 159 176 264 316 738 1430 1550 2220 3870
2020-07-15 19:30 4.52 2670 6200 (1999) 139 (1985) 1080 159 176 264 316 738 1430 1550 2220 3870
2020-07-15 18:30 3.62 1890 6200 (1999) 139 (1985) 1080 159 176 264 316 738 1430 1550 2220 3870
2020-07-15 17:30 2.38 955 6200 (1999) 139 (1985) 1080 159 176 264 316 738 1430 1550 2220 3870
2020-07-15 16:30 1.70 556 6200 (1999) 139 (1985) 1080 159 176 264 316 738 1430 1550 2220 3870
2020-07-15 15:30 1.68 546 6200 (1999) 139 (1985) 1080 159 176 264 316 738 1430 1550 2220 3870
2020-07-15 14:30 1.76 588 6200 (1999) 139 (1985) 1080 159 176 264 316 738 1430 1550 2220 3870
2020-07-15 13:30 1.78 598 6200 (1999) 139 (1985) 1080 159 176 264 316 738 1430 1550 2220 3870
2020-07-15 12:30 1.88 653 6200 (1999) 139 (1985) 1080 159 176 264 316 738 1430 1550 2220 3870
2020-07-15 11:30 1.96 698 6200 (1999) 139 (1985) 1080 159 176 264 316 738 1430 1550 2220 3870
2020-07-15 10:30 2.04 745 6200 (1999) 139 (1985) 1080 159 176 264 316 738 1430 1550 2220 3870
2020-07-15 09:30 2.11 786 6200 (1999) 139 (1985) 1080 159 176 264 316 738 1430 1550 2220 3870
2020-07-15 08:30 2.21 847 6200 (1999) 139 (1985) 1080 159 176 264 316 738 1430 1550 2220 3870
2020-07-15 07:30 2.31 910 6200 (1999) 139 (1985) 1080 159 176 264 316 738 1430 1550 2220 3870
2020-07-15 06:30 2.42 981 6200 (1999) 139 (1985) 1080 159 176 264 316 738 1430 1550 2220 3870
2020-07-15 05:30 2.54 1060 6200 (1999) 139 (1985) 1080 159 176 264 316 738 1430 1550 2220 3870
2020-07-15 04:30 2.67 1150 6200 (1999) 139 (1985) 1080 159 176 264 316 738 1430 1550 2220 3870
2020-07-15 03:30 2.81 1250 6200 (1999) 139 (1985) 1080 159 176 264 316 738 1430 1550 2220 3870
2020-07-15 02:30 2.97 1370 6200 (1999) 139 (1985) 1080 159 176 264 316 738 1430 1550 2220 3870
2020-07-15 01:30 3.13 1490 6200 (1999) 139 (1985) 1080 159 176 264 316 738 1430 1550 2220 3870
2020-07-15 00:30 3.31 1630 6200 (1999) 139 (1985) 1080 159 176 264 316 738 1430 1550 2220 3870
2020-07-14 23:30 3.49 1780 6220 (1999) 119 (2008) 1070 155 203 288 314 748 1430 1740 2330 3230
2020-07-14 22:30 3.65 1920 6220 (1999) 119 (2008) 1070 155 203 288 314 748 1430 1740 2330 3230
2020-07-14 21:30 3.74 2000 6220 (1999) 119 (2008) 1070 155 203 288 314 748 1430 1740 2330 3230
2020-07-14 20:30 3.55 1830 6220 (1999) 119 (2008) 1070 155 203 288 314 748 1430 1740 2330 3230
2020-07-14 19:30 3.08 1450 6220 (1999) 119 (2008) 1070 155 203 288 314 748 1430 1740 2330 3230
2020-07-14 18:30 2.47 1010 6220 (1999) 119 (2008) 1070 155 203 288 314 748 1430 1740 2330 3230
2020-07-14 17:30 1.99 715 6220 (1999) 119 (2008) 1070 155 203 288 314 748 1430 1740 2330 3230
2020-07-14 16:30 1.84 631 6220 (1999) 119 (2008) 1070 155 203 288 314 748 1430 1740 2330 3230
2020-07-14 15:30 1.86 642 6220 (1999) 119 (2008) 1070 155 203 288 314 748 1430 1740 2330 3230
2020-07-14 14:30 1.96 698 6220 (1999) 119 (2008) 1070 155 203 288 314 748 1430 1740 2330 3230
2020-07-14 13:30 2.03 739 6220 (1999) 119 (2008) 1070 155 203 288 314 748 1430 1740 2330 3230
2020-07-14 12:30 2.13 798 6220 (1999) 119 (2008) 1070 155 203 288 314 748 1430 1740 2330 3230
2020-07-14 11:30 2.24 866 6220 (1999) 119 (2008) 1070 155 203 288 314 748 1430 1740 2330 3230
2020-07-14 10:30 2.34 929 6220 (1999) 119 (2008) 1070 155 203 288 314 748 1430 1740 2330 3230
2020-07-14 09:30 2.46 1010 6220 (1999) 119 (2008) 1070 155 203 288 314 748 1430 1740 2330 3230
2020-07-14 08:30 2.58 1090 6220 (1999) 119 (2008) 1070 155 203 288 314 748 1430 1740 2330 3230
2020-07-14 07:30 2.70 1170 6220 (1999) 119 (2008) 1070 155 203 288 314 748 1430 1740 2330 3230
2020-07-14 06:30 2.85 1280 6220 (1999) 119 (2008) 1070 155 203 288 314 748 1430 1740 2330 3230
2020-07-14 05:30 3.00 1390 6220 (1999) 119 (2008) 1070 155 203 288 314 748 1430 1740 2330 3230
2020-07-14 04:30 3.17 1520 6220 (1999) 119 (2008) 1070 155 203 288 314 748 1430 1740 2330 3230
2020-07-14 03:30 3.36 1670 6220 (1999) 119 (2008) 1070 155 203 288 314 748 1430 1740 2330 3230
2020-07-14 02:30 3.57 1850 6220 (1999) 119 (2008) 1070 155 203 288 314 748 1430 1740 2330 3230
2020-07-14 01:30 3.78 2030 6220 (1999) 119 (2008) 1070 155 203 288 314 748 1430 1740 2330 3230
2020-07-14 00:30 4.01 2220 6220 (1999) 119 (2008) 1070 155 203 288 314 748 1430 1740 2330 3230
2020-07-13 23:30 4.25 2430 7070 (1983) 163 (1975) 1130 172 198 300 358 715 1510 1680 2420 4080
2020-07-13 22:30 4.48 2630 7070 (1983) 163 (1975) 1130 172 198 300 358 715 1510 1680 2420 4080
2020-07-13 21:30 4.69 2830 7070 (1983) 163 (1975) 1130 172 198 300 358 715 1510 1680 2420 4080
2020-07-13 20:30 4.86 2990 7070 (1983) 163 (1975) 1130 172 198 300 358 715 1510 1680 2420 4080
2020-07-13 19:30 4.85 2980 7070 (1983) 163 (1975) 1130 172 198 300 358 715 1510 1680 2420 4080
2020-07-13 18:30 4.45 2610 7070 (1983) 163 (1975) 1130 172 198 300 358 715 1510 1680 2420 4080
2020-07-13 17:30 3.61 1880 7070 (1983) 163 (1975) 1130 172 198 300 358 715 1510 1680 2420 4080
2020-07-13 16:30 2.42 981 7070 (1983) 163 (1975) 1130 172 198 300 358 715 1510 1680 2420 4080
2020-07-13 15:30 1.73 572 7070 (1983) 163 (1975) 1130 172 198 300 358 715 1510 1680 2420 4080
2020-07-13 14:30 1.72 566 7070 (1983) 163 (1975) 1130 172 198 300 358 715 1510 1680 2420 4080
2020-07-13 13:30 1.78 598 7070 (1983) 163 (1975) 1130 172 198 300 358 715 1510 1680 2420 4080
2020-07-13 12:30 1.84 631 7070 (1983) 163 (1975) 1130 172 198 300 358 715 1510 1680 2420 4080
2020-07-13 11:30 1.91 670 7070 (1983) 163 (1975) 1130 172 198 300 358 715 1510 1680 2420 4080
2020-07-13 10:30 1.97 704 7070 (1983) 163 (1975) 1130 172 198 300 358 715 1510 1680 2420 4080
2020-07-13 09:30 2.05 750 7070 (1983) 163 (1975) 1130 172 198 300 358 715 1510 1680 2420 4080
2020-07-13 08:30 2.14 804 7070 (1983) 163 (1975) 1130 172 198 300 358 715 1510 1680 2420 4080
2020-07-13 07:30 2.23 859 7070 (1983) 163 (1975) 1130 172 198 300 358 715 1510 1680 2420 4080
2020-07-13 06:30 2.33 923 7070 (1983) 163 (1975) 1130 172 198 300 358 715 1510 1680 2420 4080
2020-07-13 05:30 2.44 994 7070 (1983) 163 (1975) 1130 172 198 300 358 715 1510 1680 2420 4080
2020-07-13 04:30 2.56 1070 7070 (1983) 163 (1975) 1130 172 198 300 358 715 1510 1680 2420 4080
2020-07-13 03:30 2.69 1160 7070 (1983) 163 (1975) 1130 172 198 300 358 715 1510 1680 2420 4080
2020-07-13 02:30 2.83 1270 7070 (1983) 163 (1975) 1130 172 198 300 358 715 1510 1680 2420 4080
2020-07-13 01:30 2.98 1380 7070 (1983) 163 (1975) 1130 172 198 300 358 715 1510 1680 2420 4080
2020-07-13 00:30 3.15 1510 7070 (1983) 163 (1975) 1130 172 198 300 358 715 1510 1680 2420 4080
2020-07-12 23:30 3.33 1650 7130 (1983) 173 (2009) 1170 183 213 301 351 696 1380 1650 2520 5240
2020-07-12 22:30 3.51 1800 7130 (1983) 173 (2009) 1170 183 213 301 351 696 1380 1650 2520 5240
2020-07-12 21:30 3.66 1930 7130 (1983) 173 (2009) 1170 183 213 301 351 696 1380 1650 2520 5240
2020-07-12 20:30 3.62 1890 7130 (1983) 173 (2009) 1170 183 213 301 351 696 1380 1650 2520 5240
2020-07-12 19:30 3.00 1390 7130 (1983) 173 (2009) 1170 183 213 301 351 696 1380 1650 2520 5240
2020-07-12 18:30 1.83 625 7130 (1983) 173 (2009) 1170 183 213 301 351 696 1380 1650 2520 5240
2020-07-12 17:30 1.24 338 7130 (1983) 173 (2009) 1170 183 213 301 351 696 1380 1650 2520 5240
2020-07-12 16:30 1.25 342 7130 (1983) 173 (2009) 1170 183 213 301 351 696 1380 1650 2520 5240
2020-07-12 15:30 1.27 351 7130 (1983) 173 (2009) 1170 183 213 301 351 696 1380 1650 2520 5240
2020-07-12 14:30 1.29 359 7130 (1983) 173 (2009) 1170 183 213 301 351 696 1380 1650 2520 5240
2020-07-12 13:30 1.29 359 7130 (1983) 173 (2009) 1170 183 213 301 351 696 1380 1650 2520 5240
2020-07-12 12:30 1.32 373 7130 (1983) 173 (2009) 1170 183 213 301 351 696 1380 1650 2520 5240
2020-07-12 11:30 1.34 382 7130 (1983) 173 (2009) 1170 183 213 301 351 696 1380 1650 2520 5240
2020-07-12 10:30 1.35 386 7130 (1983) 173 (2009) 1170 183 213 301 351 696 1380 1650 2520 5240
2020-07-12 09:30 1.37 395 7130 (1983) 173 (2009) 1170 183 213 301 351 696 1380 1650 2520 5240
2020-07-12 08:30 1.39 404 7130 (1983) 173 (2009) 1170 183 213 301 351 696 1380 1650 2520 5240
2020-07-12 07:30 1.40 409 7130 (1983) 173 (2009) 1170 183 213 301 351 696 1380 1650 2520 5240
2020-07-12 06:30 1.43 423 7130 (1983) 173 (2009) 1170 183 213 301 351 696 1380 1650 2520 5240
2020-07-12 05:30 1.44 427 7130 (1983) 173 (2009) 1170 183 213 301 351 696 1380 1650 2520 5240
2020-07-12 04:30 1.41 413 7130 (1983) 173 (2009) 1170 183 213 301 351 696 1380 1650 2520 5240
2020-07-12 03:30 1.47 441 7130 (1983) 173 (2009) 1170 183 213 301 351 696 1380 1650 2520 5240
2020-07-12 02:30 1.49 451 7130 (1983) 173 (2009) 1170 183 213 301 351 696 1380 1650 2520 5240
2020-07-12 01:30 1.45 432 7130 (1983) 173 (2009) 1170 183 213 301 351 696 1380 1650 2520 5240
2020-07-12 00:30 1.52 465 7130 (1983) 173 (2009) 1170 183 213 301 351 696 1380 1650 2520 5240
2020-07-11 23:30 1.55 480 7110 (1983) 133 (1988) 1150 155 230 314 347 611 1330 1440 2670 5170
2020-07-11 22:30 1.59 500 7110 (1983) 133 (1988) 1150 155 230 314 347 611 1330 1440 2670 5170
2020-07-11 21:30 1.64 525 7110 (1983) 133 (1988) 1150 155 230 314 347 611 1330 1440 2670 5170
2020-07-11 20:30 1.68 546 7110 (1983) 133 (1988) 1150 155 230 314 347 611 1330 1440 2670 5170
2020-07-11 19:30 1.73 572 7110 (1983) 133 (1988) 1150 155 230 314 347 611 1330 1440 2670 5170
2020-07-11 18:30 1.78 598 7110 (1983) 133 (1988) 1150 155 230 314 347 611 1330 1440 2670 5170
2020-07-11 17:30 1.84 631 7110 (1983) 133 (1988) 1150 155 230 314 347 611 1330 1440 2670 5170
2020-07-11 16:30 1.90 664 7110 (1983) 133 (1988) 1150 155 230 314 347 611 1330 1440 2670 5170
2020-07-11 15:30 1.97 704 7110 (1983) 133 (1988) 1150 155 230 314 347 611 1330 1440 2670 5170
2020-07-11 14:30 2.04 745 7110 (1983) 133 (1988) 1150 155 230 314 347 611 1330 1440 2670 5170
2020-07-11 13:30 2.15 810 7110 (1983) 133 (1988) 1150 155 230 314 347 611 1330 1440 2670 5170
2020-07-11 12:30 2.25 872 7110 (1983) 133 (1988) 1150 155 230 314 347 611 1330 1440 2670 5170
2020-07-11 11:30 2.35 935 7110 (1983) 133 (1988) 1150 155 230 314 347 611 1330 1440 2670 5170
2020-07-11 10:30 2.47 1010 7110 (1983) 133 (1988) 1150 155 230 314 347 611 1330 1440 2670 5170
2020-07-11 09:30 2.60 1100 7110 (1983) 133 (1988) 1150 155 230 314 347 611 1330 1440 2670 5170
2020-07-11 08:30 2.73 1190 7110 (1983) 133 (1988) 1150 155 230 314 347 611 1330 1440 2670 5170
2020-07-11 07:30 2.88 1300 7110 (1983) 133 (1988) 1150 155 230 314 347 611 1330 1440 2670 5170
2020-07-11 06:30 3.04 1420 7110 (1983) 133 (1988) 1150 155 230 314 347 611 1330 1440 2670 5170
2020-07-11 05:30 3.21 1550 7110 (1983) 133 (1988) 1150 155 230 314 347 611 1330 1440 2670 5170
2020-07-11 04:30 3.39 1700 7110 (1983) 133 (1988) 1150 155 230 314 347 611 1330 1440 2670 5170
2020-07-11 03:30 3.60 1880 7110 (1983) 133 (1988) 1150 155 230 314 347 611 1330 1440 2670 5170
2020-07-11 02:30 3.83 2070 7110 (1983) 133 (1988) 1150 155 230 314 347 611 1330 1440 2670 5170
2020-07-11 01:30 4.06 2260 7110 (1983) 133 (1988) 1150 155 230 314 347 611 1330 1440 2670 5170
2020-07-11 00:30 4.30 2470 7110 (1983) 133 (1988) 1150 155 230 314 347 611 1330 1440 2670 5170
2020-07-10 23:30 4.53 2680 12200 (2007) 141 (1972) 1470 156 191 287 319 509 1640 1790 4780 6240
2020-07-10 22:30 4.73 2860 12200 (2007) 141 (1972) 1470 156 191 287 319 509 1640 1790 4780 6240
2020-07-10 21:30 4.92 3040 12200 (2007) 141 (1972) 1470 156 191 287 319 509 1640 1790 4780 6240
2020-07-10 20:30 4.98 3100 12200 (2007) 141 (1972) 1470 156 191 287 319 509 1640 1790 4780 6240
2020-07-10 19:30 4.79 2920 12200 (2007) 141 (1972) 1470 156 191 287 319 509 1640 1790 4780 6240
2020-07-10 18:30 4.18 2370 12200 (2007) 141 (1972) 1470 156 191 287 319 509 1640 1790 4780 6240
2020-07-10 17:30 3.09 1460 12200 (2007) 141 (1972) 1470 156 191 287 319 509 1640 1790 4780 6240
2020-07-10 16:30 2.04 745 12200 (2007) 141 (1972) 1470 156 191 287 319 509 1640 1790 4780 6240
2020-07-10 15:30 1.76 588 12200 (2007) 141 (1972) 1470 156 191 287 319 509 1640 1790 4780 6240
2020-07-10 14:30 1.83 625 12200 (2007) 141 (1972) 1470 156 191 287 319 509 1640 1790 4780 6240
2020-07-10 13:30 1.89 659 12200 (2007) 141 (1972) 1470 156 191 287 319 509 1640 1790 4780 6240
2020-07-10 12:30 1.95 692 12200 (2007) 141 (1972) 1470 156 191 287 319 509 1640 1790 4780 6240
2020-07-10 11:30 2.05 750 12200 (2007) 141 (1972) 1470 156 191 287 319 509 1640 1790 4780 6240
2020-07-10 10:30 2.14 804 12200 (2007) 141 (1972) 1470 156 191 287 319 509 1640 1790 4780 6240
2020-07-10 09:30 2.23 859 12200 (2007) 141 (1972) 1470 156 191 287 319 509 1640 1790 4780 6240
2020-07-10 08:30 2.32 916 12200 (2007) 141 (1972) 1470 156 191 287 319 509 1640 1790 4780 6240
2020-07-10 07:30 2.43 988 12200 (2007) 141 (1972) 1470 156 191 287 319 509 1640 1790 4780 6240
2020-07-10 06:30 2.55 1070 12200 (2007) 141 (1972) 1470 156 191 287 319 509 1640 1790 4780 6240
2020-07-10 05:30 2.68 1160 12200 (2007) 141 (1972) 1470 156 191 287 319 509 1640 1790 4780 6240
2020-07-10 04:30 2.82 1260 12200 (2007) 141 (1972) 1470 156 191 287 319 509 1640 1790 4780 6240
2020-07-10 03:30 2.97 1370 12200 (2007) 141 (1972) 1470 156 191 287 319 509 1640 1790 4780 6240
2020-07-10 02:30 3.12 1480 12200 (2007) 141 (1972) 1470 156 191 287 319 509 1640 1790 4780 6240
2020-07-10 01:30 3.32 1640 12200 (2007) 141 (1972) 1470 156 191 287 319 509 1640 1790 4780 6240
2020-07-10 00:30 3.51 1800 12200 (2007) 141 (1972) 1470 156 191 287 319 509 1640 1790 4780 6240
2020-07-09 23:30 3.72 1980 8780 (2007) 94 (1978) 1330 127 202 318 340 689 1260 1790 3710 7380
2020-07-09 22:30 3.94 2160 8780 (2007) 94 (1978) 1330 127 202 318 340 689 1260 1790 3710 7380
2020-07-09 21:30 4.14 2330 8780 (2007) 94 (1978) 1330 127 202 318 340 689 1260 1790 3710 7380
2020-07-09 20:30 4.23 2410 8780 (2007) 94 (1978) 1330 127 202 318 340 689 1260 1790 3710 7380
2020-07-09 19:30 3.98 2200 8780 (2007) 94 (1978) 1330 127 202 318 340 689 1260 1790 3710 7380
2020-07-09 18:30 3.14 1500 8780 (2007) 94 (1978) 1330 127 202 318 340 689 1260 1790 3710 7380
2020-07-09 17:30 2.21 847 8780 (2007) 94 (1978) 1330 127 202 318 340 689 1260 1790 3710 7380
2020-07-09 16:30 1.79 604 8780 (2007) 94 (1978) 1330 127 202 318 340 689 1260 1790 3710 7380
2020-07-09 15:30 1.78 598 8780 (2007) 94 (1978) 1330 127 202 318 340 689 1260 1790 3710 7380
2020-07-09 14:30 1.86 642 8780 (2007) 94 (1978) 1330 127 202 318 340 689 1260 1790 3710 7380
2020-07-09 13:30 1.93 681 8780 (2007) 94 (1978) 1330 127 202 318 340 689 1260 1790 3710 7380
2020-07-09 12:30 2.00 721 8780 (2007) 94 (1978) 1330 127 202 318 340 689 1260 1790 3710 7380
2020-07-09 11:30 2.09 774 8780 (2007) 94 (1978) 1330 127 202 318 340 689 1260 1790 3710 7380
2020-07-09 10:30 2.17 822 8780 (2007) 94 (1978) 1330 127 202 318 340 689 1260 1790 3710 7380
2020-07-09 09:30 2.26 878 8780 (2007) 94 (1978) 1330 127 202 318 340 689 1260 1790 3710 7380
2020-07-09 08:30 2.36 942 8780 (2007) 94 (1978) 1330 127 202 318 340 689 1260 1790 3710 7380
2020-07-09 07:30 2.47 1010 8780 (2007) 94 (1978) 1330 127 202 318 340 689 1260 1790 3710 7380
2020-07-09 06:30 2.60 1100 8780 (2007) 94 (1978) 1330 127 202 318 340 689 1260 1790 3710 7380
2020-07-09 05:30 2.73 1190 8780 (2007) 94 (1978) 1330 127 202 318 340 689 1260 1790 3710 7380
2020-07-09 04:30 2.87 1290 8780 (2007) 94 (1978) 1330 127 202 318 340 689 1260 1790 3710 7380
2020-07-09 03:30 3.02 1410 8780 (2007) 94 (1978) 1330 127 202 318 340 689 1260 1790 3710 7380
2020-07-09 02:30 3.19 1540 8780 (2007) 94 (1978) 1330 127 202 318 340 689 1260 1790 3710 7380
2020-07-09 01:30 3.38 1690 8780 (2007) 94 (1978) 1330 127 202 318 340 689 1260 1790 3710 7380
2020-07-08 23:30 3.79 2040 7830 (1999) 120 (1984) 1150 143 155 199 250 599 1190 1410 3250 5760
2020-07-08 22:30 4.01 2220 7830 (1999) 120 (1984) 1150 143 155 199 250 599 1190 1410 3250 5760
2020-07-08 21:30 4.20 2380 7830 (1999) 120 (1984) 1150 143 155 199 250 599 1190 1410 3250 5760
2020-07-08 20:30 4.26 2440 7830 (1999) 120 (1984) 1150 143 155 199 250 599 1190 1410 3250 5760
2020-07-08 19:30 3.80 2050 7830 (1999) 120 (1984) 1150 143 155 199 250 599 1190 1410 3250 5760
2020-07-08 18:30 2.71 1180 7830 (1999) 120 (1984) 1150 143 155 199 250 599 1190 1410 3250 5760
2020-07-08 17:30 2.01 727 7830 (1999) 120 (1984) 1150 143 155 199 250 599 1190 1410 3250 5760
2020-07-08 16:30 2.01 727 7830 (1999) 120 (1984) 1150 143 155 199 250 599 1190 1410 3250 5760
2020-07-08 15:30 2.09 774 7830 (1999) 120 (1984) 1150 143 155 199 250 599 1190 1410 3250 5760
2020-07-08 14:30 2.17 822 7830 (1999) 120 (1984) 1150 143 155 199 250 599 1190 1410 3250 5760
2020-07-08 13:30 2.27 884 7830 (1999) 120 (1984) 1150 143 155 199 250 599 1190 1410 3250 5760
2020-07-08 12:30 2.36 942 7830 (1999) 120 (1984) 1150 143 155 199 250 599 1190 1410 3250 5760
2020-07-08 11:30 2.48 1020 7830 (1999) 120 (1984) 1150 143 155 199 250 599 1190 1410 3250 5760
2020-07-08 10:30 2.61 1110 7830 (1999) 120 (1984) 1150 143 155 199 250 599 1190 1410 3250 5760
2020-07-08 09:30 2.73 1190 7830 (1999) 120 (1984) 1150 143 155 199 250 599 1190 1410 3250 5760
2020-07-08 08:30 2.88 1300 7830 (1999) 120 (1984) 1150 143 155 199 250 599 1190 1410 3250 5760
2020-07-08 07:30 3.03 1410 7830 (1999) 120 (1984) 1150 143 155 199 250 599 1190 1410 3250 5760
2020-07-08 06:30 3.20 1550 7830 (1999) 120 (1984) 1150 143 155 199 250 599 1190 1410 3250 5760
2020-07-08 05:30 3.39 1700 7830 (1999) 120 (1984) 1150 143 155 199 250 599 1190 1410 3250 5760
2020-07-08 04:30 3.59 1870 7830 (1999) 120 (1984) 1150 143 155 199 250 599 1190 1410 3250 5760
2020-07-08 03:30 3.81 2060 7830 (1999) 120 (1984) 1150 143 155 199 250 599 1190 1410 3250 5760
2020-07-08 02:30 4.04 2250 7830 (1999) 120 (1984) 1150 143 155 199 250 599 1190 1410 3250 5760
2020-07-08 01:30 4.27 2450 7830 (1999) 120 (1984) 1150 143 155 199 250 599 1190 1410 3250 5760
2020-07-08 00:30 4.52 2670 7830 (1999) 120 (1984) 1150 143 155 199 250 599 1190 1410 3250 5760
2020-07-07 23:30 4.74 2870 7950 (1999) 150 (1988) 1050 177 197 259 294 619 1180 1430 2200 4740
2020-07-07 22:30 4.94 3060 7950 (1999) 150 (1988) 1050 177 197 259 294 619 1180 1430 2200 4740
2020-07-07 21:30 5.09 3210 7950 (1999) 150 (1988) 1050 177 197 259 294 619 1180 1430 2200 4740
2020-07-07 20:30 5.08 3200 7950 (1999) 150 (1988) 1050 177 197 259 294 619 1180 1430 2200 4740
2020-07-07 19:30 4.74 2870 7950 (1999) 150 (1988) 1050 177 197 259 294 619 1180 1430 2200 4740
2020-07-07 18:30 4.02 2230 7950 (1999) 150 (1988) 1050 177 197 259 294 619 1180 1430 2200 4740
2020-07-07 17:30 2.95 1350 7950 (1999) 150 (1988) 1050 177 197 259 294 619 1180 1430 2200 4740
2020-07-07 16:30 2.22 853 7950 (1999) 150 (1988) 1050 177 197 259 294 619 1180 1430 2200 4740
2020-07-07 15:30 2.19 835 7950 (1999) 150 (1988) 1050 177 197 259 294 619 1180 1430 2200 4740
2020-07-07 14:30 2.28 891 7950 (1999) 150 (1988) 1050 177 197 259 294 619 1180 1430 2200 4740
2020-07-07 13:30 2.39 961 7950 (1999) 150 (1988) 1050 177 197 259 294 619 1180 1430 2200 4740
2020-07-07 12:30 2.49 1030 7950 (1999) 150 (1988) 1050 177 197 259 294 619 1180 1430 2200 4740
2020-07-07 11:30 2.61 1110 7950 (1999) 150 (1988) 1050 177 197 259 294 619 1180 1430 2200 4740
2020-07-07 10:30 2.73 1190 7950 (1999) 150 (1988) 1050 177 197 259 294 619 1180 1430 2200 4740
2020-07-07 09:30 2.87 1290 7950 (1999) 150 (1988) 1050 177 197 259 294 619 1180 1430 2200 4740
2020-07-07 08:30 3.02 1410 7950 (1999) 150 (1988) 1050 177 197 259 294 619 1180 1430 2200 4740
2020-07-07 07:30 3.18 1530 7950 (1999) 150 (1988) 1050 177 197 259 294 619 1180 1430 2200 4740
2020-07-07 06:30 3.35 1670 7950 (1999) 150 (1988) 1050 177 197 259 294 619 1180 1430 2200 4740
2020-07-07 05:30 3.55 1830 7950 (1999) 150 (1988) 1050 177 197 259 294 619 1180 1430 2200 4740
2020-07-07 04:30 3.76 2010 7950 (1999) 150 (1988) 1050 177 197 259 294 619 1180 1430 2200 4740
2020-07-07 03:30 3.99 2200 7950 (1999) 150 (1988) 1050 177 197 259 294 619 1180 1430 2200 4740
2020-07-07 02:30 4.22 2400 7950 (1999) 150 (1988) 1050 177 197 259 294 619 1180 1430 2200 4740
2020-07-07 01:30 4.47 2620 7950 (1999) 150 (1988) 1050 177 197 259 294 619 1180 1430 2200 4740
2020-07-07 00:30 4.70 2840 7950 (1999) 150 (1988) 1050 177 197 259 294 619 1180 1430 2200 4740
2020-07-06 23:30 4.92 3040 4160 (1999) 88 (1972) 857 152 170 292 332 519 1110 1280 1930 3370
2020-07-06 22:30 5.12 3240 4160 (1999) 88 (1972) 857 152 170 292 332 519 1110 1280 1930 3370
2020-07-06 21:30 5.30 3420 4160 (1999) 88 (1972) 857 152 170 292 332 519 1110 1280 1930 3370
2020-07-06 20:30 5.41 3530 4160 (1999) 88 (1972) 857 152 170 292 332 519 1110 1280 1930 3370
2020-07-06 19:30 5.33 3450 4160 (1999) 88 (1972) 857 152 170 292 332 519 1110 1280 1930 3370
2020-07-06 18:30 5.00 3120 4160 (1999) 88 (1972) 857 152 170 292 332 519 1110 1280 1930 3370
2020-07-06 17:30 4.46 2620 4160 (1999) 88 (1972) 857 152 170 292 332 519 1110 1280 1930 3370
2020-07-06 16:30 3.55 1830 4160 (1999) 88 (1972) 857 152 170 292 332 519 1110 1280 1930 3370
2020-07-06 15:30 2.64 1130 4160 (1999) 88 (1972) 857 152 170 292 332 519 1110 1280 1930 3370
2020-07-06 14:30 2.06 756 4160 (1999) 88 (1972) 857 152 170 292 332 519 1110 1280 1930 3370
2020-07-06 13:30 1.79 604 4160 (1999) 88 (1972) 857 152 170 292 332 519 1110 1280 1930 3370
2020-07-06 12:30 1.83 625 4160 (1999) 88 (1972) 857 152 170 292 332 519 1110 1280 1930 3370
2020-07-06 11:30 1.90 664 4160 (1999) 88 (1972) 857 152 170 292 332 519 1110 1280 1930 3370
2020-07-06 10:30 1.90 664 4160 (1999) 88 (1972) 857 152 170 292 332 519 1110 1280 1930 3370
2020-07-06 09:30 2.00 721 4160 (1999) 88 (1972) 857 152 170 292 332 519 1110 1280 1930 3370
2020-07-06 08:30 2.07 762 4160 (1999) 88 (1972) 857 152 170 292 332 519 1110 1280 1930 3370
2020-07-06 07:30 2.16 816 4160 (1999) 88 (1972) 857 152 170 292 332 519 1110 1280 1930 3370
2020-07-06 06:30 2.25 872 4160 (1999) 88 (1972) 857 152 170 292 332 519 1110 1280 1930 3370
2020-07-06 05:30 2.34 929 4160 (1999) 88 (1972) 857 152 170 292 332 519 1110 1280 1930 3370
2020-07-06 04:30 2.45 1000 4160 (1999) 88 (1972) 857 152 170 292 332 519 1110 1280 1930 3370
2020-07-06 03:30 2.56 1070 4160 (1999) 88 (1972) 857 152 170 292 332 519 1110 1280 1930 3370
2020-07-06 02:30 2.70 1170 4160 (1999) 88 (1972) 857 152 170 292 332 519 1110 1280 1930 3370
2020-07-06 01:30 2.84 1270 4160 (1999) 88 (1972) 857 152 170 292 332 519 1110 1280 1930 3370
2020-07-06 00:30 2.98 1380 4160 (1999) 88 (1972) 857 152 170 292 332 519 1110 1280 1930 3370
2020-07-05 23:30 3.12 1480 6310 (2000) 105 (1983) 768 120 142 185 202 333 680 812 1740 4900
2020-07-05 22:30 3.24 1580 6310 (2000) 105 (1983) 768 120 142 185 202 333 680 812 1740 4900
2020-07-05 21:30 3.25 1590 6310 (2000) 105 (1983) 768 120 142 185 202 333 680 812 1740 4900
2020-07-05 20:30 2.86 1290 6310 (2000) 105 (1983) 768 120 142 185 202 333 680 812 1740 4900
2020-07-05 19:30 1.94 687 6310 (2000) 105 (1983) 768 120 142 185 202 333 680 812 1740 4900
2020-07-05 18:30 1.45 432 6310 (2000) 105 (1983) 768 120 142 185 202 333 680 812 1740 4900
2020-07-05 17:30 1.46 437 6310 (2000) 105 (1983) 768 120 142 185 202 333 680 812 1740 4900
2020-07-05 16:30 1.50 456 6310 (2000) 105 (1983) 768 120 142 185 202 333 680 812 1740 4900
2020-07-05 15:30 1.52 465 6310 (2000) 105 (1983) 768 120 142 185 202 333 680 812 1740 4900
2020-07-05 14:30 1.56 485 6310 (2000) 105 (1983) 768 120 142 185 202 333 680 812 1740 4900
2020-07-05 13:30 1.60 505 6310 (2000) 105 (1983) 768 120 142 185 202 333 680 812 1740 4900
2020-07-05 12:30 1.64 525 6310 (2000) 105 (1983) 768 120 142 185 202 333 680 812 1740 4900
2020-07-05 11:30 1.68 546 6310 (2000) 105 (1983) 768 120 142 185 202 333 680 812 1740 4900
2020-07-05 10:30 1.73 572 6310 (2000) 105 (1983) 768 120 142 185 202 333 680 812 1740 4900
2020-07-05 09:30 1.78 598 6310 (2000) 105 (1983) 768 120 142 185 202 333 680 812 1740 4900
2020-07-05 08:30 1.82 620 6310 (2000) 105 (1983) 768 120 142 185 202 333 680 812 1740 4900
2020-07-05 07:30 1.88 653 6310 (2000) 105 (1983) 768 120 142 185 202 333 680 812 1740 4900
2020-07-05 06:30 1.94 687 6310 (2000) 105 (1983) 768 120 142 185 202 333 680 812 1740 4900
2020-07-05 05:30 2.01 727 6310 (2000) 105 (1983) 768 120 142 185 202 333 680 812 1740 4900
2020-07-05 04:30 2.09 774 6310 (2000) 105 (1983) 768 120 142 185 202 333 680 812 1740 4900
2020-07-05 03:30 2.17 822 6310 (2000) 105 (1983) 768 120 142 185 202 333 680 812 1740 4900
2020-07-05 02:30 2.26 878 6310 (2000) 105 (1983) 768 120 142 185 202 333 680 812 1740 4900
2020-07-05 01:30 2.35 935 6310 (2000) 105 (1983) 768 120 142 185 202 333 680 812 1740 4900
2020-07-05 00:30 2.45 1000 6310 (2000) 105 (1983) 768 120 142 185 202 333 680 812 1740 4900
2020-07-04 23:30 2.54 1060 9010 (2007) 138 (1983) 815 155 160 206 270 390 741 1030 1540 3520
2020-07-04 22:30 2.56 1070 9010 (2007) 138 (1983) 815 155 160 206 270 390 741 1030 1540 3520
2020-07-04 21:30 2.49 1030 9010 (2007) 138 (1983) 815 155 160 206 270 390 741 1030 1540 3520
2020-07-04 20:30 2.24 866 9010 (2007) 138 (1983) 815 155 160 206 270 390 741 1030 1540 3520
2020-07-04 19:30 1.86 642 9010 (2007) 138 (1983) 815 155 160 206 270 390 741 1030 1540 3520
2020-07-04 18:30 1.73 572 9010 (2007) 138 (1983) 815 155 160 206 270 390 741 1030 1540 3520
2020-07-04 17:30 1.77 593 9010 (2007) 138 (1983) 815 155 160 206 270 390 741 1030 1540 3520
2020-07-04 16:30 1.82 620 9010 (2007) 138 (1983) 815 155 160 206 270 390 741 1030 1540 3520
2020-07-04 15:30 1.88 653 9010 (2007) 138 (1983) 815 155 160 206 270 390 741 1030 1540 3520
2020-07-04 14:30 1.95 692 9010 (2007) 138 (1983) 815 155 160 206 270 390 741 1030 1540 3520
2020-07-04 13:30 2.04 745 9010 (2007) 138 (1983) 815 155 160 206 270 390 741 1030 1540 3520
2020-07-04 12:30 2.10 780 9010 (2007) 138 (1983) 815 155 160 206 270 390 741 1030 1540 3520
2020-07-04 11:30 2.20 841 9010 (2007) 138 (1983) 815 155 160 206 270 390 741 1030 1540 3520
2020-07-04 10:30 2.31 910 9010 (2007) 138 (1983) 815 155 160 206 270 390 741 1030 1540 3520
2020-07-04 09:30 2.42 981 9010 (2007) 138 (1983) 815 155 160 206 270 390 741 1030 1540 3520
2020-07-04 08:30 2.53 1050 9010 (2007) 138 (1983) 815 155 160 206 270 390 741 1030 1540 3520
2020-07-04 07:30 2.66 1140 9010 (2007) 138 (1983) 815 155 160 206 270 390 741 1030 1540 3520
2020-07-04 06:30 2.80 1240 9010 (2007) 138 (1983) 815 155 160 206 270 390 741 1030 1540 3520
2020-07-04 05:30 2.95 1350 9010 (2007) 138 (1983) 815 155 160 206 270 390 741 1030 1540 3520
2020-07-04 04:30 3.11 1480 9010 (2007) 138 (1983) 815 155 160 206 270 390 741 1030 1540 3520
2020-07-04 03:30 3.30 1630 9010 (2007) 138 (1983) 815 155 160 206 270 390 741 1030 1540 3520
2020-07-04 02:30 3.48 1770 9010 (2007) 138 (1983) 815 155 160 206 270 390 741 1030 1540 3520
2020-07-04 01:30 3.71 1970 9010 (2007) 138 (1983) 815 155 160 206 270 390 741 1030 1540 3520
2020-07-04 00:30 3.93 2150 9010 (2007) 138 (1983) 815 155 160 206 270 390 741 1030 1540 3520
2020-07-03 23:30 4.15 2340 6680 (2007) 120 (1978) 1020 175 192 273 307 571 1120 1570 2170 4660
2020-07-03 22:30 4.39 2550 6680 (2007) 120 (1978) 1020 175 192 273 307 571 1120 1570 2170 4660
2020-07-03 21:30 4.59 2730 6680 (2007) 120 (1978) 1020 175 192 273 307 571 1120 1570 2170 4660
2020-07-03 20:30 4.72 2850 6680 (2007) 120 (1978) 1020 175 192 273 307 571 1120 1570 2170 4660
2020-07-03 19:30 4.59 2730 6680 (2007) 120 (1978) 1020 175 192 273 307 571 1120 1570 2170 4660
2020-07-03 18:30 3.89 2120 6680 (2007) 120 (1978) 1020 175 192 273 307 571 1120 1570 2170 4660
2020-07-03 17:30 2.77 1220 6680 (2007) 120 (1978) 1020 175 192 273 307 571 1120 1570 2170 4660
2020-07-03 16:30 2.03 739 6680 (2007) 120 (1978) 1020 175 192 273 307 571 1120 1570 2170 4660
2020-07-03 15:30 2.00 721 6680 (2007) 120 (1978) 1020 175 192 273 307 571 1120 1570 2170 4660
2020-07-03 14:30 2.10 780 6680 (2007) 120 (1978) 1020 175 192 273 307 571 1120 1570 2170 4660
2020-07-03 13:30 2.20 841 6680 (2007) 120 (1978) 1020 175 192 273 307 571 1120 1570 2170 4660
2020-07-03 12:30 2.31 910 6680 (2007) 120 (1978) 1020 175 192 273 307 571 1120 1570 2170 4660
2020-07-03 11:30 2.41 974 6680 (2007) 120 (1978) 1020 175 192 273 307 571 1120 1570 2170 4660
2020-07-03 10:30 2.53 1050 6680 (2007) 120 (1978) 1020 175 192 273 307 571 1120 1570 2170 4660
2020-07-03 09:30 2.66 1140 6680 (2007) 120 (1978) 1020 175 192 273 307 571 1120 1570 2170 4660
2020-07-03 08:30 2.80 1240 6680 (2007) 120 (1978) 1020 175 192 273 307 571 1120 1570 2170 4660
2020-07-03 07:30 2.95 1350 6680 (2007) 120 (1978) 1020 175 192 273 307 571 1120 1570 2170 4660
2020-07-03 06:30 3.11 1480 6680 (2007) 120 (1978) 1020 175 192 273 307 571 1120 1570 2170 4660
2020-07-03 05:30 3.29 1620 6680 (2007) 120 (1978) 1020 175 192 273 307 571 1120 1570 2170 4660
2020-07-03 04:30 3.49 1780 6680 (2007) 120 (1978) 1020 175 192 273 307 571 1120 1570 2170 4660
2020-07-03 03:30 3.70 1960 6680 (2007) 120 (1978) 1020 175 192 273 307 571 1120 1570 2170 4660
2020-07-03 02:30 3.92 2150 6680 (2007) 120 (1978) 1020 175 192 273 307 571 1120 1570 2170 4660
2020-07-03 01:30 4.17 2360 6680 (2007) 120 (1978) 1020 175 192 273 307 571 1120 1570 2170 4660
2020-07-03 00:30 4.39 2550 6680 (2007) 120 (1978) 1020 175 192 273 307 571 1120 1570 2170 4660
2020-07-02 23:30 4.64 2780 6610 (2019) 83 (1978) 1130 150 200 290 315 694 1260 1360 3080 4880
2020-07-02 22:30 4.83 2960 6610 (2019) 83 (1978) 1130 150 200 290 315 694 1260 1360 3080 4880
2020-07-02 21:30 5.01 3130 6610 (2019) 83 (1978) 1130 150 200 290 315 694 1260 1360 3080 4880
2020-07-02 20:30 4.94 3060 6610 (2019) 83 (1978) 1130 150 200 290 315 694 1260 1360 3080 4880
2020-07-02 19:30 4.51 2660 6610 (2019) 83 (1978) 1130 150 200 290 315 694 1260 1360 3080 4880
2020-07-02 18:30 3.61 1880 6610 (2019) 83 (1978) 1130 150 200 290 315 694 1260 1360 3080 4880
2020-07-02 17:30 2.39 961 6610 (2019) 83 (1978) 1130 150 200 290 315 694 1260 1360 3080 4880
2020-07-02 16:30 1.71 561 6610 (2019) 83 (1978) 1130 150 200 290 315 694 1260 1360 3080 4880
2020-07-02 15:30 1.70 556 6610 (2019) 83 (1978) 1130 150 200 290 315 694 1260 1360 3080 4880
2020-07-02 14:30 1.76 588 6610 (2019) 83 (1978) 1130 150 200 290 315 694 1260 1360 3080 4880
2020-07-02 13:30 1.83 625 6610 (2019) 83 (1978) 1130 150 200 290 315 694 1260 1360 3080 4880
2020-07-02 12:30 1.89 659 6610 (2019) 83 (1978) 1130 150 200 290 315 694 1260 1360 3080 4880
2020-07-02 11:30 1.95 692 6610 (2019) 83 (1978) 1130 150 200 290 315 694 1260 1360 3080 4880
2020-07-02 10:30 2.03 739 6610 (2019) 83 (1978) 1130 150 200 290 315 694 1260 1360 3080 4880
2020-07-02 09:30 2.11 786 6610 (2019) 83 (1978) 1130 150 200 290 315 694 1260 1360 3080 4880
2020-07-02 08:30 2.20 841 6610 (2019) 83 (1978) 1130 150 200 290 315 694 1260 1360 3080 4880
2020-07-02 07:30 2.30 903 6610 (2019) 83 (1978) 1130 150 200 290 315 694 1260 1360 3080 4880
2020-07-02 06:30 2.40 968 6610 (2019) 83 (1978) 1130 150 200 290 315 694 1260 1360 3080 4880
2020-07-02 05:30 2.51 1040 6610 (2019) 83 (1978) 1130 150 200 290 315 694 1260 1360 3080 4880
2020-07-02 04:30 2.63 1120 6610 (2019) 83 (1978) 1130 150 200 290 315 694 1260 1360 3080 4880
2020-07-02 03:30 2.77 1220 6610 (2019) 83 (1978) 1130 150 200 290 315 694 1260 1360 3080 4880
2020-07-02 02:30 2.91 1320 6610 (2019) 83 (1978) 1130 150 200 290 315 694 1260 1360 3080 4880
2020-07-02 00:30 3.24 1580 6610 (2019) 83 (1978) 1130 150 200 290 315 694 1260 1360 3080 4880
2020-07-01 23:30 3.41 1720 5490 (2004) 132 (1984) 1050 140 183 241 282 603 1320 1490 2750 4110
2020-07-01 22:30 3.57 1850 5490 (2004) 132 (1984) 1050 140 183 241 282 603 1320 1490 2750 4110
2020-07-01 21:30 3.61 1880 5490 (2004) 132 (1984) 1050 140 183 241 282 603 1320 1490 2750 4110
2020-07-01 20:30 3.36 1670 5490 (2004) 132 (1984) 1050 140 183 241 282 603 1320 1490 2750 4110
2020-07-01 19:30 2.78 1230 5490 (2004) 132 (1984) 1050 140 183 241 282 603 1320 1490 2750 4110
2020-07-01 18:30 2.10 780 5490 (2004) 132 (1984) 1050 140 183 241 282 603 1320 1490 2750 4110
2020-07-01 17:30 1.61 510 5490 (2004) 132 (1984) 1050 140 183 241 282 603 1320 1490 2750 4110
2020-07-01 16:30 1.51 461 5490 (2004) 132 (1984) 1050 140 183 241 282 603 1320 1490 2750 4110
2020-07-01 15:30 1.51 461 5490 (2004) 132 (1984) 1050 140 183 241 282 603 1320 1490 2750 4110
2020-07-01 14:30 1.54 475 5490 (2004) 132 (1984) 1050 140 183 241 282 603 1320 1490 2750 4110
2020-07-01 13:30 1.58 495 5490 (2004) 132 (1984) 1050 140 183 241 282 603 1320 1490 2750 4110
2020-07-01 12:30 1.61 510 5490 (2004) 132 (1984) 1050 140 183 241 282 603 1320 1490 2750 4110
2020-07-01 11:30 1.65 530 5490 (2004) 132 (1984) 1050 140 183 241 282 603 1320 1490 2750 4110
2020-07-01 10:30 1.70 556 5490 (2004) 132 (1984) 1050 140 183 241 282 603 1320 1490 2750 4110
2020-07-01 09:30 1.74 577 5490 (2004) 132 (1984) 1050 140 183 241 282 603 1320 1490 2750 4110
2020-07-01 08:30 1.79 604 5490 (2004) 132 (1984) 1050 140 183 241 282 603 1320 1490 2750 4110
2020-07-01 07:30 1.85 636 5490 (2004) 132 (1984) 1050 140 183 241 282 603 1320 1490 2750 4110
2020-07-01 06:30 1.91 670 5490 (2004) 132 (1984) 1050 140 183 241 282 603 1320 1490 2750 4110
2020-07-01 05:30 1.98 710 5490 (2004) 132 (1984) 1050 140 183 241 282 603 1320 1490 2750 4110
2020-07-01 04:30 2.05 750 5490 (2004) 132 (1984) 1050 140 183 241 282 603 1320 1490 2750 4110
2020-07-01 03:30 2.13 798 5490 (2004) 132 (1984) 1050 140 183 241 282 603 1320 1490 2750 4110
2020-07-01 02:30 2.21 847 5490 (2004) 132 (1984) 1050 140 183 241 282 603 1320 1490 2750 4110
2020-07-01 01:30 2.30 903 5490 (2004) 132 (1984) 1050 140 183 241 282 603 1320 1490 2750 4110
2020-07-01 00:30 2.38 955 5490 (2004) 132 (1984) 1050 140 183 241 282 603 1320 1490 2750 4110
2020-06-30 23:30 2.46 1010 7310 (2000) 145 (1985) 1080 174 185 235 276 607 1370 1540 2160 4330
2020-06-30 22:30 2.48 1020 7310 (2000) 145 (1985) 1080 174 185 235 276 607 1370 1540 2160 4330
2020-06-30 21:30 2.38 955 7310 (2000) 145 (1985) 1080 174 185 235 276 607 1370 1540 2160 4330
2020-06-30 20:30 2.08 768 7310 (2000) 145 (1985) 1080 174 185 235 276 607 1370 1540 2160 4330
2020-06-30 19:30 1.68 546 7310 (2000) 145 (1985) 1080 174 185 235 276 607 1370 1540 2160 4330
2020-06-30 18:30 1.55 480 7310 (2000) 145 (1985) 1080 174 185 235 276 607 1370 1540 2160 4330
2020-06-30 17:30 1.57 490 7310 (2000) 145 (1985) 1080 174 185 235 276 607 1370 1540 2160 4330
2020-06-30 16:30 1.62 515 7310 (2000) 145 (1985) 1080 174 185 235 276 607 1370 1540 2160 4330
2020-06-30 15:30 1.66 535 7310 (2000) 145 (1985) 1080 174 185 235 276 607 1370 1540 2160 4330
2020-06-30 14:30 1.70 556 7310 (2000) 145 (1985) 1080 174 185 235 276 607 1370 1540 2160 4330
2020-06-30 13:30 1.74 577 7310 (2000) 145 (1985) 1080 174 185 235 276 607 1370 1540 2160 4330
2020-06-30 12:30 1.80 609 7310 (2000) 145 (1985) 1080 174 185 235 276 607 1370 1540 2160 4330
2020-06-30 11:30 1.86 642 7310 (2000) 145 (1985) 1080 174 185 235 276 607 1370 1540 2160 4330
2020-06-30 10:30 1.90 664 7310 (2000) 145 (1985) 1080 174 185 235 276 607 1370 1540 2160 4330
2020-06-30 09:30 1.99 715 7310 (2000) 145 (1985) 1080 174 185 235 276 607 1370 1540 2160 4330
2020-06-30 08:30 2.05 750 7310 (2000) 145 (1985) 1080 174 185 235 276 607 1370 1540 2160 4330
2020-06-30 07:30 2.13 798 7310 (2000) 145 (1985) 1080 174 185 235 276 607 1370 1540 2160 4330
2020-06-30 06:30 2.22 853 7310 (2000) 145 (1985) 1080 174 185 235 276 607 1370 1540 2160 4330
2020-06-30 05:30 2.31 910 7310 (2000) 145 (1985) 1080 174 185 235 276 607 1370 1540 2160 4330
2020-06-30 04:30 2.41 974 7310 (2000) 145 (1985) 1080 174 185 235 276 607 1370 1540 2160 4330
2020-06-30 03:30 2.52 1050 7310 (2000) 145 (1985) 1080 174 185 235 276 607 1370 1540 2160 4330
2020-06-30 01:30 2.77 1220 7310 (2000) 145 (1985) 1080 174 185 235 276 607 1370 1540 2160 4330
2020-06-30 00:30 2.91 1320 7310 (2000) 145 (1985) 1080 174 185 235 276 607 1370 1540 2160 4330
2020-06-29 23:30 3.06 1440 7670 (2000) 174 (2008) 1100 182 204 271 320 626 1320 1660 2390 3890
2020-06-29 22:30 3.19 1540 7670 (2000) 174 (2008) 1100 182 204 271 320 626 1320 1660 2390 3890
2020-06-29 21:30 3.24 1580 7670 (2000) 174 (2008) 1100 182 204 271 320 626 1320 1660 2390 3890
2020-06-29 20:30 3.04 1420 7670 (2000) 174 (2008) 1100 182 204 271 320 626 1320 1660 2390 3890
2020-06-29 19:30 2.26 878 7670 (2000) 174 (2008) 1100 182 204 271 320 626 1320 1660 2390 3890
2020-06-29 18:30 1.37 395 7670 (2000) 174 (2008) 1100 182 204 271 320 626 1320 1660 2390 3890
2020-06-29 17:30 1.19 317 7670 (2000) 174 (2008) 1100 182 204 271 320 626 1320 1660 2390 3890
2020-06-29 16:30 1.20 321 7670 (2000) 174 (2008) 1100 182 204 271 320 626 1320 1660 2390 3890
2020-06-29 15:30 1.22 329 7670 (2000) 174 (2008) 1100 182 204 271 320 626 1320 1660 2390 3890
2020-06-29 14:30 1.23 334 7670 (2000) 174 (2008) 1100 182 204 271 320 626 1320 1660 2390 3890
2020-06-29 13:30 1.22 329 7670 (2000) 174 (2008) 1100 182 204 271 320 626 1320 1660 2390 3890
2020-06-29 12:30 1.22 329 7670 (2000) 174 (2008) 1100 182 204 271 320 626 1320 1660 2390 3890
2020-06-29 11:30 1.23 334 7670 (2000) 174 (2008) 1100 182 204 271 320 626 1320 1660 2390 3890
2020-06-29 10:30 1.23 334 7670 (2000) 174 (2008) 1100 182 204 271 320 626 1320 1660 2390 3890
2020-06-29 09:30 1.23 334 7670 (2000) 174 (2008) 1100 182 204 271 320 626 1320 1660 2390 3890
2020-06-29 08:30 1.23 334 7670 (2000) 174 (2008) 1100 182 204 271 320 626 1320 1660 2390 3890
2020-06-29 07:30 1.23 334 7670 (2000) 174 (2008) 1100 182 204 271 320 626 1320 1660 2390 3890
2020-06-29 06:30 1.23 334 7670 (2000) 174 (2008) 1100 182 204 271 320 626 1320 1660 2390 3890
2020-06-29 05:30 1.23 334 7670 (2000) 174 (2008) 1100 182 204 271 320 626 1320 1660 2390 3890
2020-06-29 04:30 1.24 338 7670 (2000) 174 (2008) 1100 182 204 271 320 626 1320 1660 2390 3890
2020-06-29 03:30 1.24 338 7670 (2000) 174 (2008) 1100 182 204 271 320 626 1320 1660 2390 3890
2020-06-29 02:30 1.24 338 7670 (2000) 174 (2008) 1100 182 204 271 320 626 1320 1660 2390 3890
2020-06-29 01:30 1.24 338 7670 (2000) 174 (2008) 1100 182 204 271 320 626 1320 1660 2390 3890
2020-06-29 00:30 1.25 342 7670 (2000) 174 (2008) 1100 182 204 271 320 626 1320 1660 2390 3890
2020-06-28 23:30 1.25 342 7680 (2000) 131 (1981) 1100 184 191 267 333 630 1260 1720 2390 3830
2020-06-28 22:30 1.25 342 7680 (2000) 131 (1981) 1100 184 191 267 333 630 1260 1720 2390 3830
2020-06-28 21:30 1.25 342 7680 (2000) 131 (1981) 1100 184 191 267 333 630 1260 1720 2390 3830
2020-06-28 20:30 1.25 342 7680 (2000) 131 (1981) 1100 184 191 267 333 630 1260 1720 2390 3830
2020-06-28 19:30 1.25 342 7680 (2000) 131 (1981) 1100 184 191 267 333 630 1260 1720 2390 3830
2020-06-28 18:30 1.28 355 7680 (2000) 131 (1981) 1100 184 191 267 333 630 1260 1720 2390 3830
2020-06-28 17:30 1.26 346 7680 (2000) 131 (1981) 1100 184 191 267 333 630 1260 1720 2390 3830
2020-06-28 16:30 1.29 359 7680 (2000) 131 (1981) 1100 184 191 267 333 630 1260 1720 2390 3830
2020-06-28 15:30 1.27 351 7680 (2000) 131 (1981) 1100 184 191 267 333 630 1260 1720 2390 3830
2020-06-28 14:30 1.31 368 7680 (2000) 131 (1981) 1100 184 191 267 333 630 1260 1720 2390 3830
2020-06-28 13:30 1.30 364 7680 (2000) 131 (1981) 1100 184 191 267 333 630 1260 1720 2390 3830
2020-06-28 12:30 1.28 355 7680 (2000) 131 (1981) 1100 184 191 267 333 630 1260 1720 2390 3830
2020-06-28 11:30 1.33 377 7680 (2000) 131 (1981) 1100 184 191 267 333 630 1260 1720 2390 3830
2020-06-28 10:30 1.35 386 7680 (2000) 131 (1981) 1100 184 191 267 333 630 1260 1720 2390 3830
2020-06-28 09:30 1.36 391 7680 (2000) 131 (1981) 1100 184 191 267 333 630 1260 1720 2390 3830
2020-06-28 08:30 1.38 400 7680 (2000) 131 (1981) 1100 184 191 267 333 630 1260 1720 2390 3830
2020-06-28 07:30 1.39 404 7680 (2000) 131 (1981) 1100 184 191 267 333 630 1260 1720 2390 3830
2020-06-28 06:30 1.41 413 7680 (2000) 131 (1981) 1100 184 191 267 333 630 1260 1720 2390 3830
2020-06-28 05:30 1.43 423 7680 (2000) 131 (1981) 1100 184 191 267 333 630 1260 1720 2390 3830
2020-06-28 04:30 1.44 427 7680 (2000) 131 (1981) 1100 184 191 267 333 630 1260 1720 2390 3830
2020-06-28 02:30 1.48 446 7680 (2000) 131 (1981) 1100 184 191 267 333 630 1260 1720 2390 3830
2020-06-28 01:30 1.51 461 7680 (2000) 131 (1981) 1100 184 191 267 333 630 1260 1720 2390 3830
2020-06-27 23:30 1.56 485 6150 (2000) 140 (1982) 1210 171 200 311 347 480 1390 2520 3470 4970
2020-06-27 22:30 1.59 500 6150 (2000) 140 (1982) 1210 171 200 311 347 480 1390 2520 3470 4970
2020-06-27 21:30 1.63 520 6150 (2000) 140 (1982) 1210 171 200 311 347 480 1390 2520 3470 4970
2020-06-27 20:30 1.66 535 6150 (2000) 140 (1982) 1210 171 200 311 347 480 1390 2520 3470 4970
2020-06-27 19:30 1.71 561 6150 (2000) 140 (1982) 1210 171 200 311 347 480 1390 2520 3470 4970
2020-06-27 18:30 1.75 582 6150 (2000) 140 (1982) 1210 171 200 311 347 480 1390 2520 3470 4970
2020-06-27 17:30 1.79 604 6150 (2000) 140 (1982) 1210 171 200 311 347 480 1390 2520 3470 4970
2020-06-27 16:30 1.83 625 6150 (2000) 140 (1982) 1210 171 200 311 347 480 1390 2520 3470 4970
2020-06-27 15:30 1.87 647 6150 (2000) 140 (1982) 1210 171 200 311 347 480 1390 2520 3470 4970
2020-06-27 14:30 1.95 692 6150 (2000) 140 (1982) 1210 171 200 311 347 480 1390 2520 3470 4970
2020-06-27 13:30 2.03 739 6150 (2000) 140 (1982) 1210 171 200 311 347 480 1390 2520 3470 4970
2020-06-27 12:30 2.12 792 6150 (2000) 140 (1982) 1210 171 200 311 347 480 1390 2520 3470 4970
2020-06-27 11:30 2.23 859 6150 (2000) 140 (1982) 1210 171 200 311 347 480 1390 2520 3470 4970
2020-06-27 10:30 2.32 916 6150 (2000) 140 (1982) 1210 171 200 311 347 480 1390 2520 3470 4970
2020-06-27 09:30 2.43 988 6150 (2000) 140 (1982) 1210 171 200 311 347 480 1390 2520 3470 4970
2020-06-27 08:30 2.54 1060 6150 (2000) 140 (1982) 1210 171 200 311 347 480 1390 2520 3470 4970
2020-06-27 07:30 2.66 1140 6150 (2000) 140 (1982) 1210 171 200 311 347 480 1390 2520 3470 4970
2020-06-27 06:30 2.79 1240 6150 (2000) 140 (1982) 1210 171 200 311 347 480 1390 2520 3470 4970
2020-06-27 05:30 2.94 1350 6150 (2000) 140 (1982) 1210 171 200 311 347 480 1390 2520 3470 4970
2020-06-27 04:30 3.09 1460 6150 (2000) 140 (1982) 1210 171 200 311 347 480 1390 2520 3470 4970
2020-06-27 03:30 3.26 1590 6150 (2000) 140 (1982) 1210 171 200 311 347 480 1390 2520 3470 4970
2020-06-27 02:30 3.45 1750 6150 (2000) 140 (1982) 1210 171 200 311 347 480 1390 2520 3470 4970
2020-06-27 01:30 3.66 1930 6150 (2000) 140 (1982) 1210 171 200 311 347 480 1390 2520 3470 4970
2020-06-27 00:30 3.88 2110 6150 (2000) 140 (1982) 1210 171 200 311 347 480 1390 2520 3470 4970
2020-06-26 23:30 4.11 2310 5100 (1990) 164 (1983) 1140 173 231 285 311 527 1330 2170 3050 4590
2020-06-26 22:30 4.34 2510 5100 (1990) 164 (1983) 1140 173 231 285 311 527 1330 2170 3050 4590
2020-06-26 21:30 4.56 2710 5100 (1990) 164 (1983) 1140 173 231 285 311 527 1330 2170 3050 4590
2020-06-26 20:30 4.67 2810 5100 (1990) 164 (1983) 1140 173 231 285 311 527 1330 2170 3050 4590
2020-06-26 19:30 4.46 2620 5100 (1990) 164 (1983) 1140 173 231 285 311 527 1330 2170 3050 4590
2020-06-26 18:30 3.58 1860 5100 (1990) 164 (1983) 1140 173 231 285 311 527 1330 2170 3050 4590
2020-06-26 17:30 2.30 903 5100 (1990) 164 (1983) 1140 173 231 285 311 527 1330 2170 3050 4590
2020-06-26 16:30 1.63 520 5100 (1990) 164 (1983) 1140 173 231 285 311 527 1330 2170 3050 4590
2020-06-26 15:30 1.63 520 5100 (1990) 164 (1983) 1140 173 231 285 311 527 1330 2170 3050 4590
2020-06-26 14:30 1.64 525 5100 (1990) 164 (1983) 1140 173 231 285 311 527 1330 2170 3050 4590
2020-06-26 13:30 1.69 551 5100 (1990) 164 (1983) 1140 173 231 285 311 527 1330 2170 3050 4590
2020-06-26 12:30 1.73 572 5100 (1990) 164 (1983) 1140 173 231 285 311 527 1330 2170 3050 4590
2020-06-26 11:30 1.78 598 5100 (1990) 164 (1983) 1140 173 231 285 311 527 1330 2170 3050 4590
2020-06-26 10:30 1.83 625 5100 (1990) 164 (1983) 1140 173 231 285 311 527 1330 2170 3050 4590
2020-06-26 09:30 1.89 659 5100 (1990) 164 (1983) 1140 173 231 285 311 527 1330 2170 3050 4590
2020-06-26 08:30 1.95 692 5100 (1990) 164 (1983) 1140 173 231 285 311 527 1330 2170 3050 4590
2020-06-26 07:30 2.02 733 5100 (1990) 164 (1983) 1140 173 231 285 311 527 1330 2170 3050 4590
2020-06-26 06:30 2.09 774 5100 (1990) 164 (1983) 1140 173 231 285 311 527 1330 2170 3050 4590
2020-06-26 05:30 2.18 829 5100 (1990) 164 (1983) 1140 173 231 285 311 527 1330 2170 3050 4590
2020-06-26 03:30 2.36 942 5100 (1990) 164 (1983) 1140 173 231 285 311 527 1330 2170 3050 4590
2020-06-26 02:30 2.47 1010 5100 (1990) 164 (1983) 1140 173 231 285 311 527 1330 2170 3050 4590
2020-06-26 01:30 2.58 1090 5100 (1990) 164 (1983) 1140 173 231 285 311 527 1330 2170 3050 4590
2020-06-26 00:30 2.71 1180 5100 (1990) 164 (1983) 1140 173 231 285 311 527 1330 2170 3050 4590
2020-06-25 23:30 2.84 1270 4770 (2000) 125 (1978) 1200 148 231 331 351 666 1540 1810 3220 4340
2020-06-25 22:30 2.97 1370 4770 (2000) 125 (1978) 1200 148 231 331 351 666 1540 1810 3220 4340
2020-06-25 21:30 3.08 1450 4770 (2000) 125 (1978) 1200 148 231 331 351 666 1540 1810 3220 4340
2020-06-25 20:30 3.06 1440 4770 (2000) 125 (1978) 1200 148 231 331 351 666 1540 1810 3220 4340
2020-06-25 19:30 2.73 1190 4770 (2000) 125 (1978) 1200 148 231 331 351 666 1540 1810 3220 4340
2020-06-25 18:30 2.03 739 4770 (2000) 125 (1978) 1200 148 231 331 351 666 1540 1810 3220 4340
2020-06-25 17:30 1.75 582 4770 (2000) 125 (1978) 1200 148 231 331 351 666 1540 1810 3220 4340
2020-06-25 16:30 1.81 615 4770 (2000) 125 (1978) 1200 148 231 331 351 666 1540 1810 3220 4340
2020-06-25 15:30 1.86 642 4770 (2000) 125 (1978) 1200 148 231 331 351 666 1540 1810 3220 4340
2020-06-25 14:30 1.92 675 4770 (2000) 125 (1978) 1200 148 231 331 351 666 1540 1810 3220 4340
2020-06-25 13:30 1.96 698 4770 (2000) 125 (1978) 1200 148 231 331 351 666 1540 1810 3220 4340
2020-06-25 12:30 2.07 762 4770 (2000) 125 (1978) 1200 148 231 331 351 666 1540 1810 3220 4340
2020-06-25 11:30 2.16 816 4770 (2000) 125 (1978) 1200 148 231 331 351 666 1540 1810 3220 4340
2020-06-25 10:30 2.25 872 4770 (2000) 125 (1978) 1200 148 231 331 351 666 1540 1810 3220 4340
2020-06-25 09:30 2.34 929 4770 (2000) 125 (1978) 1200 148 231 331 351 666 1540 1810 3220 4340
2020-06-25 08:30 2.44 994 4770 (2000) 125 (1978) 1200 148 231 331 351 666 1540 1810 3220 4340
2020-06-25 07:30 2.56 1070 4770 (2000) 125 (1978) 1200 148 231 331 351 666 1540 1810 3220 4340
2020-06-25 06:30 2.69 1160 4770 (2000) 125 (1978) 1200 148 231 331 351 666 1540 1810 3220 4340
2020-06-25 05:30 2.81 1250 4770 (2000) 125 (1978) 1200 148 231 331 351 666 1540 1810 3220 4340
2020-06-25 04:30 2.96 1360 4770 (2000) 125 (1978) 1200 148 231 331 351 666 1540 1810 3220 4340
2020-06-25 03:30 3.12 1480 4770 (2000) 125 (1978) 1200 148 231 331 351 666 1540 1810 3220 4340
2020-06-25 02:30 3.30 1630 4770 (2000) 125 (1978) 1200 148 231 331 351 666 1540 1810 3220 4340
2020-06-25 01:30 3.50 1790 4770 (2000) 125 (1978) 1200 148 231 331 351 666 1540 1810 3220 4340
2020-06-25 00:30 3.70 1960 4770 (2000) 125 (1978) 1200 148 231 331 351 666 1540 1810 3220 4340
2020-06-24 23:30 3.93 2150 6020 (2015) 145 (1984) 1230 166 201 229 327 803 1430 1700 3530 3920
2020-06-24 22:30 4.14 2330 6020 (2015) 145 (1984) 1230 166 201 229 327 803 1430 1700 3530 3920
2020-06-24 21:30 4.33 2500 6020 (2015) 145 (1984) 1230 166 201 229 327 803 1430 1700 3530 3920
2020-06-24 20:30 4.43 2590 6020 (2015) 145 (1984) 1230 166 201 229 327 803 1430 1700 3530 3920
2020-06-24 19:30 4.13 2320 6020 (2015) 145 (1984) 1230 166 201 229 327 803 1430 1700 3530 3920
2020-06-24 18:30 3.07 1440 6020 (2015) 145 (1984) 1230 166 201 229 327 803 1430 1700 3530 3920
2020-06-24 17:30 2.02 733 6020 (2015) 145 (1984) 1230 166 201 229 327 803 1430 1700 3530 3920
2020-06-24 16:30 1.74 577 6020 (2015) 145 (1984) 1230 166 201 229 327 803 1430 1700 3530 3920
2020-06-24 15:30 1.77 593 6020 (2015) 145 (1984) 1230 166 201 229 327 803 1430 1700 3530 3920
2020-06-24 14:30 1.82 620 6020 (2015) 145 (1984) 1230 166 201 229 327 803 1430 1700 3530 3920
2020-06-24 13:30 1.89 659 6020 (2015) 145 (1984) 1230 166 201 229 327 803 1430 1700 3530 3920
2020-06-24 12:30 1.94 687 6020 (2015) 145 (1984) 1230 166 201 229 327 803 1430 1700 3530 3920
2020-06-24 11:30 2.01 727 6020 (2015) 145 (1984) 1230 166 201 229 327 803 1430 1700 3530 3920
2020-06-24 10:30 2.08 768 6020 (2015) 145 (1984) 1230 166 201 229 327 803 1430 1700 3530 3920
2020-06-24 09:30 2.16 816 6020 (2015) 145 (1984) 1230 166 201 229 327 803 1430 1700 3530 3920
2020-06-24 08:30 2.24 866 6020 (2015) 145 (1984) 1230 166 201 229 327 803 1430 1700 3530 3920
2020-06-24 07:30 2.33 923 6020 (2015) 145 (1984) 1230 166 201 229 327 803 1430 1700 3530 3920
2020-06-24 06:30 2.42 981 6020 (2015) 145 (1984) 1230 166 201 229 327 803 1430 1700 3530 3920
2020-06-24 05:30 2.53 1050 6020 (2015) 145 (1984) 1230 166 201 229 327 803 1430 1700 3530 3920
2020-06-24 04:30 2.65 1140 6020 (2015) 145 (1984) 1230 166 201 229 327 803 1430 1700 3530 3920
2020-06-24 03:30 2.77 1220 6020 (2015) 145 (1984) 1230 166 201 229 327 803 1430 1700 3530 3920
2020-06-24 02:30 2.90 1320 6020 (2015) 145 (1984) 1230 166 201 229 327 803 1430 1700 3530 3920
2020-06-24 01:30 3.05 1430 6020 (2015) 145 (1984) 1230 166 201 229 327 803 1430 1700 3530 3920
2020-06-24 00:30 3.21 1550 6020 (2015) 145 (1984) 1230 166 201 229 327 803 1430 1700 3530 3920
2020-06-23 23:30 3.38 1690 6500 (2015) 149 (2018) 1220 152 185 242 282 755 1500 1780 3050 4430
2020-06-23 22:30 3.58 1860 6500 (2015) 149 (2018) 1220 152 185 242 282 755 1500 1780 3050 4430
2020-06-23 21:30 3.77 2020 6500 (2015) 149 (2018) 1220 152 185 242 282 755 1500 1780 3050 4430
2020-06-23 20:30 3.95 2170 6500 (2015) 149 (2018) 1220 152 185 242 282 755 1500 1780 3050 4430
2020-06-23 19:30 4.01 2220 6500 (2015) 149 (2018) 1220 152 185 242 282 755 1500 1780 3050 4430
2020-06-23 18:30 3.66 1930 6500 (2015) 149 (2018) 1220 152 185 242 282 755 1500 1780 3050 4430
2020-06-23 17:30 2.82 1260 6500 (2015) 149 (2018) 1220 152 185 242 282 755 1500 1780 3050 4430
2020-06-23 16:30 2.10 780 6500 (2015) 149 (2018) 1220 152 185 242 282 755 1500 1780 3050 4430
2020-06-23 15:30 1.93 681 6500 (2015) 149 (2018) 1220 152 185 242 282 755 1500 1780 3050 4430
2020-06-23 14:30 1.96 698 6500 (2015) 149 (2018) 1220 152 185 242 282 755 1500 1780 3050 4430
2020-06-23 13:30 1.98 710 6500 (2015) 149 (2018) 1220 152 185 242 282 755 1500 1780 3050 4430
2020-06-23 12:30 2.01 727 6500 (2015) 149 (2018) 1220 152 185 242 282 755 1500 1780 3050 4430
2020-06-23 11:30 2.05 750 6500 (2015) 149 (2018) 1220 152 185 242 282 755 1500 1780 3050 4430
2020-06-23 10:30 2.10 780 6500 (2015) 149 (2018) 1220 152 185 242 282 755 1500 1780 3050 4430
2020-06-23 09:30 2.13 798 6500 (2015) 149 (2018) 1220 152 185 242 282 755 1500 1780 3050 4430
2020-06-23 08:30 2.14 804 6500 (2015) 149 (2018) 1220 152 185 242 282 755 1500 1780 3050 4430
2020-06-23 07:30 2.22 853 6500 (2015) 149 (2018) 1220 152 185 242 282 755 1500 1780 3050 4430
2020-06-23 06:30 2.30 903 6500 (2015) 149 (2018) 1220 152 185 242 282 755 1500 1780 3050 4430
2020-06-23 05:30 2.40 968 6500 (2015) 149 (2018) 1220 152 185 242 282 755 1500 1780 3050 4430
2020-06-23 04:30 2.51 1040 6500 (2015) 149 (2018) 1220 152 185 242 282 755 1500 1780 3050 4430
2020-06-23 03:30 2.62 1120 6500 (2015) 149 (2018) 1220 152 185 242 282 755 1500 1780 3050 4430
2020-06-23 02:30 2.74 1200 6500 (2015) 149 (2018) 1220 152 185 242 282 755 1500 1780 3050 4430
2020-06-23 01:30 2.87 1290 6500 (2015) 149 (2018) 1220 152 185 242 282 755 1500 1780 3050 4430
2020-06-22 23:30 3.17 1520 6930 (1990) 141 (1988) 1410 158 184 249 290 768 1320 1630 5350 6550
2020-06-22 22:30 3.35 1670 6930 (1990) 141 (1988) 1410 158 184 249 290 768 1320 1630 5350 6550
2020-06-22 21:30 3.50 1790 6930 (1990) 141 (1988) 1410 158 184 249 290 768 1320 1630 5350 6550
2020-06-22 20:30 3.59 1870 6930 (1990) 141 (1988) 1410 158 184 249 290 768 1320 1630 5350 6550
2020-06-22 19:30 3.34 1660 6930 (1990) 141 (1988) 1410 158 184 249 290 768 1320 1630 5350 6550
2020-06-22 18:30 2.49 1030 6930 (1990) 141 (1988) 1410 158 184 249 290 768 1320 1630 5350 6550
2020-06-22 17:30 1.78 598 6930 (1990) 141 (1988) 1410 158 184 249 290 768 1320 1630 5350 6550
2020-06-22 16:30 1.72 566 6930 (1990) 141 (1988) 1410 158 184 249 290 768 1320 1630 5350 6550
2020-06-22 15:30 1.76 588 6930 (1990) 141 (1988) 1410 158 184 249 290 768 1320 1630 5350 6550
2020-06-22 14:30 1.75 582 6930 (1990) 141 (1988) 1410 158 184 249 290 768 1320 1630 5350 6550
2020-06-22 13:30 1.73 572 6930 (1990) 141 (1988) 1410 158 184 249 290 768 1320 1630 5350 6550
2020-06-22 12:30 1.68 546 6930 (1990) 141 (1988) 1410 158 184 249 290 768 1320 1630 5350 6550
2020-06-22 11:30 1.64 525 6930 (1990) 141 (1988) 1410 158 184 249 290 768 1320 1630 5350 6550
2020-06-22 10:30 1.60 505 6930 (1990) 141 (1988) 1410 158 184 249 290 768 1320 1630 5350 6550
2020-06-22 09:30 1.57 490 6930 (1990) 141 (1988) 1410 158 184 249 290 768 1320 1630 5350 6550
2020-06-22 08:30 1.55 480 6930 (1990) 141 (1988) 1410 158 184 249 290 768 1320 1630 5350 6550
2020-06-22 07:30 1.55 480 6930 (1990) 141 (1988) 1410 158 184 249 290 768 1320 1630 5350 6550
2020-06-22 06:30 1.55 480 6930 (1990) 141 (1988) 1410 158 184 249 290 768 1320 1630 5350 6550
2020-06-22 05:30 1.53 470 6930 (1990) 141 (1988) 1410 158 184 249 290 768 1320 1630 5350 6550
2020-06-22 04:30 1.53 470 6930 (1990) 141 (1988) 1410 158 184 249 290 768 1320 1630 5350 6550
2020-06-22 03:30 1.55 480 6930 (1990) 141 (1988) 1410 158 184 249 290 768 1320 1630 5350 6550
2020-06-22 02:30 1.57 490 6930 (1990) 141 (1988) 1410 158 184 249 290 768 1320 1630 5350 6550
2020-06-22 01:30 1.60 505 6930 (1990) 141 (1988) 1410 158 184 249 290 768 1320 1630 5350 6550
2020-06-22 00:30 1.62 515 6930 (1990) 141 (1988) 1410 158 184 249 290 768 1320 1630 5350 6550
2020-06-21 23:30 1.65 530 8370 (1990) 131 (1988) 1600 177 211 338 370 671 1980 2760 6120 6600
2020-06-21 22:30 1.67 540 8370 (1990) 131 (1988) 1600 177 211 338 370 671 1980 2760 6120 6600
2020-06-21 21:30 1.71 561 8370 (1990) 131 (1988) 1600 177 211 338 370 671 1980 2760 6120 6600
2020-06-21 20:30 1.77 593 8370 (1990) 131 (1988) 1600 177 211 338 370 671 1980 2760 6120 6600
2020-06-21 19:30 1.82 620 8370 (1990) 131 (1988) 1600 177 211 338 370 671 1980 2760 6120 6600
2020-06-21 18:30 1.86 642 8370 (1990) 131 (1988) 1600 177 211 338 370 671 1980 2760 6120 6600
2020-06-21 17:30 1.89 659 8370 (1990) 131 (1988) 1600 177 211 338 370 671 1980 2760 6120 6600
2020-06-21 16:30 1.89 659 8370 (1990) 131 (1988) 1600 177 211 338 370 671 1980 2760 6120 6600
2020-06-21 15:30 1.80 609 8370 (1990) 131 (1988) 1600 177 211 338 370 671 1980 2760 6120 6600
2020-06-21 14:30 1.73 572 8370 (1990) 131 (1988) 1600 177 211 338 370 671 1980 2760 6120 6600
2020-06-21 13:30 1.62 515 8370 (1990) 131 (1988) 1600 177 211 338 370 671 1980 2760 6120 6600
2020-06-21 12:30 1.58 495 8370 (1990) 131 (1988) 1600 177 211 338 370 671 1980 2760 6120 6600
2020-06-21 11:30 1.35 386 8370 (1990) 131 (1988) 1600 177 211 338 370 671 1980 2760 6120 6600
2020-06-21 10:30 1.32 373 8370 (1990) 131 (1988) 1600 177 211 338 370 671 1980 2760 6120 6600
2020-06-21 09:30 1.32 373 8370 (1990) 131 (1988) 1600 177 211 338 370 671 1980 2760 6120 6600
2020-06-21 08:30 1.34 382 8370 (1990) 131 (1988) 1600 177 211 338 370 671 1980 2760 6120 6600
2020-06-21 07:30 1.35 386 8370 (1990) 131 (1988) 1600 177 211 338 370 671 1980 2760 6120 6600
2020-06-21 06:30 1.37 395 8370 (1990) 131 (1988) 1600 177 211 338 370 671 1980 2760 6120 6600
2020-06-21 05:30 1.38 400 8370 (1990) 131 (1988) 1600 177 211 338 370 671 1980 2760 6120 6600
2020-06-21 04:30 1.39 404 8370 (1990) 131 (1988) 1600 177 211 338 370 671 1980 2760 6120 6600
2020-06-21 03:30 1.41 413 8370 (1990) 131 (1988) 1600 177 211 338 370 671 1980 2760 6120 6600
2020-06-21 02:30 1.43 423 8370 (1990) 131 (1988) 1600 177 211 338 370 671 1980 2760 6120 6600
2020-06-21 01:30 1.45 432 8370 (1990) 131 (1988) 1600 177 211 338 370 671 1980 2760 6120 6600
2020-06-21 00:30 1.46 437 8370 (1990) 131 (1988) 1600 177 211 338 370 671 1980 2760 6120 6600
2020-06-20 23:30 1.49 451 8590 (1990) 137 (1988) 1770 148 200 305 340 721 2910 3600 6090 6570
2020-06-20 22:30 1.51 461 8590 (1990) 137 (1988) 1770 148 200 305 340 721 2910 3600 6090 6570
2020-06-20 21:30 1.54 475 8590 (1990) 137 (1988) 1770 148 200 305 340 721 2910 3600 6090 6570
2020-06-20 20:30 1.57 490 8590 (1990) 137 (1988) 1770 148 200 305 340 721 2910 3600 6090 6570
2020-06-20 19:30 1.61 510 8590 (1990) 137 (1988) 1770 148 200 305 340 721 2910 3600 6090 6570
2020-06-20 18:30 1.65 530 8590 (1990) 137 (1988) 1770 148 200 305 340 721 2910 3600 6090 6570
2020-06-20 17:30 1.69 551 8590 (1990) 137 (1988) 1770 148 200 305 340 721 2910 3600 6090 6570
2020-06-20 16:30 1.74 577 8590 (1990) 137 (1988) 1770 148 200 305 340 721 2910 3600 6090 6570
2020-06-20 15:30 1.78 598 8590 (1990) 137 (1988) 1770 148 200 305 340 721 2910 3600 6090 6570
2020-06-20 14:30 1.80 609 8590 (1990) 137 (1988) 1770 148 200 305 340 721 2910 3600 6090 6570
2020-06-20 13:30 1.88 653 8590 (1990) 137 (1988) 1770 148 200 305 340 721 2910 3600 6090 6570
2020-06-20 12:30 1.95 692 8590 (1990) 137 (1988) 1770 148 200 305 340 721 2910 3600 6090 6570
2020-06-20 11:30 2.05 750 8590 (1990) 137 (1988) 1770 148 200 305 340 721 2910 3600 6090 6570
2020-06-20 10:30 2.12 792 8590 (1990) 137 (1988) 1770 148 200 305 340 721 2910 3600 6090 6570
2020-06-20 09:30 2.20 841 8590 (1990) 137 (1988) 1770 148 200 305 340 721 2910 3600 6090 6570
2020-06-20 08:30 2.30 903 8590 (1990) 137 (1988) 1770 148 200 305 340 721 2910 3600 6090 6570
2020-06-20 07:30 2.40 968 8590 (1990) 137 (1988) 1770 148 200 305 340 721 2910 3600 6090 6570
2020-06-20 06:30 2.51 1040 8590 (1990) 137 (1988) 1770 148 200 305 340 721 2910 3600 6090 6570
2020-06-20 05:30 2.62 1120 8590 (1990) 137 (1988) 1770 148 200 305 340 721 2910 3600 6090 6570
2020-06-20 04:30 2.75 1210 8590 (1990) 137 (1988) 1770 148 200 305 340 721 2910 3600 6090 6570
2020-06-20 03:30 2.89 1310 8590 (1990) 137 (1988) 1770 148 200 305 340 721 2910 3600 6090 6570
2020-06-20 02:30 3.04 1420 8590 (1990) 137 (1988) 1770 148 200 305 340 721 2910 3600 6090 6570
2020-06-20 01:30 3.21 1550 8590 (1990) 137 (1988) 1770 148 200 305 340 721 2910 3600 6090 6570
2020-06-20 00:30 3.40 1710 8590 (1990) 137 (1988) 1770 148 200 305 340 721 2910 3600 6090 6570
2020-06-19 23:30 3.60 1880 8220 (1990) 94 (1983) 1860 160 181 276 383 660 3080 3540 6170 6570
2020-06-19 22:30 3.78 2030 8220 (1990) 94 (1983) 1860 160 181 276 383 660 3080 3540 6170 6570
2020-06-19 21:30 3.90 2130 8220 (1990) 94 (1983) 1860 160 181 276 383 660 3080 3540 6170 6570
2020-06-19 20:30 3.77 2020 8220 (1990) 94 (1983) 1860 160 181 276 383 660 3080 3540 6170 6570
2020-06-19 19:30 3.28 1610 8220 (1990) 94 (1983) 1860 160 181 276 383 660 3080 3540 6170 6570
2020-06-19 18:30 2.42 981 8220 (1990) 94 (1983) 1860 160 181 276 383 660 3080 3540 6170 6570
2020-06-19 17:30 1.55 480 8220 (1990) 94 (1983) 1860 160 181 276 383 660 3080 3540 6170 6570
2020-06-19 16:30 1.37 395 8220 (1990) 94 (1983) 1860 160 181 276 383 660 3080 3540 6170 6570
2020-06-19 15:30 1.34 382 8220 (1990) 94 (1983) 1860 160 181 276 383 660 3080 3540 6170 6570
2020-06-19 14:30 1.37 395 8220 (1990) 94 (1983) 1860 160 181 276 383 660 3080 3540 6170 6570
2020-06-19 13:30 1.36 391 8220 (1990) 94 (1983) 1860 160 181 276 383 660 3080 3540 6170 6570
2020-06-19 12:30 1.42 418 8220 (1990) 94 (1983) 1860 160 181 276 383 660 3080 3540 6170 6570
2020-06-19 11:30 1.46 437 8220 (1990) 94 (1983) 1860 160 181 276 383 660 3080 3540 6170 6570
2020-06-19 10:30 1.49 451 8220 (1990) 94 (1983) 1860 160 181 276 383 660 3080 3540 6170 6570
2020-06-19 09:30 1.52 465 8220 (1990) 94 (1983) 1860 160 181 276 383 660 3080 3540 6170 6570
2020-06-19 08:30 1.54 475 8220 (1990) 94 (1983) 1860 160 181 276 383 660 3080 3540 6170 6570
2020-06-19 07:30 1.58 495 8220 (1990) 94 (1983) 1860 160 181 276 383 660 3080 3540 6170 6570
2020-06-19 06:30 1.61 510 8220 (1990) 94 (1983) 1860 160 181 276 383 660 3080 3540 6170 6570
2020-06-19 05:30 1.64 525 8220 (1990) 94 (1983) 1860 160 181 276 383 660 3080 3540 6170 6570
2020-06-19 04:30 1.68 546 8220 (1990) 94 (1983) 1860 160 181 276 383 660 3080 3540 6170 6570
2020-06-19 03:30 1.72 566 8220 (1990) 94 (1983) 1860 160 181 276 383 660 3080 3540 6170 6570
2020-06-19 02:30 1.77 593 8220 (1990) 94 (1983) 1860 160 181 276 383 660 3080 3540 6170 6570
2020-06-19 01:30 1.82 620 8220 (1990) 94 (1983) 1860 160 181 276 383 660 3080 3540 6170 6570
2020-06-19 00:30 1.87 647 8220 (1990) 94 (1983) 1860 160 181 276 383 660 3080 3540 6170 6570
2020-06-18 23:30 1.93 681 8810 (1990) 137 (1978) 1840 155 210 266 325 930 2380 3860 6030 6560
2020-06-18 22:30 1.99 715 8810 (1990) 137 (1978) 1840 155 210 266 325 930 2380 3860 6030 6560
2020-06-18 21:30 2.07 762 8810 (1990) 137 (1978) 1840 155 210 266 325 930 2380 3860 6030 6560
2020-06-18 20:30 2.15 810 8810 (1990) 137 (1978) 1840 155 210 266 325 930 2380 3860 6030 6560
2020-06-18 19:30 2.24 866 8810 (1990) 137 (1978) 1840 155 210 266 325 930 2380 3860 6030 6560
2020-06-18 18:30 2.32 916 8810 (1990) 137 (1978) 1840 155 210 266 325 930 2380 3860 6030 6560
2020-06-18 17:30 2.41 974 8810 (1990) 137 (1978) 1840 155 210 266 325 930 2380 3860 6030 6560
2020-06-18 16:30 2.55 1070 8810 (1990) 137 (1978) 1840 155 210 266 325 930 2380 3860 6030 6560
2020-06-18 15:30 2.65 1140 8810 (1990) 137 (1978) 1840 155 210 266 325 930 2380 3860 6030 6560
2020-06-18 14:30 2.79 1240 8810 (1990) 137 (1978) 1840 155 210 266 325 930 2380 3860 6030 6560
2020-06-18 13:30 2.91 1320 8810 (1990) 137 (1978) 1840 155 210 266 325 930 2380 3860 6030 6560
2020-06-18 12:30 2.99 1380 8810 (1990) 137 (1978) 1840 155 210 266 325 930 2380 3860 6030 6560
2020-06-18 11:30 2.97 1370 8810 (1990) 137 (1978) 1840 155 210 266 325 930 2380 3860 6030 6560
2020-06-18 10:30 2.69 1160 8810 (1990) 137 (1978) 1840 155 210 266 325 930 2380 3860 6030 6560
2020-06-18 09:30 2.45 1000 8810 (1990) 137 (1978) 1840 155 210 266 325 930 2380 3860 6030 6560
2020-06-18 08:30 2.52 1050 8810 (1990) 137 (1978) 1840 155 210 266 325 930 2380 3860 6030 6560
2020-06-18 07:30 2.64 1130 8810 (1990) 137 (1978) 1840 155 210 266 325 930 2380 3860 6030 6560
2020-06-18 06:30 2.77 1220 8810 (1990) 137 (1978) 1840 155 210 266 325 930 2380 3860 6030 6560
2020-06-18 05:30 2.91 1320 8810 (1990) 137 (1978) 1840 155 210 266 325 930 2380 3860 6030 6560
2020-06-18 04:30 3.07 1440 8810 (1990) 137 (1978) 1840 155 210 266 325 930 2380 3860 6030 6560
2020-06-18 03:30 3.24 1580 8810 (1990) 137 (1978) 1840 155 210 266 325 930 2380 3860 6030 6560
2020-06-18 02:30 3.43 1730 8810 (1990) 137 (1978) 1840 155 210 266 325 930 2380 3860 6030 6560
2020-06-18 01:30 3.62 1890 8810 (1990) 137 (1978) 1840 155 210 266 325 930 2380 3860 6030 6560
2020-06-18 00:30 3.86 2100 8810 (1990) 137 (1978) 1840 155 210 266 325 930 2380 3860 6030 6560
2020-06-17 23:30 4.08 2280 9000 (1990) 110 (1983) 1790 155 180 224 295 720 2430 3610 5750 6830
2020-06-17 22:30 4.31 2480 9000 (1990) 110 (1983) 1790 155 180 224 295 720 2430 3610 5750 6830
2020-06-17 21:30 4.50 2650 9000 (1990) 110 (1983) 1790 155 180 224 295 720 2430 3610 5750 6830
2020-06-17 20:30 4.65 2790 9000 (1990) 110 (1983) 1790 155 180 224 295 720 2430 3610 5750 6830
2020-06-17 19:30 4.48 2630 9000 (1990) 110 (1983) 1790 155 180 224 295 720 2430 3610 5750 6830
2020-06-17 18:30 3.76 2010 9000 (1990) 110 (1983) 1790 155 180 224 295 720 2430 3610 5750 6830
2020-06-17 17:30 2.63 1120 9000 (1990) 110 (1983) 1790 155 180 224 295 720 2430 3610 5750 6830
2020-06-17 16:30 1.91 670 9000 (1990) 110 (1983) 1790 155 180 224 295 720 2430 3610 5750 6830
2020-06-17 15:30 1.91 670 9000 (1990) 110 (1983) 1790 155 180 224 295 720 2430 3610 5750 6830
2020-06-17 14:30 1.98 710 9000 (1990) 110 (1983) 1790 155 180 224 295 720 2430 3610 5750 6830
2020-06-17 13:30 2.05 750 9000 (1990) 110 (1983) 1790 155 180 224 295 720 2430 3610 5750 6830
2020-06-17 12:30 2.14 804 9000 (1990) 110 (1983) 1790 155 180 224 295 720 2430 3610 5750 6830
2020-06-17 11:30 2.22 853 9000 (1990) 110 (1983) 1790 155 180 224 295 720 2430 3610 5750 6830
2020-06-17 10:30 2.31 910 9000 (1990) 110 (1983) 1790 155 180 224 295 720 2430 3610 5750 6830
2020-06-17 09:30 2.41 974 9000 (1990) 110 (1983) 1790 155 180 224 295 720 2430 3610 5750 6830
2020-06-17 08:30 2.52 1050 9000 (1990) 110 (1983) 1790 155 180 224 295 720 2430 3610 5750 6830
2020-06-17 07:30 2.64 1130 9000 (1990) 110 (1983) 1790 155 180 224 295 720 2430 3610 5750 6830
2020-06-17 06:30 2.77 1220 9000 (1990) 110 (1983) 1790 155 180 224 295 720 2430 3610 5750 6830
2020-06-17 05:30 2.90 1320 9000 (1990) 110 (1983) 1790 155 180 224 295 720 2430 3610 5750 6830
2020-06-17 04:30 3.06 1440 9000 (1990) 110 (1983) 1790 155 180 224 295 720 2430 3610 5750 6830
2020-06-17 03:30 3.23 1570 9000 (1990) 110 (1983) 1790 155 180 224 295 720 2430 3610 5750 6830
2020-06-17 02:30 3.42 1720 9000 (1990) 110 (1983) 1790 155 180 224 295 720 2430 3610 5750 6830
2020-06-17 01:30 3.62 1890 9000 (1990) 110 (1983) 1790 155 180 224 295 720 2430 3610 5750 6830
2020-06-17 00:30 3.85 2090 9000 (1990) 110 (1983) 1790 155 180 224 295 720 2430 3610 5750 6830
2020-06-16 23:30 4.07 2270 7890 (1990) 107 (1972) 1630 150 184 305 327 696 2250 3250 4410 6850
2020-06-16 22:30 4.29 2460 7890 (1990) 107 (1972) 1630 150 184 305 327 696 2250 3250 4410 6850
2020-06-16 21:30 4.50 2650 7890 (1990) 107 (1972) 1630 150 184 305 327 696 2250 3250 4410 6850
2020-06-16 20:30 4.63 2770 7890 (1990) 107 (1972) 1630 150 184 305 327 696 2250 3250 4410 6850
2020-06-16 19:30 4.47 2620 7890 (1990) 107 (1972) 1630 150 184 305 327 696 2250 3250 4410 6850
2020-06-16 18:30 3.71 1970 7890 (1990) 107 (1972) 1630 150 184 305 327 696 2250 3250 4410 6850
2020-06-16 17:30 2.53 1050 7890 (1990) 107 (1972) 1630 150 184 305 327 696 2250 3250 4410 6850
2020-06-16 16:30 1.84 631 7890 (1990) 107 (1972) 1630 150 184 305 327 696 2250 3250 4410 6850
2020-06-16 15:30 1.82 620 7890 (1990) 107 (1972) 1630 150 184 305 327 696 2250 3250 4410 6850
2020-06-16 14:30 1.89 659 7890 (1990) 107 (1972) 1630 150 184 305 327 696 2250 3250 4410 6850
2020-06-16 13:30 1.95 692 7890 (1990) 107 (1972) 1630 150 184 305 327 696 2250 3250 4410 6850
2020-06-16 12:30 2.02 733 7890 (1990) 107 (1972) 1630 150 184 305 327 696 2250 3250 4410 6850
2020-06-16 11:30 2.08 768 7890 (1990) 107 (1972) 1630 150 184 305 327 696 2250 3250 4410 6850
2020-06-16 10:30 2.18 829 7890 (1990) 107 (1972) 1630 150 184 305 327 696 2250 3250 4410 6850
2020-06-16 09:30 2.27 884 7890 (1990) 107 (1972) 1630 150 184 305 327 696 2250 3250 4410 6850
2020-06-16 08:30 2.37 948 7890 (1990) 107 (1972) 1630 150 184 305 327 696 2250 3250 4410 6850
2020-06-16 07:30 2.47 1010 7890 (1990) 107 (1972) 1630 150 184 305 327 696 2250 3250 4410 6850
2020-06-16 06:30 2.58 1090 7890 (1990) 107 (1972) 1630 150 184 305 327 696 2250 3250 4410 6850
2020-06-16 05:30 2.70 1170 7890 (1990) 107 (1972) 1630 150 184 305 327 696 2250 3250 4410 6850
2020-06-16 04:30 2.83 1270 7890 (1990) 107 (1972) 1630 150 184 305 327 696 2250 3250 4410 6850
2020-06-16 03:30 2.98 1380 7890 (1990) 107 (1972) 1630 150 184 305 327 696 2250 3250 4410 6850
2020-06-16 02:30 3.15 1510 7890 (1990) 107 (1972) 1630 150 184 305 327 696 2250 3250 4410 6850
2020-06-16 01:30 3.32 1640 7890 (1990) 107 (1972) 1630 150 184 305 327 696 2250 3250 4410 6850
2020-06-16 00:30 3.52 1810 7890 (1990) 107 (1972) 1630 150 184 305 327 696 2250 3250 4410 6850
2020-06-15 23:30 3.74 2000 8090 (1990) 122 (1983) 1790 146 169 224 239 629 2130 3940 6250 7170
2020-06-15 22:30 3.94 2160 8090 (1990) 122 (1983) 1790 146 169 224 239 629 2130 3940 6250 7170
2020-06-15 21:30 4.13 2320 8090 (1990) 122 (1983) 1790 146 169 224 239 629 2130 3940 6250 7170
2020-06-15 20:30 4.20 2380 8090 (1990) 122 (1983) 1790 146 169 224 239 629 2130 3940 6250 7170
2020-06-15 19:30 3.79 2040 8090 (1990) 122 (1983) 1790 146 169 224 239 629 2130 3940 6250 7170
2020-06-15 18:30 2.82 1260 8090 (1990) 122 (1983) 1790 146 169 224 239 629 2130 3940 6250 7170
2020-06-15 17:30 2.22 853 8090 (1990) 122 (1983) 1790 146 169 224 239 629 2130 3940 6250 7170
2020-06-15 16:30 2.24 866 8090 (1990) 122 (1983) 1790 146 169 224 239 629 2130 3940 6250 7170
2020-06-15 15:30 2.34 929 8090 (1990) 122 (1983) 1790 146 169 224 239 629 2130 3940 6250 7170
2020-06-15 14:30 2.45 1100 8090 (1990) 122 (1983) 1790 146 169 224 239 629 2130 3940 6250 7170
2020-06-15 13:30 2.56 1170 8090 (1990) 122 (1983) 1790 146 169 224 239 629 2130 3940 6250 7170
2020-06-15 12:30 2.69 1270 8090 (1990) 122 (1983) 1790 146 169 224 239 629 2130 3940 6250 7170
2020-06-15 11:30 2.81 1350 8090 (1990) 122 (1983) 1790 146 169 224 239 629 2130 3940 6250 7170
2020-06-15 10:30 2.97 1480 8090 (1990) 122 (1983) 1790 146 169 224 239 629 2130 3940 6250 7170
2020-06-15 09:30 3.13 1600 8090 (1990) 122 (1983) 1790 146 169 224 239 629 2130 3940 6250 7170
2020-06-15 08:30 3.31 1750 8090 (1990) 122 (1983) 1790 146 169 224 239 629 2130 3940 6250 7170
2020-06-15 07:30 3.51 1920 8090 (1990) 122 (1983) 1790 146 169 224 239 629 2130 3940 6250 7170
2020-06-15 06:30 3.73 2110 8090 (1990) 122 (1983) 1790 146 169 224 239 629 2130 3940 6250 7170
2020-06-15 05:30 3.94 2350 8090 (1990) 122 (1983) 1790 146 169 224 239 629 2130 3940 6250 7170
2020-06-15 04:30 4.19 2670 8090 (1990) 122 (1983) 1790 146 169 224 239 629 2130 3940 6250 7170
2020-06-15 03:30 4.44 2990 8090 (1990) 122 (1983) 1790 146 169 224 239 629 2130 3940 6250 7170
2020-06-15 02:30 4.70 3350 8090 (1990) 122 (1983) 1790 146 169 224 239 629 2130 3940 6250 7170
2020-06-15 01:30 5.01 3800 8090 (1990) 122 (1983) 1790 146 169 224 239 629 2130 3940 6250 7170
2020-06-15 00:30 5.50 4550 8090 (1990) 122 (1983) 1790 146 169 224 239 629 2130 3940 6250 7170
2020-06-14 23:30 6.14 5610 8100 (1990) 147 (1988) 1980 149 201 305 339 687 2350 3270 7130 7540
2020-06-14 22:30 7.23 7050 8100 (1990) 147 (1988) 1980 149 201 305 339 687 2350 3270 7130 7540
2020-06-14 21:30 7.71 7510 8100 (1990) 147 (1988) 1980 149 201 305 339 687 2350 3270 7130 7540
2020-06-14 20:30 7.66 7460 8100 (1990) 147 (1988) 1980 149 201 305 339 687 2350 3270 7130 7540
2020-06-14 19:30 7.49 7300 8100 (1990) 147 (1988) 1980 149 201 305 339 687 2350 3270 7130 7540
2020-06-14 18:30 7.10 6930 8100 (1990) 147 (1988) 1980 149 201 305 339 687 2350 3270 7130 7540
2020-06-14 17:30 6.12 5580 8100 (1990) 147 (1988) 1980 149 201 305 339 687 2350 3270 7130 7540
2020-06-14 16:30 5.14 3990 8100 (1990) 147 (1988) 1980 149 201 305 339 687 2350 3270 7130 7540
2020-06-14 15:30 4.72 3380 8100 (1990) 147 (1988) 1980 149 201 305 339 687 2350 3270 7130 7540
2020-06-14 14:30 4.19 2670 8100 (1990) 147 (1988) 1980 149 201 305 339 687 2350 3270 7130 7540
2020-06-14 13:30 3.25 1700 8100 (1990) 147 (1988) 1980 149 201 305 339 687 2350 3270 7130 7540
2020-06-14 12:30 2.55 1160 8100 (1990) 147 (1988) 1980 149 201 305 339 687 2350 3270 7130 7540
2020-06-14 11:30 2.51 1140 8100 (1990) 147 (1988) 1980 149 201 305 339 687 2350 3270 7130 7540
2020-06-14 10:30 2.62 1210 8100 (1990) 147 (1988) 1980 149 201 305 339 687 2350 3270 7130 7540
2020-06-14 09:30 2.75 1310 8100 (1990) 147 (1988) 1980 149 201 305 339 687 2350 3270 7130 7540
2020-06-14 08:30 2.89 1410 8100 (1990) 147 (1988) 1980 149 201 305 339 687 2350 3270 7130 7540
2020-06-14 07:30 3.05 1540 8100 (1990) 147 (1988) 1980 149 201 305 339 687 2350 3270 7130 7540
2020-06-14 06:30 3.22 1670 8100 (1990) 147 (1988) 1980 149 201 305 339 687 2350 3270 7130 7540
2020-06-14 05:30 3.40 1820 8100 (1990) 147 (1988) 1980 149 201 305 339 687 2350 3270 7130 7540
2020-06-14 04:30 3.60 2000 8100 (1990) 147 (1988) 1980 149 201 305 339 687 2350 3270 7130 7540
2020-06-14 03:30 3.84 2230 8100 (1990) 147 (1988) 1980 149 201 305 339 687 2350 3270 7130 7540
2020-06-14 02:30 4.05 2490 8100 (1990) 147 (1988) 1980 149 201 305 339 687 2350 3270 7130 7540
2020-06-14 01:30 4.29 2790 8100 (1990) 147 (1988) 1980 149 201 305 339 687 2350 3270 7130 7540
2020-06-14 00:30 4.53 3110 8100 (1990) 147 (1988) 1980 149 201 305 339 687 2350 3270 7130 7540
2020-06-13 23:30 4.76 3430 8110 (1990) 133 (2004) 1970 151 162 233 268 710 2440 4930 6590 7210
2020-06-13 22:30 4.95 3710 8110 (1990) 133 (2004) 1970 151 162 233 268 710 2440 4930 6590 7210
2020-06-13 21:30 5.11 3950 8110 (1990) 133 (2004) 1970 151 162 233 268 710 2440 4930 6590 7210
2020-06-13 20:30 5.13 3980 8110 (1990) 133 (2004) 1970 151 162 233 268 710 2440 4930 6590 7210
2020-06-13 19:30 4.85 3560 8110 (1990) 133 (2004) 1970 151 162 233 268 710 2440 4930 6590 7210
2020-06-13 18:30 4.40 2940 8110 (1990) 133 (2004) 1970 151 162 233 268 710 2440 4930 6590 7210
2020-06-13 17:30 3.69 2080 8110 (1990) 133 (2004) 1970 151 162 233 268 710 2440 4930 6590 7210
2020-06-13 16:30 2.91 1430 8110 (1990) 133 (2004) 1970 151 162 233 268 710 2440 4930 6590 7210
2020-06-13 15:30 2.19 923 8110 (1990) 133 (2004) 1970 151 162 233 268 710 2440 4930 6590 7210
2020-06-13 14:30 1.78 675 8110 (1990) 133 (2004) 1970 151 162 233 268 710 2440 4930 6590 7210
2020-06-13 13:30 1.74 653 8110 (1990) 133 (2004) 1970 151 162 233 268 710 2440 4930 6590 7210
2020-06-13 12:30 1.77 670 8110 (1990) 133 (2004) 1970 151 162 233 268 710 2440 4930 6590 7210
2020-06-13 11:30 1.85 715 8110 (1990) 133 (2004) 1970 151 162 233 268 710 2440 4930 6590 7210
2020-06-13 10:30 1.91 750 8110 (1990) 133 (2004) 1970 151 162 233 268 710 2440 4930 6590 7210
2020-06-13 09:30 1.97 786 8110 (1990) 133 (2004) 1970 151 162 233 268 710 2440 4930 6590 7210
2020-06-13 08:30 2.05 835 8110 (1990) 133 (2004) 1970 151 162 233 268 710 2440 4930 6590 7210
2020-06-13 07:30 2.12 878 8110 (1990) 133 (2004) 1970 151 162 233 268 710 2440 4930 6590 7210
2020-06-13 06:30 2.20 929 8110 (1990) 133 (2004) 1970 151 162 233 268 710 2440 4930 6590 7210
2020-06-13 05:30 2.29 988 8110 (1990) 133 (2004) 1970 151 162 233 268 710 2440 4930 6590 7210
2020-06-13 04:30 2.37 1040 8110 (1990) 133 (2004) 1970 151 162 233 268 710 2440 4930 6590 7210
2020-06-13 03:30 2.48 1120 8110 (1990) 133 (2004) 1970 151 162 233 268 710 2440 4930 6590 7210
2020-06-13 02:30 2.59 1190 8110 (1990) 133 (2004) 1970 151 162 233 268 710 2440 4930 6590 7210
2020-06-13 01:30 2.71 1280 8110 (1990) 133 (2004) 1970 151 162 233 268 710 2440 4930 6590 7210
2020-06-13 00:30 2.85 1380 8110 (1990) 133 (2004) 1970 151 162 233 268 710 2440 4930 6590 7210
2020-06-12 23:30 2.98 1480 8100 (1990) 120 (1983) 1910 150 172 305 334 703 2640 4350 6420 7200
2020-06-12 22:30 3.13 1600 8100 (1990) 120 (1983) 1910 150 172 305 334 703 2640 4350 6420 7200
2020-06-12 21:30 3.21 1670 8100 (1990) 120 (1983) 1910 150 172 305 334 703 2640 4350 6420 7200
2020-06-12 20:30 3.16 1630 8100 (1990) 120 (1983) 1910 150 172 305 334 703 2640 4350 6420 7200
2020-06-12 19:30 2.74 1300 8100 (1990) 120 (1983) 1910 150 172 305 334 703 2640 4350 6420 7200
2020-06-12 18:30 2.07 847 8100 (1990) 120 (1983) 1910 150 172 305 334 703 2640 4350 6420 7200
2020-06-12 17:30 1.58 566 8100 (1990) 120 (1983) 1910 150 172 305 334 703 2640 4350 6420 7200
2020-06-12 16:30 1.47 510 8100 (1990) 120 (1983) 1910 150 172 305 334 703 2640 4350 6420 7200
2020-06-12 15:30 1.49 520 8100 (1990) 120 (1983) 1910 150 172 305 334 703 2640 4350 6420 7200
2020-06-12 14:30 1.52 535 8100 (1990) 120 (1983) 1910 150 172 305 334 703 2640 4350 6420 7200
2020-06-12 13:30 1.56 556 8100 (1990) 120 (1983) 1910 150 172 305 334 703 2640 4350 6420 7200
2020-06-12 12:30 1.58 566 8100 (1990) 120 (1983) 1910 150 172 305 334 703 2640 4350 6420 7200
2020-06-12 11:30 1.63 593 8100 (1990) 120 (1983) 1910 150 172 305 334 703 2640 4350 6420 7200
2020-06-12 10:30 1.66 609 8100 (1990) 120 (1983) 1910 150 172 305 334 703 2640 4350 6420 7200
2020-06-12 09:30 1.71 636 8100 (1990) 120 (1983) 1910 150 172 305 334 703 2640 4350 6420 7200
2020-06-12 08:30 1.75 659 8100 (1990) 120 (1983) 1910 150 172 305 334 703 2640 4350 6420 7200
2020-06-12 07:30 1.80 687 8100 (1990) 120 (1983) 1910 150 172 305 334 703 2640 4350 6420 7200
2020-06-12 06:30 1.85 715 8100 (1990) 120 (1983) 1910 150 172 305 334 703 2640 4350 6420 7200
2020-06-12 05:30 1.90 745 8100 (1990) 120 (1983) 1910 150 172 305 334 703 2640 4350 6420 7200
2020-06-12 04:30 1.96 780 8100 (1990) 120 (1983) 1910 150 172 305 334 703 2640 4350 6420 7200
2020-06-12 03:30 2.03 822 8100 (1990) 120 (1983) 1910 150 172 305 334 703 2640 4350 6420 7200
2020-06-12 02:30 2.10 866 8100 (1990) 120 (1983) 1910 150 172 305 334 703 2640 4350 6420 7200
2020-06-12 01:30 2.17 910 8100 (1990) 120 (1983) 1910 150 172 305 334 703 2640 4350 6420 7200
2020-06-12 00:30 2.24 955 8100 (1990) 120 (1983) 1910 150 172 305 334 703 2640 4350 6420 7200
2020-06-11 23:30 2.31 1000 8150 (1982) 151 (1978) 1950 161 184 235 292 603 2220 4750 6720 7690
2020-06-11 22:30 2.35 1030 8150 (1982) 151 (1978) 1950 161 184 235 292 603 2220 4750 6720 7690
2020-06-11 21:30 2.31 1000 8150 (1982) 151 (1978) 1950 161 184 235 292 603 2220 4750 6720 7690
2020-06-11 20:30 2.17 910 8150 (1982) 151 (1978) 1950 161 184 235 292 603 2220 4750 6720 7690
2020-06-11 19:30 1.96 780 8150 (1982) 151 (1978) 1950 161 184 235 292 603 2220 4750 6720 7690
2020-06-11 18:30 1.91 750 8150 (1982) 151 (1978) 1950 161 184 235 292 603 2220 4750 6720 7690
2020-06-11 17:30 1.92 756 8150 (1982) 151 (1978) 1950 161 184 235 292 603 2220 4750 6720 7690
2020-06-11 16:30 2.01 810 8150 (1982) 151 (1978) 1950 161 184 235 292 603 2220 4750 6720 7690
2020-06-11 15:30 2.03 822 8150 (1982) 151 (1978) 1950 161 184 235 292 603 2220 4750 6720 7690
2020-06-11 14:30 2.00 804 8150 (1982) 151 (1978) 1950 161 184 235 292 603 2220 4750 6720 7690
2020-06-11 13:30 1.89 739 8150 (1982) 151 (1978) 1950 161 184 235 292 603 2220 4750 6720 7690
2020-06-11 12:30 1.68 620 8150 (1982) 151 (1978) 1950 161 184 235 292 603 2220 4750 6720 7690
2020-06-11 11:30 1.50 525 8150 (1982) 151 (1978) 1950 161 184 235 292 603 2220 4750 6720 7690
2020-06-11 10:30 1.48 515 8150 (1982) 151 (1978) 1950 161 184 235 292 603 2220 4750 6720 7690
2020-06-11 09:30 1.51 530 8150 (1982) 151 (1978) 1950 161 184 235 292 603 2220 4750 6720 7690
2020-06-11 08:30 1.53 540 8150 (1982) 151 (1978) 1950 161 184 235 292 603 2220 4750 6720 7690
2020-06-11 07:30 1.56 556 8150 (1982) 151 (1978) 1950 161 184 235 292 603 2220 4750 6720 7690
2020-06-11 06:30 1.59 572 8150 (1982) 151 (1978) 1950 161 184 235 292 603 2220 4750 6720 7690
2020-06-11 05:30 1.61 582 8150 (1982) 151 (1978) 1950 161 184 235 292 603 2220 4750 6720 7690
2020-06-11 04:30 1.65 604 8150 (1982) 151 (1978) 1950 161 184 235 292 603 2220 4750 6720 7690
2020-06-11 03:30 1.69 625 8150 (1982) 151 (1978) 1950 161 184 235 292 603 2220 4750 6720 7690
2020-06-11 02:30 1.72 642 8150 (1982) 151 (1978) 1950 161 184 235 292 603 2220 4750 6720 7690
2020-06-11 01:30 1.77 670 8150 (1982) 151 (1978) 1950 161 184 235 292 603 2220 4750 6720 7690
2020-06-11 00:30 1.81 692 8150 (1982) 151 (1978) 1950 161 184 235 292 603 2220 4750 6720 7690
2020-06-10 23:30 1.86 721 8020 (1982) 129 (1984) 1670 152 177 257 302 578 2010 2420 6210 7690
2020-06-10 22:30 1.91 750 8020 (1982) 129 (1984) 1670 152 177 257 302 578 2010 2420 6210 7690
2020-06-10 21:30 1.98 792 8020 (1982) 129 (1984) 1670 152 177 257 302 578 2010 2420 6210 7690
2020-06-10 20:30 2.04 829 8020 (1982) 129 (1984) 1670 152 177 257 302 578 2010 2420 6210 7690
2020-06-10 19:30 2.12 878 8020 (1982) 129 (1984) 1670 152 177 257 302 578 2010 2420 6210 7690
2020-06-10 18:30 2.20 929 8020 (1982) 129 (1984) 1670 152 177 257 302 578 2010 2420 6210 7690
2020-06-10 17:30 2.29 988 8020 (1982) 129 (1984) 1670 152 177 257 302 578 2010 2420 6210 7690
2020-06-10 16:30 2.39 1050 8020 (1982) 129 (1984) 1670 152 177 257 302 578 2010 2420 6210 7690
2020-06-10 15:30 2.50 1130 8020 (1982) 129 (1984) 1670 152 177 257 302 578 2010 2420 6210 7690
2020-06-10 14:30 2.61 1210 8020 (1982) 129 (1984) 1670 152 177 257 302 578 2010 2420 6210 7690
2020-06-10 13:30 2.75 1310 8020 (1982) 129 (1984) 1670 152 177 257 302 578 2010 2420 6210 7690
2020-06-10 12:30 2.90 1420 8020 (1982) 129 (1984) 1670 152 177 257 302 578 2010 2420 6210 7690
2020-06-10 11:30 3.04 1530 8020 (1982) 129 (1984) 1670 152 177 257 302 578 2010 2420 6210 7690
2020-06-10 10:30 3.22 1670 8020 (1982) 129 (1984) 1670 152 177 257 302 578 2010 2420 6210 7690
2020-06-10 09:30 3.43 1850 8020 (1982) 129 (1984) 1670 152 177 257 302 578 2010 2420 6210 7690
2020-06-10 08:30 3.64 2030 8020 (1982) 129 (1984) 1670 152 177 257 302 578 2010 2420 6210 7690
2020-06-10 07:30 3.87 2270 8020 (1982) 129 (1984) 1670 152 177 257 302 578 2010 2420 6210 7690
2020-06-10 06:30 4.12 2580 8020 (1982) 129 (1984) 1670 152 177 257 302 578 2010 2420 6210 7690
2020-06-10 05:30 4.35 2870 8020 (1982) 129 (1984) 1670 152 177 257 302 578 2010 2420 6210 7690
2020-06-10 04:30 4.59 3200 8020 (1982) 129 (1984) 1670 152 177 257 302 578 2010 2420 6210 7690
2020-06-10 03:30 4.87 3590 8020 (1982) 129 (1984) 1670 152 177 257 302 578 2010 2420 6210 7690
2020-06-10 02:30 5.19 4070 8020 (1982) 129 (1984) 1670 152 177 257 302 578 2010 2420 6210 7690
2020-06-10 01:30 5.77 4990 8020 (1982) 129 (1984) 1670 152 177 257 302 578 2010 2420 6210 7690
2020-06-10 00:30 6.52 6270 8020 (1982) 129 (1984) 1670 152 177 257 302 578 2010 2420 6210 7690
2020-06-09 23:30 7.41 7220 7970 (1990) 145 (1977) 1570 165 178 251 275 562 2150 2440 4280 7480
2020-06-09 22:30 7.60 7400 7970 (1990) 145 (1977) 1570 165 178 251 275 562 2150 2440 4280 7480
2020-06-09 21:30 7.42 7230 7970 (1990) 145 (1977) 1570 165 178 251 275 562 2150 2440 4280 7480
2020-06-09 20:30 6.99 6830 7970 (1990) 145 (1977) 1570 165 178 251 275 562 2150 2440 4280 7480
2020-06-09 19:30 5.91 5220 7970 (1990) 145 (1977) 1570 165 178 251 275 562 2150 2440 4280 7480
2020-06-09 18:30 5.06 3870 7970 (1990) 145 (1977) 1570 165 178 251 275 562 2150 2440 4280 7480
2020-06-09 17:30 4.65 3280 7970 (1990) 145 (1977) 1570 165 178 251 275 562 2150 2440 4280 7480
2020-06-09 16:30 4.00 2430 7970 (1990) 145 (1977) 1570 165 178 251 275 562 2150 2440 4280 7480
2020-06-09 15:30 2.96 1470 7970 (1990) 145 (1977) 1570 165 178 251 275 562 2150 2440 4280 7480
2020-06-09 14:30 2.13 884 7970 (1990) 145 (1977) 1570 165 178 251 275 562 2150 2440 4280 7480
2020-06-09 13:30 2.09 859 7970 (1990) 145 (1977) 1570 165 178 251 275 562 2150 2440 4280 7480
2020-06-09 12:30 2.14 891 7970 (1990) 145 (1977) 1570 165 178 251 275 562 2150 2440 4280 7480
2020-06-09 11:30 2.26 968 7970 (1990) 145 (1977) 1570 165 178 251 275 562 2150 2440 4280 7480
2020-06-09 10:30 2.36 1030 7970 (1990) 145 (1977) 1570 165 178 251 275 562 2150 2440 4280 7480
2020-06-09 09:30 2.46 1100 7970 (1990) 145 (1977) 1570 165 178 251 275 562 2150 2440 4280 7480
2020-06-09 08:30 2.58 1190 7970 (1990) 145 (1977) 1570 165 178 251 275 562 2150 2440 4280 7480
2020-06-09 07:30 2.69 1270 7970 (1990) 145 (1977) 1570 165 178 251 275 562 2150 2440 4280 7480
2020-06-09 06:30 2.83 1370 7970 (1990) 145 (1977) 1570 165 178 251 275 562 2150 2440 4280 7480
2020-06-09 05:30 2.98 1480 7970 (1990) 145 (1977) 1570 165 178 251 275 562 2150 2440 4280 7480
2020-06-09 04:30 3.14 1610 7970 (1990) 145 (1977) 1570 165 178 251 275 562 2150 2440 4280 7480
2020-06-09 03:30 3.32 1760 7970 (1990) 145 (1977) 1570 165 178 251 275 562 2150 2440 4280 7480
2020-06-09 02:30 3.52 1930 7970 (1990) 145 (1977) 1570 165 178 251 275 562 2150 2440 4280 7480
2020-06-09 01:30 3.74 2120 7970 (1990) 145 (1977) 1570 165 178 251 275 562 2150 2440 4280 7480
2020-06-09 00:30 3.96 2380 7970 (1990) 145 (1977) 1570 165 178 251 275 562 2150 2440 4280 7480
2020-06-08 23:30 4.20 2680 7300 (2013) 143 (2001) 1570 149 168 221 327 744 1940 2180 6020 7180
2020-06-08 22:30 4.44 2990 7300 (2013) 143 (2001) 1570 149 168 221 327 744 1940 2180 6020 7180
2020-06-08 21:30 4.67 3310 7300 (2013) 143 (2001) 1570 149 168 221 327 744 1940 2180 6020 7180
2020-06-08 20:30 4.92 3660 7300 (2013) 143 (2001) 1570 149 168 221 327 744 1940 2180 6020 7180
2020-06-08 19:30 5.20 4080 7300 (2013) 143 (2001) 1570 149 168 221 327 744 1940 2180 6020 7180
2020-06-08 18:30 5.44 4450 7300 (2013) 143 (2001) 1570 149 168 221 327 744 1940 2180 6020 7180
2020-06-08 17:30 5.70 4870 7300 (2013) 143 (2001) 1570 149 168 221 327 744 1940 2180 6020 7180
2020-06-08 16:30 6.10 5540 7300 (2013) 143 (2001) 1570 149 168 221 327 744 1940 2180 6020 7180
2020-06-08 15:30 6.68 6540 7300 (2013) 143 (2001) 1570 149 168 221 327 744 1940 2180 6020 7180
2020-06-08 14:30 7.48 7290 7300 (2013) 143 (2001) 1570 149 168 221 327 744 1940 2180 6020 7180
2020-06-08 13:30 7.77 7570 7300 (2013) 143 (2001) 1570 149 168 221 327 744 1940 2180 6020 7180
2020-06-08 12:30 7.74 7540 7300 (2013) 143 (2001) 1570 149 168 221 327 744 1940 2180 6020 7180
2020-06-08 11:30 7.72 7520 7300 (2013) 143 (2001) 1570 149 168 221 327 744 1940 2180 6020 7180
2020-06-08 10:30 7.76 7560 7300 (2013) 143 (2001) 1570 149 168 221 327 744 1940 2180 6020 7180
2020-06-08 09:30 7.73 7530 7300 (2013) 143 (2001) 1570 149 168 221 327 744 1940 2180 6020 7180
2020-06-08 08:30 7.75 7550 7300 (2013) 143 (2001) 1570 149 168 221 327 744 1940 2180 6020 7180
2020-06-08 07:30 7.72 7520 7300 (2013) 143 (2001) 1570 149 168 221 327 744 1940 2180 6020 7180
2020-06-08 06:30 7.73 7530 7300 (2013) 143 (2001) 1570 149 168 221 327 744 1940 2180 6020 7180
2020-06-08 05:30 7.73 7530 7300 (2013) 143 (2001) 1570 149 168 221 327 744 1940 2180 6020 7180
2020-06-08 04:30 7.72 7520 7300 (2013) 143 (2001) 1570 149 168 221 327 744 1940 2180 6020 7180
2020-06-08 03:30 7.73 7530 7300 (2013) 143 (2001) 1570 149 168 221 327 744 1940 2180 6020 7180
2020-06-08 02:30 7.72 7520 7300 (2013) 143 (2001) 1570 149 168 221 327 744 1940 2180 6020 7180
2020-06-08 01:30 7.72 7520 7300 (2013) 143 (2001) 1570 149 168 221 327 744 1940 2180 6020 7180
2020-06-08 00:30 7.74 7540 7300 (2013) 143 (2001) 1570 149 168 221 327 744 1940 2180 6020 7180
2020-06-07 23:30 7.73 7530 7270 (2013) 144 (2001) 1660 148 168 294 331 871 2220 2520 5610 6950
2020-06-07 22:30 7.70 7500 7270 (2013) 144 (2001) 1660 148 168 294 331 871 2220 2520 5610 6950
2020-06-07 21:30 7.71 7510 7270 (2013) 144 (2001) 1660 148 168 294 331 871 2220 2520 5610 6950
2020-06-07 20:30 7.70 7500 7270 (2013) 144 (2001) 1660 148 168 294 331 871 2220 2520 5610 6950
2020-06-07 19:30 7.71 7510 7270 (2013) 144 (2001) 1660 148 168 294 331 871 2220 2520 5610 6950
2020-06-07 18:30 7.72 7520 7270 (2013) 144 (2001) 1660 148 168 294 331 871 2220 2520 5610 6950
2020-06-07 17:30 7.70 7500 7270 (2013) 144 (2001) 1660 148 168 294 331 871 2220 2520 5610 6950
2020-06-07 16:30 7.72 7520 7270 (2013) 144 (2001) 1660 148 168 294 331 871 2220 2520 5610 6950
2020-06-07 15:30 7.74 7540 7270 (2013) 144 (2001) 1660 148 168 294 331 871 2220 2520 5610 6950
2020-06-07 14:30 7.81 7610 7270 (2013) 144 (2001) 1660 148 168 294 331 871 2220 2520 5610 6950
2020-06-07 13:30 7.72 7520 7270 (2013) 144 (2001) 1660 148 168 294 331 871 2220 2520 5610 6950
2020-06-07 12:30 7.73 7530 7270 (2013) 144 (2001) 1660 148 168 294 331 871 2220 2520 5610 6950
2020-06-07 11:30 7.75 7550 7270 (2013) 144 (2001) 1660 148 168 294 331 871 2220 2520 5610 6950
2020-06-07 10:30 7.72 7520 7270 (2013) 144 (2001) 1660 148 168 294 331 871 2220 2520 5610 6950
2020-06-07 09:30 7.74 7540 7270 (2013) 144 (2001) 1660 148 168 294 331 871 2220 2520 5610 6950
2020-06-07 08:30 7.69 7490 7270 (2013) 144 (2001) 1660 148 168 294 331 871 2220 2520 5610 6950
2020-06-07 07:30 7.71 7510 7270 (2013) 144 (2001) 1660 148 168 294 331 871 2220 2520 5610 6950
2020-06-07 06:30 7.73 7530 7270 (2013) 144 (2001) 1660 148 168 294 331 871 2220 2520 5610 6950
2020-06-07 05:30 7.69 7490 7270 (2013) 144 (2001) 1660 148 168 294 331 871 2220 2520 5610 6950
2020-06-07 04:30 7.73 7530 7270 (2013) 144 (2001) 1660 148 168 294 331 871 2220 2520 5610 6950
2020-06-07 03:30 7.72 7520 7270 (2013) 144 (2001) 1660 148 168 294 331 871 2220 2520 5610 6950
2020-06-07 02:30 7.72 7520 7270 (2013) 144 (2001) 1660 148 168 294 331 871 2220 2520 5610 6950
2020-06-07 01:30 7.71 7510 7270 (2013) 144 (2001) 1660 148 168 294 331 871 2220 2520 5610 6950
2020-06-06 23:30 7.71 7510 7100 (2009) 144 (2011) 1570 162 183 263 305 705 2400 2920 4010 6350
2020-06-06 22:30 7.71 7510 7100 (2009) 144 (2011) 1570 162 183 263 305 705 2400 2920 4010 6350
2020-06-06 21:30 7.70 7500 7100 (2009) 144 (2011) 1570 162 183 263 305 705 2400 2920 4010 6350
2020-06-06 20:30 7.69 7490 7100 (2009) 144 (2011) 1570 162 183 263 305 705 2400 2920 4010 6350
2020-06-06 19:30 7.68 7480 7100 (2009) 144 (2011) 1570 162 183 263 305 705 2400 2920 4010 6350
2020-06-06 18:30 7.69 7490 7100 (2009) 144 (2011) 1570 162 183 263 305 705 2400 2920 4010 6350
2020-06-06 17:30 7.68 7480 7100 (2009) 144 (2011) 1570 162 183 263 305 705 2400 2920 4010 6350
2020-06-06 16:30 7.71 7510 7100 (2009) 144 (2011) 1570 162 183 263 305 705 2400 2920 4010 6350
2020-06-06 15:30 7.70 7500 7100 (2009) 144 (2011) 1570 162 183 263 305 705 2400 2920 4010 6350
2020-06-06 14:30 7.69 7490 7100 (2009) 144 (2011) 1570 162 183 263 305 705 2400 2920 4010 6350
2020-06-06 13:30 7.68 7480 7100 (2009) 144 (2011) 1570 162 183 263 305 705 2400 2920 4010 6350
2020-06-06 12:30 7.71 7510 7100 (2009) 144 (2011) 1570 162 183 263 305 705 2400 2920 4010 6350
2020-06-06 11:30 7.68 7480 7100 (2009) 144 (2011) 1570 162 183 263 305 705 2400 2920 4010 6350
2020-06-06 10:30 7.70 7500 7100 (2009) 144 (2011) 1570 162 183 263 305 705 2400 2920 4010 6350
2020-06-06 09:30 7.69 7490 7100 (2009) 144 (2011) 1570 162 183 263 305 705 2400 2920 4010 6350
2020-06-06 08:30 7.71 7510 7100 (2009) 144 (2011) 1570 162 183 263 305 705 2400 2920 4010 6350
2020-06-06 07:30 7.69 7490 7100 (2009) 144 (2011) 1570 162 183 263 305 705 2400 2920 4010 6350
2020-06-06 06:30 7.71 7510 7100 (2009) 144 (2011) 1570 162 183 263 305 705 2400 2920 4010 6350
2020-06-06 05:30 7.70 7500 7100 (2009) 144 (2011) 1570 162 183 263 305 705 2400 2920 4010 6350
2020-06-06 04:30 7.71 7510 7100 (2009) 144 (2011) 1570 162 183 263 305 705 2400 2920 4010 6350
2020-06-06 03:30 7.68 7480 7100 (2009) 144 (2011) 1570 162 183 263 305 705 2400 2920 4010 6350
2020-06-06 02:30 7.68 7480 7100 (2009) 144 (2011) 1570 162 183 263 305 705 2400 2920 4010 6350
2020-06-06 01:30 7.67 7470 7100 (2009) 144 (2011) 1570 162 183 263 305 705 2400 2920 4010 6350
2020-06-06 00:30 7.68 7480 7100 (2009) 144 (2011) 1570 162 183 263 305 705 2400 2920 4010 6350
2020-06-05 23:30 7.67 7470 7190 (2013) 164 (2005) 1610 177 219 299 327 693 2020 2650 5660 6920
2020-06-05 22:30 7.70 7500 7190 (2013) 164 (2005) 1610 177 219 299 327 693 2020 2650 5660 6920
2020-06-05 21:30 7.69 7490 7190 (2013) 164 (2005) 1610 177 219 299 327 693 2020 2650 5660 6920
2020-06-05 20:30 7.68 7480 7190 (2013) 164 (2005) 1610 177 219 299 327 693 2020 2650 5660 6920
2020-06-05 19:30 7.67 7470 7190 (2013) 164 (2005) 1610 177 219 299 327 693 2020 2650 5660 6920
2020-06-05 18:30 7.69 7490 7190 (2013) 164 (2005) 1610 177 219 299 327 693 2020 2650 5660 6920
2020-06-05 17:30 7.69 7490 7190 (2013) 164 (2005) 1610 177 219 299 327 693 2020 2650 5660 6920
2020-06-05 16:30 7.71 7510 7190 (2013) 164 (2005) 1610 177 219 299 327 693 2020 2650 5660 6920
2020-06-05 15:30 7.69 7490 7190 (2013) 164 (2005) 1610 177 219 299 327 693 2020 2650 5660 6920
2020-06-05 14:30 7.70 7500 7190 (2013) 164 (2005) 1610 177 219 299 327 693 2020 2650 5660 6920
2020-06-05 13:30 7.70 7500 7190 (2013) 164 (2005) 1610 177 219 299 327 693 2020 2650 5660 6920
2020-06-05 12:30 7.71 7510 7190 (2013) 164 (2005) 1610 177 219 299 327 693 2020 2650 5660 6920
2020-06-05 11:30 7.69 7490 7190 (2013) 164 (2005) 1610 177 219 299 327 693 2020 2650 5660 6920
2020-06-05 10:30 7.70 7500 7190 (2013) 164 (2005) 1610 177 219 299 327 693 2020 2650 5660 6920
2020-06-05 09:30 7.70 7500 7190 (2013) 164 (2005) 1610 177 219 299 327 693 2020 2650 5660 6920
2020-06-05 08:30 7.71 7510 7190 (2013) 164 (2005) 1610 177 219 299 327 693 2020 2650 5660 6920
2020-06-05 07:30 7.72 7520 7190 (2013) 164 (2005) 1610 177 219 299 327 693 2020 2650 5660 6920
2020-06-05 06:30 7.69 7490 7190 (2013) 164 (2005) 1610 177 219 299 327 693 2020 2650 5660 6920
2020-06-05 05:30 7.70 7500 7190 (2013) 164 (2005) 1610 177 219 299 327 693 2020 2650 5660 6920
2020-06-05 04:30 7.67 7470 7190 (2013) 164 (2005) 1610 177 219 299 327 693 2020 2650 5660 6920
2020-06-05 03:30 7.68 7480 7190 (2013) 164 (2005) 1610 177 219 299 327 693 2020 2650 5660 6920
2020-06-05 02:30 7.69 7490 7190 (2013) 164 (2005) 1610 177 219 299 327 693 2020 2650 5660 6920
2020-06-05 00:30 7.66 7460 7190 (2013) 164 (2005) 1610 177 219 299 327 693 2020 2650 5660 6920
2020-06-04 23:30 7.67 7470 7160 (2013) 110 (1978) 1730 147 211 257 276 663 2490 2930 6050 6850
2020-06-04 22:30 7.67 7470 7160 (2013) 110 (1978) 1730 147 211 257 276 663 2490 2930 6050 6850
2020-06-04 21:30 7.69 7490 7160 (2013) 110 (1978) 1730 147 211 257 276 663 2490 2930 6050 6850
2020-06-04 20:30 7.65 7450 7160 (2013) 110 (1978) 1730 147 211 257 276 663 2490 2930 6050 6850
2020-06-04 19:30 7.66 7460 7160 (2013) 110 (1978) 1730 147 211 257 276 663 2490 2930 6050 6850
2020-06-04 18:30 7.66 7460 7160 (2013) 110 (1978) 1730 147 211 257 276 663 2490 2930 6050 6850
2020-06-04 17:30 7.67 7470 7160 (2013) 110 (1978) 1730 147 211 257 276 663 2490 2930 6050 6850
2020-06-04 16:30 7.69 7490 7160 (2013) 110 (1978) 1730 147 211 257 276 663 2490 2930 6050 6850
2020-06-04 15:30 7.68 7480 7160 (2013) 110 (1978) 1730 147 211 257 276 663 2490 2930 6050 6850
2020-06-04 14:30 7.68 7480 7160 (2013) 110 (1978) 1730 147 211 257 276 663 2490 2930 6050 6850
2020-06-04 13:30 7.69 7490 7160 (2013) 110 (1978) 1730 147 211 257 276 663 2490 2930 6050 6850
2020-06-04 12:30 7.69 7490 7160 (2013) 110 (1978) 1730 147 211 257 276 663 2490 2930 6050 6850
2020-06-04 11:30 7.70 7500 7160 (2013) 110 (1978) 1730 147 211 257 276 663 2490 2930 6050 6850
2020-06-04 10:30 7.68 7480 7160 (2013) 110 (1978) 1730 147 211 257 276 663 2490 2930 6050 6850
2020-06-04 09:30 7.68 7480 7160 (2013) 110 (1978) 1730 147 211 257 276 663 2490 2930 6050 6850
2020-06-04 08:30 7.68 7480 7160 (2013) 110 (1978) 1730 147 211 257 276 663 2490 2930 6050 6850
2020-06-04 07:30 7.67 7470 7160 (2013) 110 (1978) 1730 147 211 257 276 663 2490 2930 6050 6850
2020-06-04 06:30 7.66 7460 7160 (2013) 110 (1978) 1730 147 211 257 276 663 2490 2930 6050 6850
2020-06-04 05:30 7.68 7480 7160 (2013) 110 (1978) 1730 147 211 257 276 663 2490 2930 6050 6850
2020-06-04 04:30 7.68 7480 7160 (2013) 110 (1978) 1730 147 211 257 276 663 2490 2930 6050 6850
2020-06-04 03:30 7.67 7470 7160 (2013) 110 (1978) 1730 147 211 257 276 663 2490 2930 6050 6850
2020-06-04 02:30 7.67 7470 7160 (2013) 110 (1978) 1730 147 211 257 276 663 2490 2930 6050 6850
2020-06-04 01:30 7.67 7470 7160 (2013) 110 (1978) 1730 147 211 257 276 663 2490 2930 6050 6850
2020-06-04 00:30 7.67 7470 7160 (2013) 110 (1978) 1730 147 211 257 276 663 2490 2930 6050 6850
2020-06-03 23:30 7.65 7450 6990 (2009) 155 (1984) 1680 168 209 252 281 1020 2150 2830 4940 6390
2020-06-03 22:30 7.64 7440 6990 (2009) 155 (1984) 1680 168 209 252 281 1020 2150 2830 4940 6390
2020-06-03 21:30 7.64 7440 6990 (2009) 155 (1984) 1680 168 209 252 281 1020 2150 2830 4940 6390
2020-06-03 20:30 7.67 7470 6990 (2009) 155 (1984) 1680 168 209 252 281 1020 2150 2830 4940 6390
2020-06-03 19:30 7.68 7480 6990 (2009) 155 (1984) 1680 168 209 252 281 1020 2150 2830 4940 6390
2020-06-03 18:30 7.66 7460 6990 (2009) 155 (1984) 1680 168 209 252 281 1020 2150 2830 4940 6390
2020-06-03 17:30 7.68 7480 6990 (2009) 155 (1984) 1680 168 209 252 281 1020 2150 2830 4940 6390
2020-06-03 16:30 7.66 7460 6990 (2009) 155 (1984) 1680 168 209 252 281 1020 2150 2830 4940 6390
2020-06-03 15:30 7.65 7450 6990 (2009) 155 (1984) 1680 168 209 252 281 1020 2150 2830 4940 6390
2020-06-03 14:30 7.64 7440 6990 (2009) 155 (1984) 1680 168 209 252 281 1020 2150 2830 4940 6390
2020-06-03 13:30 7.69 7490 6990 (2009) 155 (1984) 1680 168 209 252 281 1020 2150 2830 4940 6390
2020-06-03 12:30 7.68 7480 6990 (2009) 155 (1984) 1680 168 209 252 281 1020 2150 2830 4940 6390
2020-06-03 11:30 7.70 7500 6990 (2009) 155 (1984) 1680 168 209 252 281 1020 2150 2830 4940 6390
2020-06-03 10:30 7.66 7460 6990 (2009) 155 (1984) 1680 168 209 252 281 1020 2150 2830 4940 6390
2020-06-03 09:30 7.67 7470 6990 (2009) 155 (1984) 1680 168 209 252 281 1020 2150 2830 4940 6390
2020-06-03 08:30 7.67 7470 6990 (2009) 155 (1984) 1680 168 209 252 281 1020 2150 2830 4940 6390
2020-06-03 07:30 7.66 7460 6990 (2009) 155 (1984) 1680 168 209 252 281 1020 2150 2830 4940 6390
2020-06-03 06:30 7.64 7440 6990 (2009) 155 (1984) 1680 168 209 252 281 1020 2150 2830 4940 6390
2020-06-03 05:30 7.64 7440 6990 (2009) 155 (1984) 1680 168 209 252 281 1020 2150 2830 4940 6390
2020-06-03 04:30 7.66 7460 6990 (2009) 155 (1984) 1680 168 209 252 281 1020 2150 2830 4940 6390
2020-06-03 03:30 7.66 7460 6990 (2009) 155 (1984) 1680 168 209 252 281 1020 2150 2830 4940 6390
2020-06-03 01:30 7.65 7450 6990 (2009) 155 (1984) 1680 168 209 252 281 1020 2150 2830 4940 6390
2020-06-03 00:30 7.64 7440 6990 (2009) 155 (1984) 1680 168 209 252 281 1020 2150 2830 4940 6390
2020-06-02 23:30 7.64 7440 8960 (1990) 153 (2004) 1940 168 183 349 382 961 2830 3320 5520 7020
2020-06-02 22:30 7.64 7440 8960 (1990) 153 (2004) 1940 168 183 349 382 961 2830 3320 5520 7020
2020-06-02 21:30 7.64 7440 8960 (1990) 153 (2004) 1940 168 183 349 382 961 2830 3320 5520 7020
2020-06-02 20:30 7.63 7430 8960 (1990) 153 (2004) 1940 168 183 349 382 961 2830 3320 5520 7020
2020-06-02 19:30 7.63 7430 8960 (1990) 153 (2004) 1940 168 183 349 382 961 2830 3320 5520 7020
2020-06-02 18:30 7.65 7450 8960 (1990) 153 (2004) 1940 168 183 349 382 961 2830 3320 5520 7020
2020-06-02 17:30 7.66 7460 8960 (1990) 153 (2004) 1940 168 183 349 382 961 2830 3320 5520 7020
2020-06-02 16:30 7.65 7450 8960 (1990) 153 (2004) 1940 168 183 349 382 961 2830 3320 5520 7020
2020-06-02 15:30 7.65 7450 8960 (1990) 153 (2004) 1940 168 183 349 382 961 2830 3320 5520 7020
2020-06-02 14:30 7.66 7460 8960 (1990) 153 (2004) 1940 168 183 349 382 961 2830 3320 5520 7020
2020-06-02 13:30 7.66 7460 8960 (1990) 153 (2004) 1940 168 183 349 382 961 2830 3320 5520 7020
2020-06-02 12:30 7.67 7470 8960 (1990) 153 (2004) 1940 168 183 349 382 961 2830 3320 5520 7020
2020-06-02 11:30 7.65 7450 8960 (1990) 153 (2004) 1940 168 183 349 382 961 2830 3320 5520 7020
2020-06-02 10:30 7.67 7470 8960 (1990) 153 (2004) 1940 168 183 349 382 961 2830 3320 5520 7020
2020-06-02 09:30 7.66 7460 8960 (1990) 153 (2004) 1940 168 183 349 382 961 2830 3320 5520 7020
2020-06-02 08:30 7.67 7470 8960 (1990) 153 (2004) 1940 168 183 349 382 961 2830 3320 5520 7020
2020-06-02 07:30 7.66 7460 8960 (1990) 153 (2004) 1940 168 183 349 382 961 2830 3320 5520 7020
2020-06-02 06:30 7.65 7450 8960 (1990) 153 (2004) 1940 168 183 349 382 961 2830 3320 5520 7020
2020-06-02 05:30 7.64 7440 8960 (1990) 153 (2004) 1940 168 183 349 382 961 2830 3320 5520 7020
2020-06-02 04:30 7.63 7430 8960 (1990) 153 (2004) 1940 168 183 349 382 961 2830 3320 5520 7020
2020-06-02 03:30 7.62 7420 8960 (1990) 153 (2004) 1940 168 183 349 382 961 2830 3320 5520 7020
2020-06-02 02:30 7.64 7440 8960 (1990) 153 (2004) 1940 168 183 349 382 961 2830 3320 5520 7020
2020-06-02 01:30 7.64 7440 8960 (1990) 153 (2004) 1940 168 183 349 382 961 2830 3320 5520 7020
2020-06-02 00:30 7.62 7420 8960 (1990) 153 (2004) 1940 168 183 349 382 961 2830 3320 5520 7020
2020-06-01 23:30 7.63 7430 7650 (1990) 137 (1975) 1850 167 189 283 299 968 2840 3150 6110 7340
2020-06-01 22:30 7.65 7450 7650 (1990) 137 (1975) 1850 167 189 283 299 968 2840 3150 6110 7340
2020-06-01 21:30 7.62 7420 7650 (1990) 137 (1975) 1850 167 189 283 299 968 2840 3150 6110 7340
2020-06-01 20:30 7.62 7420 7650 (1990) 137 (1975) 1850 167 189 283 299 968 2840 3150 6110 7340
2020-06-01 19:30 7.64 7440 7650 (1990) 137 (1975) 1850 167 189 283 299 968 2840 3150 6110 7340
2020-06-01 18:30 7.65 7450 7650 (1990) 137 (1975) 1850 167 189 283 299 968 2840 3150 6110 7340
2020-06-01 17:30 7.64 7440 7650 (1990) 137 (1975) 1850 167 189 283 299 968 2840 3150 6110 7340
2020-06-01 16:30 7.66 7460 7650 (1990) 137 (1975) 1850 167 189 283 299 968 2840 3150 6110 7340
2020-06-01 15:30 7.63 7430 7650 (1990) 137 (1975) 1850 167 189 283 299 968 2840 3150 6110 7340
2020-06-01 14:30 7.62 7420 7650 (1990) 137 (1975) 1850 167 189 283 299 968 2840 3150 6110 7340
2020-06-01 13:30 7.65 7450 7650 (1990) 137 (1975) 1850 167 189 283 299 968 2840 3150 6110 7340
2020-06-01 12:30 7.64 7440 7650 (1990) 137 (1975) 1850 167 189 283 299 968 2840 3150 6110 7340
2020-06-01 11:30 7.65 7450 7650 (1990) 137 (1975) 1850 167 189 283 299 968 2840 3150 6110 7340
2020-06-01 10:30 7.63 7430 7650 (1990) 137 (1975) 1850 167 189 283 299 968 2840 3150 6110 7340
2020-06-01 09:30 7.63 7430 7650 (1990) 137 (1975) 1850 167 189 283 299 968 2840 3150 6110 7340
2020-06-01 08:30 7.66 7460 7650 (1990) 137 (1975) 1850 167 189 283 299 968 2840 3150 6110 7340
2020-06-01 07:30 7.65 7450 7650 (1990) 137 (1975) 1850 167 189 283 299 968 2840 3150 6110 7340
2020-06-01 06:30 7.67 7470 7650 (1990) 137 (1975) 1850 167 189 283 299 968 2840 3150 6110 7340
2020-06-01 05:30 7.64 7440 7650 (1990) 137 (1975) 1850 167 189 283 299 968 2840 3150 6110 7340
2020-06-01 04:30 7.67 7470 7650 (1990) 137 (1975) 1850 167 189 283 299 968 2840 3150 6110 7340
2020-06-01 02:30 7.63 7430 7650 (1990) 137 (1975) 1850 167 189 283 299 968 2840 3150 6110 7340
2020-06-01 01:30 7.61 7410 7650 (1990) 137 (1975) 1850 167 189 283 299 968 2840 3150 6110 7340
2020-05-31 23:30 7.62 7420 7720 (2002) 165 (1993) 1830 178 283 366 450 735 2190 2890 6620 7420
2020-05-31 22:30 7.61 7410 7720 (2002) 165 (1993) 1830 178 283 366 450 735 2190 2890 6620 7420
2020-05-31 21:30 7.63 7430 7720 (2002) 165 (1993) 1830 178 283 366 450 735 2190 2890 6620 7420
2020-05-31 20:30 7.61 7410 7720 (2002) 165 (1993) 1830 178 283 366 450 735 2190 2890 6620 7420
2020-05-31 19:30 7.61 7410 7720 (2002) 165 (1993) 1830 178 283 366 450 735 2190 2890 6620 7420
2020-05-31 18:30 7.62 7420 7720 (2002) 165 (1993) 1830 178 283 366 450 735 2190 2890 6620 7420
2020-05-31 17:30 7.63 7430 7720 (2002) 165 (1993) 1830 178 283 366 450 735 2190 2890 6620 7420
2020-05-31 16:30 7.61 7410 7720 (2002) 165 (1993) 1830 178 283 366 450 735 2190 2890 6620 7420
2020-05-31 15:30 7.63 7430 7720 (2002) 165 (1993) 1830 178 283 366 450 735 2190 2890 6620 7420
2020-05-31 14:30 7.63 7430 7720 (2002) 165 (1993) 1830 178 283 366 450 735 2190 2890 6620 7420
2020-05-31 13:30 7.62 7420 7720 (2002) 165 (1993) 1830 178 283 366 450 735 2190 2890 6620 7420
2020-05-31 12:30 7.65 7450 7720 (2002) 165 (1993) 1830 178 283 366 450 735 2190 2890 6620 7420
2020-05-31 11:30 7.65 7450 7720 (2002) 165 (1993) 1830 178 283 366 450 735 2190 2890 6620 7420
2020-05-31 10:30 7.65 7450 7720 (2002) 165 (1993) 1830 178 283 366 450 735 2190 2890 6620 7420
2020-05-31 09:30 7.68 7480 7720 (2002) 165 (1993) 1830 178 283 366 450 735 2190 2890 6620 7420
2020-05-31 08:30 7.66 7460 7720 (2002) 165 (1993) 1830 178 283 366 450 735 2190 2890 6620 7420
2020-05-31 07:30 7.64 7440 7720 (2002) 165 (1993) 1830 178 283 366 450 735 2190 2890 6620 7420
2020-05-31 06:30 7.63 7430 7720 (2002) 165 (1993) 1830 178 283 366 450 735 2190 2890 6620 7420
2020-05-31 05:30 7.64 7440 7720 (2002) 165 (1993) 1830 178 283 366 450 735 2190 2890 6620 7420
2020-05-31 04:30 7.62 7420 7720 (2002) 165 (1993) 1830 178 283 366 450 735 2190 2890 6620 7420
2020-05-31 03:30 7.65 7450 7720 (2002) 165 (1993) 1830 178 283 366 450 735 2190 2890 6620 7420
2020-05-31 02:30 7.63 7430 7720 (2002) 165 (1993) 1830 178 283 366 450 735 2190 2890 6620 7420
2020-05-31 01:30 7.62 7420 7720 (2002) 165 (1993) 1830 178 283 366 450 735 2190 2890 6620 7420
2020-05-31 00:30 7.63 7430 7720 (2002) 165 (1993) 1830 178 283 366 450 735 2190 2890 6620 7420
2020-05-30 23:30 7.59 7390 9740 (1991) 161 (1976) 1910 184 189 286 346 663 2160 2520 6880 7790
2020-05-30 22:30 7.61 7410 9740 (1991) 161 (1976) 1910 184 189 286 346 663 2160 2520 6880 7790
2020-05-30 21:30 7.61 7410 9740 (1991) 161 (1976) 1910 184 189 286 346 663 2160 2520 6880 7790
2020-05-30 20:30 7.60 7400 9740 (1991) 161 (1976) 1910 184 189 286 346 663 2160 2520 6880 7790
2020-05-30 19:30 7.61 7410 9740 (1991) 161 (1976) 1910 184 189 286 346 663 2160 2520 6880 7790
2020-05-30 18:30 7.61 7410 9740 (1991) 161 (1976) 1910 184 189 286 346 663 2160 2520 6880 7790
2020-05-30 17:30 7.62 7420 9740 (1991) 161 (1976) 1910 184 189 286 346 663 2160 2520 6880 7790
2020-05-30 16:30 7.62 7420 9740 (1991) 161 (1976) 1910 184 189 286 346 663 2160 2520 6880 7790
2020-05-30 15:30 7.61 7410 9740 (1991) 161 (1976) 1910 184 189 286 346 663 2160 2520 6880 7790
2020-05-30 14:30 7.62 7420 9740 (1991) 161 (1976) 1910 184 189 286 346 663 2160 2520 6880 7790
2020-05-30 13:30 7.61 7410 9740 (1991) 161 (1976) 1910 184 189 286 346 663 2160 2520 6880 7790
2020-05-30 12:30 7.63 7430 9740 (1991) 161 (1976) 1910 184 189 286 346 663 2160 2520 6880 7790
2020-05-30 11:30 7.58 7380 9740 (1991) 161 (1976) 1910 184 189 286 346 663 2160 2520 6880 7790
2020-05-30 10:30 7.51 7320 9740 (1991) 161 (1976) 1910 184 189 286 346 663 2160 2520 6880 7790
2020-05-30 09:30 7.34 7160 9740 (1991) 161 (1976) 1910 184 189 286 346 663 2160 2520 6880 7790
2020-05-30 08:30 6.84 6690 9740 (1991) 161 (1976) 1910 184 189 286 346 663 2160 2520 6880 7790
2020-05-30 07:30 5.75 4950 9740 (1991) 161 (1976) 1910 184 189 286 346 663 2160 2520 6880 7790
2020-05-30 06:30 5.05 3860 9740 (1991) 161 (1976) 1910 184 189 286 346 663 2160 2520 6880 7790
2020-05-30 05:30 4.68 3320 9740 (1991) 161 (1976) 1910 184 189 286 346 663 2160 2520 6880 7790
2020-05-30 04:30 4.08 2530 9740 (1991) 161 (1976) 1910 184 189 286 346 663 2160 2520 6880 7790
2020-05-30 03:30 3.19 1650 9740 (1991) 161 (1976) 1910 184 189 286 346 663 2160 2520 6880 7790
2020-05-30 02:30 2.48 1120 9740 (1991) 161 (1976) 1910 184 189 286 346 663 2160 2520 6880 7790
2020-05-30 01:30 2.42 1070 9740 (1991) 161 (1976) 1910 184 189 286 346 663 2160 2520 6880 7790
2020-05-30 00:30 2.50 1130 9740 (1991) 161 (1976) 1910 184 189 286 346 663 2160 2520 6880 7790
2020-05-29 23:30 2.58 1190 10000 (1991) 149 (2018) 1860 166 183 238 333 740 1820 3030 6830 7600
2020-05-29 22:30 2.66 1240 10000 (1991) 149 (2018) 1860 166 183 238 333 740 1820 3030 6830 7600
2020-05-29 21:30 2.67 1250 10000 (1991) 149 (2018) 1860 166 183 238 333 740 1820 3030 6830 7600
2020-05-29 20:30 2.57 1180 10000 (1991) 149 (2018) 1860 166 183 238 333 740 1820 3030 6830 7600
2020-05-29 19:30 2.30 994 10000 (1991) 149 (2018) 1860 166 183 238 333 740 1820 3030 6830 7600
2020-05-29 18:30 2.02 816 10000 (1991) 149 (2018) 1860 166 183 238 333 740 1820 3030 6830 7600
2020-05-29 17:30 1.81 692 10000 (1991) 149 (2018) 1860 166 183 238 333 740 1820 3030 6830 7600
2020-05-29 16:30 1.77 670 10000 (1991) 149 (2018) 1860 166 183 238 333 740 1820 3030 6830 7600
2020-05-29 15:30 1.80 687 10000 (1991) 149 (2018) 1860 166 183 238 333 740 1820 3030 6830 7600
2020-05-29 14:30 1.82 698 10000 (1991) 149 (2018) 1860 166 183 238 333 740 1820 3030 6830 7600
2020-05-29 13:30 1.83 704 10000 (1991) 149 (2018) 1860 166 183 238 333 740 1820 3030 6830 7600
2020-05-29 12:30 1.87 727 10000 (1991) 149 (2018) 1860 166 183 238 333 740 1820 3030 6830 7600
2020-05-29 11:30 1.91 750 10000 (1991) 149 (2018) 1860 166 183 238 333 740 1820 3030 6830 7600
2020-05-29 10:30 1.92 756 10000 (1991) 149 (2018) 1860 166 183 238 333 740 1820 3030 6830 7600
2020-05-29 09:30 1.96 780 10000 (1991) 149 (2018) 1860 166 183 238 333 740 1820 3030 6830 7600
2020-05-29 08:30 1.99 798 10000 (1991) 149 (2018) 1860 166 183 238 333 740 1820 3030 6830 7600
2020-05-29 07:30 2.02 816 10000 (1991) 149 (2018) 1860 166 183 238 333 740 1820 3030 6830 7600
2020-05-29 06:30 2.05 835 10000 (1991) 149 (2018) 1860 166 183 238 333 740 1820 3030 6830 7600
2020-05-29 05:30 2.08 853 10000 (1991) 149 (2018) 1860 166 183 238 333 740 1820 3030 6830 7600
2020-05-29 04:30 2.11 872 10000 (1991) 149 (2018) 1860 166 183 238 333 740 1820 3030 6830 7600
2020-05-29 03:30 2.14 891 10000 (1991) 149 (2018) 1860 166 183 238 333 740 1820 3030 6830 7600
2020-05-29 02:30 2.18 916 10000 (1991) 149 (2018) 1860 166 183 238 333 740 1820 3030 6830 7600
2020-05-29 01:30 2.22 942 10000 (1991) 149 (2018) 1860 166 183 238 333 740 1820 3030 6830 7600
2020-05-29 00:30 2.26 968 10000 (1991) 149 (2018) 1860 166 183 238 333 740 1820 3030 6830 7600
2020-05-28 23:30 2.31 1000 8280 (2009) 131 (1985) 1850 156 189 251 325 663 2430 3830 6670 6980
2020-05-28 22:30 2.36 1030 8280 (2009) 131 (1985) 1850 156 189 251 325 663 2430 3830 6670 6980
2020-05-28 21:30 2.41 1070 8280 (2009) 131 (1985) 1850 156 189 251 325 663 2430 3830 6670 6980
2020-05-28 20:30 2.46 1100 8280 (2009) 131 (1985) 1850 156 189 251 325 663 2430 3830 6670 6980
2020-05-28 19:30 2.52 1140 8280 (2009) 131 (1985) 1850 156 189 251 325 663 2430 3830 6670 6980
2020-05-28 18:30 2.57 1180 8280 (2009) 131 (1985) 1850 156 189 251 325 663 2430 3830 6670 6980
2020-05-28 17:30 2.64 1230 8280 (2009) 131 (1985) 1850 156 189 251 325 663 2430 3830 6670 6980
2020-05-28 16:30 2.70 1270 8280 (2009) 131 (1985) 1850 156 189 251 325 663 2430 3830 6670 6980
2020-05-28 15:30 2.78 1330 8280 (2009) 131 (1985) 1850 156 189 251 325 663 2430 3830 6670 6980
2020-05-28 14:30 2.84 1380 8280 (2009) 131 (1985) 1850 156 189 251 325 663 2430 3830 6670 6980
2020-05-28 13:30 2.89 1410 8280 (2009) 131 (1985) 1850 156 189 251 325 663 2430 3830 6670 6980
2020-05-28 12:30 2.90 1420 8280 (2009) 131 (1985) 1850 156 189 251 325 663 2430 3830 6670 6980
2020-05-28 11:30 2.90 1420 8280 (2009) 131 (1985) 1850 156 189 251 325 663 2430 3830 6670 6980
2020-05-28 10:30 2.88 1410 8280 (2009) 131 (1985) 1850 156 189 251 325 663 2430 3830 6670 6980
2020-05-28 09:30 2.86 1390 8280 (2009) 131 (1985) 1850 156 189 251 325 663 2430 3830 6670 6980
2020-05-28 08:30 2.84 1380 8280 (2009) 131 (1985) 1850 156 189 251 325 663 2430 3830 6670 6980
2020-05-28 07:30 2.81 1350 8280 (2009) 131 (1985) 1850 156 189 251 325 663 2430 3830 6670 6980
2020-05-28 06:30 2.80 1350 8280 (2009) 131 (1985) 1850 156 189 251 325 663 2430 3830 6670 6980
2020-05-28 05:30 2.86 1390 8280 (2009) 131 (1985) 1850 156 189 251 325 663 2430 3830 6670 6980
2020-05-28 04:30 2.90 1420 8280 (2009) 131 (1985) 1850 156 189 251 325 663 2430 3830 6670 6980
2020-05-28 03:30 3.04 1530 8280 (2009) 131 (1985) 1850 156 189 251 325 663 2430 3830 6670 6980
2020-05-28 02:30 3.19 1650 8280 (2009) 131 (1985) 1850 156 189 251 325 663 2430 3830 6670 6980
2020-05-28 01:30 3.35 1780 8280 (2009) 131 (1985) 1850 156 189 251 325 663 2430 3830 6670 6980
2020-05-28 00:30 3.52 1930 8280 (2009) 131 (1985) 1850 156 189 251 325 663 2430 3830 6670 6980
2020-05-27 23:30 3.71 2090 12600 (2015) 103 (1975) 1950 133 153 186 240 751 2920 3360 6560 8230
2020-05-27 22:30 3.93 2340 12600 (2015) 103 (1975) 1950 133 153 186 240 751 2920 3360 6560 8230
2020-05-27 21:30 4.12 2580 12600 (2015) 103 (1975) 1950 133 153 186 240 751 2920 3360 6560 8230
2020-05-27 20:30 4.14 2600 12600 (2015) 103 (1975) 1950 133 153 186 240 751 2920 3360 6560 8230
2020-05-27 19:30 3.67 2060 12600 (2015) 103 (1975) 1950 133 153 186 240 751 2920 3360 6560 8230
2020-05-27 18:30 2.53 1150 12600 (2015) 103 (1975) 1950 133 153 186 240 751 2920 3360 6560 8230
2020-05-27 17:30 1.85 715 12600 (2015) 103 (1975) 1950 133 153 186 240 751 2920 3360 6560 8230
2020-05-27 16:30 1.82 698 12600 (2015) 103 (1975) 1950 133 153 186 240 751 2920 3360 6560 8230
2020-05-27 15:30 1.84 710 12600 (2015) 103 (1975) 1950 133 153 186 240 751 2920 3360 6560 8230
2020-05-27 14:30 1.86 721 12600 (2015) 103 (1975) 1950 133 153 186 240 751 2920 3360 6560 8230
2020-05-27 13:30 1.86 721 12600 (2015) 103 (1975) 1950 133 153 186 240 751 2920 3360 6560 8230
2020-05-27 12:30 1.88 733 12600 (2015) 103 (1975) 1950 133 153 186 240 751 2920 3360 6560 8230
2020-05-27 11:30 1.90 745 12600 (2015) 103 (1975) 1950 133 153 186 240 751 2920 3360 6560 8230
2020-05-27 10:30 1.93 762 12600 (2015) 103 (1975) 1950 133 153 186 240 751 2920 3360 6560 8230
2020-05-27 09:30 1.95 774 12600 (2015) 103 (1975) 1950 133 153 186 240 751 2920 3360 6560 8230
2020-05-27 08:30 1.98 792 12600 (2015) 103 (1975) 1950 133 153 186 240 751 2920 3360 6560 8230
2020-05-27 07:30 2.01 810 12600 (2015) 103 (1975) 1950 133 153 186 240 751 2920 3360 6560 8230
2020-05-27 06:30 2.03 822 12600 (2015) 103 (1975) 1950 133 153 186 240 751 2920 3360 6560 8230
2020-05-27 05:30 2.07 847 12600 (2015) 103 (1975) 1950 133 153 186 240 751 2920 3360 6560 8230
2020-05-27 04:30 2.09 859 12600 (2015) 103 (1975) 1950 133 153 186 240 751 2920 3360 6560 8230
2020-05-27 03:30 2.13 884 12600 (2015) 103 (1975) 1950 133 153 186 240 751 2920 3360 6560 8230
2020-05-27 02:30 2.16 903 12600 (2015) 103 (1975) 1950 133 153 186 240 751 2920 3360 6560 8230
2020-05-27 01:30 2.20 929 12600 (2015) 103 (1975) 1950 133 153 186 240 751 2920 3360 6560 8230
2020-05-27 00:30 2.24 955 12600 (2015) 103 (1975) 1950 133 153 186 240 751 2920 3360 6560 8230
2020-05-26 23:30 2.29 988 28800 (2015) 111 (1975) 2240 136 141 210 249 705 2250 2660 6920 7870
2020-05-26 22:30 2.34 1020 28800 (2015) 111 (1975) 2240 136 141 210 249 705 2250 2660 6920 7870
2020-05-26 21:30 2.39 1050 28800 (2015) 111 (1975) 2240 136 141 210 249 705 2250 2660 6920 7870
2020-05-26 20:30 2.45 1100 28800 (2015) 111 (1975) 2240 136 141 210 249 705 2250 2660 6920 7870
2020-05-26 19:30 2.51 1140 28800 (2015) 111 (1975) 2240 136 141 210 249 705 2250 2660 6920 7870
2020-05-26 18:30 2.58 1190 28800 (2015) 111 (1975) 2240 136 141 210 249 705 2250 2660 6920 7870
2020-05-26 17:30 2.65 1240 28800 (2015) 111 (1975) 2240 136 141 210 249 705 2250 2660 6920 7870
2020-05-26 16:30 2.73 1290 28800 (2015) 111 (1975) 2240 136 141 210 249 705 2250 2660 6920 7870
2020-05-26 15:30 2.81 1350 28800 (2015) 111 (1975) 2240 136 141 210 249 705 2250 2660 6920 7870
2020-05-26 14:30 2.91 1430 28800 (2015) 111 (1975) 2240 136 141 210 249 705 2250 2660 6920 7870
2020-05-26 13:30 3.00 1500 28800 (2015) 111 (1975) 2240 136 141 210 249 705 2250 2660 6920 7870
2020-05-26 12:30 3.11 1590 28800 (2015) 111 (1975) 2240 136 141 210 249 705 2250 2660 6920 7870
2020-05-26 11:30 3.22 1670 28800 (2015) 111 (1975) 2240 136 141 210 249 705 2250 2660 6920 7870
2020-05-26 10:30 3.33 1770 28800 (2015) 111 (1975) 2240 136 141 210 249 705 2250 2660 6920 7870
2020-05-26 09:30 3.45 1870 28800 (2015) 111 (1975) 2240 136 141 210 249 705 2250 2660 6920 7870
2020-05-26 08:30 3.59 1990 28800 (2015) 111 (1975) 2240 136 141 210 249 705 2250 2660 6920 7870
2020-05-26 07:30 3.73 2110 28800 (2015) 111 (1975) 2240 136 141 210 249 705 2250 2660 6920 7870
2020-05-26 06:30 3.90 2310 28800 (2015) 111 (1975) 2240 136 141 210 249 705 2250 2660 6920 7870
2020-05-26 05:30 4.07 2510 28800 (2015) 111 (1975) 2240 136 141 210 249 705 2250 2660 6920 7870
2020-05-26 04:30 4.26 2760 28800 (2015) 111 (1975) 2240 136 141 210 249 705 2250 2660 6920 7870
2020-05-26 03:30 4.46 3020 28800 (2015) 111 (1975) 2240 136 141 210 249 705 2250 2660 6920 7870
2020-05-26 02:30 4.69 3340 28800 (2015) 111 (1975) 2240 136 141 210 249 705 2250 2660 6920 7870
2020-05-26 01:30 4.92 3660 28800 (2015) 111 (1975) 2240 136 141 210 249 705 2250 2660 6920 7870
2020-05-26 00:30 5.17 4040 28800 (2015) 111 (1975) 2240 136 141 210 249 705 2250 2660 6920 7870
2020-05-25 23:30 5.40 4390 29100 (2015) 98 (1972) 2100 151 160 192 228 629 2550 2630 6450 7740
2020-05-25 22:30 5.58 4680 29100 (2015) 98 (1972) 2100 151 160 192 228 629 2550 2630 6450 7740
2020-05-25 21:30 5.68 4840 29100 (2015) 98 (1972) 2100 151 160 192 228 629 2550 2630 6450 7740
2020-05-25 20:30 5.60 4710 29100 (2015) 98 (1972) 2100 151 160 192 228 629 2550 2630 6450 7740
2020-05-25 19:30 5.16 4020 29100 (2015) 98 (1972) 2100 151 160 192 228 629 2550 2630 6450 7740
2020-05-25 18:30 4.38 2910 29100 (2015) 98 (1972) 2100 151 160 192 228 629 2550 2630 6450 7740
2020-05-25 17:30 3.85 2250 29100 (2015) 98 (1972) 2100 151 160 192 228 629 2550 2630 6450 7740
2020-05-25 16:30 3.31 1750 29100 (2015) 98 (1972) 2100 151 160 192 228 629 2550 2630 6450 7740
2020-05-25 15:30 3.14 1610 29100 (2015) 98 (1972) 2100 151 160 192 228 629 2550 2630 6450 7740
2020-05-25 14:30 3.24 1690 29100 (2015) 98 (1972) 2100 151 160 192 228 629 2550 2630 6450 7740
2020-05-25 13:30 3.39 1820 29100 (2015) 98 (1972) 2100 151 160 192 228 629 2550 2630 6450 7740
2020-05-25 12:30 3.54 1940 29100 (2015) 98 (1972) 2100 151 160 192 228 629 2550 2630 6450 7740
2020-05-25 11:30 3.72 2100 29100 (2015) 98 (1972) 2100 151 160 192 228 629 2550 2630 6450 7740
2020-05-25 10:30 3.90 2310 29100 (2015) 98 (1972) 2100 151 160 192 228 629 2550 2630 6450 7740
2020-05-25 09:30 4.11 2560 29100 (2015) 98 (1972) 2100 151 160 192 228 629 2550 2630 6450 7740
2020-05-25 08:30 4.34 2860 29100 (2015) 98 (1972) 2100 151 160 192 228 629 2550 2630 6450 7740
2020-05-25 07:30 4.56 3160 29100 (2015) 98 (1972) 2100 151 160 192 228 629 2550 2630 6450 7740
2020-05-25 06:30 4.81 3510 29100 (2015) 98 (1972) 2100 151 160 192 228 629 2550 2630 6450 7740
2020-05-25 05:30 5.04 3840 29100 (2015) 98 (1972) 2100 151 160 192 228 629 2550 2630 6450 7740
2020-05-25 04:30 5.46 4480 29100 (2015) 98 (1972) 2100 151 160 192 228 629 2550 2630 6450 7740
2020-05-25 03:30 6.02 5400 29100 (2015) 98 (1972) 2100 151 160 192 228 629 2550 2630 6450 7740
2020-05-25 02:30 6.66 6510 29100 (2015) 98 (1972) 2100 151 160 192 228 629 2550 2630 6450 7740
2020-05-25 01:30 7.89 7680 29100 (2015) 98 (1972) 2100 151 160 192 228 629 2550 2630 6450 7740
2020-05-25 00:30 8.47 8260 29100 (2015) 98 (1972) 2100 151 160 192 228 629 2550 2630 6450 7740
2020-05-24 23:30 8.54 8330 8350 (2015) 116 (2004) 1920 140 180 211 257 750 2870 3470 6500 7490
2020-05-24 22:30 8.51 8300 8350 (2015) 116 (2004) 1920 140 180 211 257 750 2870 3470 6500 7490
2020-05-24 21:30 8.45 8240 8350 (2015) 116 (2004) 1920 140 180 211 257 750 2870 3470 6500 7490
2020-05-24 20:30 8.21 8000 8350 (2015) 116 (2004) 1920 140 180 211 257 750 2870 3470 6500 7490
2020-05-24 19:30 7.94 7730 8350 (2015) 116 (2004) 1920 140 180 211 257 750 2870 3470 6500 7490
2020-05-24 18:30 7.80 7600 8350 (2015) 116 (2004) 1920 140 180 211 257 750 2870 3470 6500 7490
2020-05-24 17:30 7.74 7540 8350 (2015) 116 (2004) 1920 140 180 211 257 750 2870 3470 6500 7490
2020-05-24 16:30 7.72 7520 8350 (2015) 116 (2004) 1920 140 180 211 257 750 2870 3470 6500 7490
2020-05-24 15:30 7.73 7530 8350 (2015) 116 (2004) 1920 140 180 211 257 750 2870 3470 6500 7490
2020-05-24 14:30 7.75 7550 8350 (2015) 116 (2004) 1920 140 180 211 257 750 2870 3470 6500 7490
2020-05-24 13:30 7.76 7560 8350 (2015) 116 (2004) 1920 140 180 211 257 750 2870 3470 6500 7490
2020-05-24 12:30 7.78 7580 8350 (2015) 116 (2004) 1920 140 180 211 257 750 2870 3470 6500 7490
2020-05-24 11:30 7.79 7590 8350 (2015) 116 (2004) 1920 140 180 211 257 750 2870 3470 6500 7490
2020-05-24 10:30 7.79 7590 8350 (2015) 116 (2004) 1920 140 180 211 257 750 2870 3470 6500 7490
2020-05-24 09:30 7.79 7590 8350 (2015) 116 (2004) 1920 140 180 211 257 750 2870 3470 6500 7490
2020-05-24 08:30 7.78 7580 8350 (2015) 116 (2004) 1920 140 180 211 257 750 2870 3470 6500 7490
2020-05-24 07:30 7.78 7580 8350 (2015) 116 (2004) 1920 140 180 211 257 750 2870 3470 6500 7490
2020-05-24 06:30 7.81 7610 8350 (2015) 116 (2004) 1920 140 180 211 257 750 2870 3470 6500 7490
2020-05-24 05:30 7.80 7600 8350 (2015) 116 (2004) 1920 140 180 211 257 750 2870 3470 6500 7490
2020-05-24 04:30 7.80 7600 8350 (2015) 116 (2004) 1920 140 180 211 257 750 2870 3470 6500 7490
2020-05-24 03:30 7.81 7610 8350 (2015) 116 (2004) 1920 140 180 211 257 750 2870 3470 6500 7490
2020-05-24 02:30 7.81 7610 8350 (2015) 116 (2004) 1920 140 180 211 257 750 2870 3470 6500 7490
2020-05-24 01:30 7.81 7610 8350 (2015) 116 (2004) 1920 140 180 211 257 750 2870 3470 6500 7490
2020-05-24 00:30 7.80 7600 8350 (2015) 116 (2004) 1920 140 180 211 257 750 2870 3470 6500 7490
2020-05-23 23:30 7.83 7630 8280 (2009) 139 (1997) 1750 150 169 257 283 912 2750 3560 5080 6250
2020-05-23 22:30 7.84 7640 8280 (2009) 139 (1997) 1750 150 169 257 283 912 2750 3560 5080 6250
2020-05-23 21:30 7.86 7660 8280 (2009) 139 (1997) 1750 150 169 257 283 912 2750 3560 5080 6250
2020-05-23 20:30 7.90 7690 8280 (2009) 139 (1997) 1750 150 169 257 283 912 2750 3560 5080 6250
2020-05-23 19:30 7.91 7700 8280 (2009) 139 (1997) 1750 150 169 257 283 912 2750 3560 5080 6250
2020-05-23 18:30 7.95 7740 8280 (2009) 139 (1997) 1750 150 169 257 283 912 2750 3560 5080 6250
2020-05-23 17:30 7.99 7780 8280 (2009) 139 (1997) 1750 150 169 257 283 912 2750 3560 5080 6250
2020-05-23 16:30 8.02 7810 8280 (2009) 139 (1997) 1750 150 169 257 283 912 2750 3560 5080 6250
2020-05-23 15:30 8.06 7850 8280 (2009) 139 (1997) 1750 150 169 257 283 912 2750 3560 5080 6250
2020-05-23 14:30 8.14 7930 8280 (2009) 139 (1997) 1750 150 169 257 283 912 2750 3560 5080 6250
2020-05-23 13:30 8.18 7970 8280 (2009) 139 (1997) 1750 150 169 257 283 912 2750 3560 5080 6250
2020-05-23 12:30 8.24 8030 8280 (2009) 139 (1997) 1750 150 169 257 283 912 2750 3560 5080 6250
2020-05-23 11:30 8.31 8100 8280 (2009) 139 (1997) 1750 150 169 257 283 912 2750 3560 5080 6250
2020-05-23 10:30 8.34 8130 8280 (2009) 139 (1997) 1750 150 169 257 283 912 2750 3560 5080 6250
2020-05-23 09:30 8.38 8170 8280 (2009) 139 (1997) 1750 150 169 257 283 912 2750 3560 5080 6250
2020-05-23 08:30 8.39 8180 8280 (2009) 139 (1997) 1750 150 169 257 283 912 2750 3560 5080 6250
2020-05-23 07:30 8.46 8250 8280 (2009) 139 (1997) 1750 150 169 257 283 912 2750 3560 5080 6250
2020-05-23 06:30 8.55 8340 8280 (2009) 139 (1997) 1750 150 169 257 283 912 2750 3560 5080 6250
2020-05-23 05:30 8.47 8260 8280 (2009) 139 (1997) 1750 150 169 257 283 912 2750 3560 5080 6250
2020-05-23 04:30 8.14 7930 8280 (2009) 139 (1997) 1750 150 169 257 283 912 2750 3560 5080 6250
2020-05-23 03:30 7.84 7640 8280 (2009) 139 (1997) 1750 150 169 257 283 912 2750 3560 5080 6250
2020-05-23 02:30 7.76 7560 8280 (2009) 139 (1997) 1750 150 169 257 283 912 2750 3560 5080 6250
2020-05-23 01:30 7.75 7550 8280 (2009) 139 (1997) 1750 150 169 257 283 912 2750 3560 5080 6250
2020-05-23 00:30 7.62 7420 8280 (2009) 139 (1997) 1750 150 169 257 283 912 2750 3560 5080 6250
2020-05-22 23:30 7.65 7450 8250 (2009) 140 (1997) 1990 157 184 242 267 1010 3330 3440 6180 7150
2020-05-22 22:30 7.65 7450 8250 (2009) 140 (1997) 1990 157 184 242 267 1010 3330 3440 6180 7150
2020-05-22 21:30 7.68 7480 8250 (2009) 140 (1997) 1990 157 184 242 267 1010 3330 3440 6180 7150
2020-05-22 20:30 7.67 7470 8250 (2009) 140 (1997) 1990 157 184 242 267 1010 3330 3440 6180 7150
2020-05-22 19:30 7.65 7450 8250 (2009) 140 (1997) 1990 157 184 242 267 1010 3330 3440 6180 7150
2020-05-22 18:30 7.66 7460 8250 (2009) 140 (1997) 1990 157 184 242 267 1010 3330 3440 6180 7150
2020-05-22 17:30 7.69 7490 8250 (2009) 140 (1997) 1990 157 184 242 267 1010 3330 3440 6180 7150
2020-05-22 16:30 7.66 7460 8250 (2009) 140 (1997) 1990 157 184 242 267 1010 3330 3440 6180 7150
2020-05-22 15:30 7.64 7440 8250 (2009) 140 (1997) 1990 157 184 242 267 1010 3330 3440 6180 7150
2020-05-22 14:30 7.67 7470 8250 (2009) 140 (1997) 1990 157 184 242 267 1010 3330 3440 6180 7150
2020-05-22 13:30 7.70 7500 8250 (2009) 140 (1997) 1990 157 184 242 267 1010 3330 3440 6180 7150
2020-05-22 12:30 7.71 7510 8250 (2009) 140 (1997) 1990 157 184 242 267 1010 3330 3440 6180 7150
2020-05-22 11:30 7.65 7450 8250 (2009) 140 (1997) 1990 157 184 242 267 1010 3330 3440 6180 7150
2020-05-22 10:30 7.62 7420 8250 (2009) 140 (1997) 1990 157 184 242 267 1010 3330 3440 6180 7150
2020-05-22 09:30 7.63 7430 8250 (2009) 140 (1997) 1990 157 184 242 267 1010 3330 3440 6180 7150
2020-05-22 08:30 7.63 7430 8250 (2009) 140 (1997) 1990 157 184 242 267 1010 3330 3440 6180 7150
2020-05-22 07:30 7.64 7440 8250 (2009) 140 (1997) 1990 157 184 242 267 1010 3330 3440 6180 7150
2020-05-22 06:30 7.61 7410 8250 (2009) 140 (1997) 1990 157 184 242 267 1010 3330 3440 6180 7150
2020-05-22 05:30 7.67 7470 8250 (2009) 140 (1997) 1990 157 184 242 267 1010 3330 3440 6180 7150
2020-05-22 04:30 7.65 7450 8250 (2009) 140 (1997) 1990 157 184 242 267 1010 3330 3440 6180 7150
2020-05-22 03:30 7.64 7440 8250 (2009) 140 (1997) 1990 157 184 242 267 1010 3330 3440 6180 7150
2020-05-22 02:30 7.64 7440 8250 (2009) 140 (1997) 1990 157 184 242 267 1010 3330 3440 6180 7150
2020-05-22 01:30 7.63 7430 8250 (2009) 140 (1997) 1990 157 184 242 267 1010 3330 3440 6180 7150
2020-05-22 00:30 7.62 7420 8250 (2009) 140 (1997) 1990 157 184 242 267 1010 3330 3440 6180 7150
2020-05-21 23:30 7.60 7400 9980 (1991) 129 (1978) 2250 159 211 297 333 1120 3430 4540 7100 7710
2020-05-21 22:30 7.61 7410 9980 (1991) 129 (1978) 2250 159 211 297 333 1120 3430 4540 7100 7710
2020-05-21 21:30 7.55 7360 9980 (1991) 129 (1978) 2250 159 211 297 333 1120 3430 4540 7100 7710
2020-05-21 20:30 7.38 7190 9980 (1991) 129 (1978) 2250 159 211 297 333 1120 3430 4540 7100 7710
2020-05-21 19:30 7.01 6850 9980 (1991) 129 (1978) 2250 159 211 297 333 1120 3430 4540 7100 7710
2020-05-21 18:30 5.94 5270 9980 (1991) 129 (1978) 2250 159 211 297 333 1120 3430 4540 7100 7710
2020-05-21 17:30 5.03 3830 9980 (1991) 129 (1978) 2250 159 211 297 333 1120 3430 4540 7100 7710
2020-05-21 16:30 4.66 3290 9980 (1991) 129 (1978) 2250 159 211 297 333 1120 3430 4540 7100 7710
2020-05-21 15:30 4.07 2510 9980 (1991) 129 (1978) 2250 159 211 297 333 1120 3430 4540 7100 7710
2020-05-21 14:30 3.21 1670 9980 (1991) 129 (1978) 2250 159 211 297 333 1120 3430 4540 7100 7710
2020-05-21 13:30 2.51 1140 9980 (1991) 129 (1978) 2250 159 211 297 333 1120 3430 4540 7100 7710
2020-05-21 12:30 2.46 1100 9980 (1991) 129 (1978) 2250 159 211 297 333 1120 3430 4540 7100 7710
2020-05-21 11:30 2.56 1170 9980 (1991) 129 (1978) 2250 159 211 297 333 1120 3430 4540 7100 7710
2020-05-21 10:30 2.68 1260 9980 (1991) 129 (1978) 2250 159 211 297 333 1120 3430 4540 7100 7710
2020-05-21 09:30 2.81 1350 9980 (1991) 129 (1978) 2250 159 211 297 333 1120 3430 4540 7100 7710
2020-05-21 08:30 2.94 1450 9980 (1991) 129 (1978) 2250 159 211 297 333 1120 3430 4540 7100 7710
2020-05-21 07:30 3.11 1590 9980 (1991) 129 (1978) 2250 159 211 297 333 1120 3430 4540 7100 7710
2020-05-21 06:30 3.28 1720 9980 (1991) 129 (1978) 2250 159 211 297 333 1120 3430 4540 7100 7710
2020-05-21 05:30 3.47 1880 9980 (1991) 129 (1978) 2250 159 211 297 333 1120 3430 4540 7100 7710
2020-05-21 04:30 3.67 2060 9980 (1991) 129 (1978) 2250 159 211 297 333 1120 3430 4540 7100 7710
2020-05-21 03:30 3.90 2310 9980 (1991) 129 (1978) 2250 159 211 297 333 1120 3430 4540 7100 7710
2020-05-21 02:30 4.13 2590 9980 (1991) 129 (1978) 2250 159 211 297 333 1120 3430 4540 7100 7710
2020-05-21 01:30 4.35 2870 9980 (1991) 129 (1978) 2250 159 211 297 333 1120 3430 4540 7100 7710
2020-05-21 00:30 4.59 3200 9980 (1991) 129 (1978) 2250 159 211 297 333 1120 3430 4540 7100 7710
2020-05-20 23:30 4.87 3590 11200 (1991) 149 (1985) 2050 159 177 226 323 1000 2850 4370 6730 7270
2020-05-20 22:30 5.25 4160 11200 (1991) 149 (1985) 2050 159 177 226 323 1000 2850 4370 6730 7270
2020-05-20 21:30 5.71 4890 11200 (1991) 149 (1985) 2050 159 177 226 323 1000 2850 4370 6730 7270
2020-05-20 20:30 6.15 5630 11200 (1991) 149 (1985) 2050 159 177 226 323 1000 2850 4370 6730 7270
2020-05-20 19:30 5.50 4550 11200 (1991) 149 (1985) 2050 159 177 226 323 1000 2850 4370 6730 7270
2020-05-20 18:30 4.89 3620 11200 (1991) 149 (1985) 2050 159 177 226 323 1000 2850 4370 6730 7270
2020-05-20 17:30 4.48 3050 11200 (1991) 149 (1985) 2050 159 177 226 323 1000 2850 4370 6730 7270
2020-05-20 16:30 3.74 2120 11200 (1991) 149 (1985) 2050 159 177 226 323 1000 2850 4370 6730 7270
2020-05-20 15:30 2.63 1220 11200 (1991) 149 (1985) 2050 159 177 226 323 1000 2850 4370 6730 7270
2020-05-20 14:30 1.94 768 11200 (1991) 149 (1985) 2050 159 177 226 323 1000 2850 4370 6730 7270
2020-05-20 13:30 1.92 756 11200 (1991) 149 (1985) 2050 159 177 226 323 1000 2850 4370 6730 7270
2020-05-20 12:30 1.97 786 11200 (1991) 149 (1985) 2050 159 177 226 323 1000 2850 4370 6730 7270
2020-05-20 11:30 2.04 829 11200 (1991) 149 (1985) 2050 159 177 226 323 1000 2850 4370 6730 7270
2020-05-20 10:30 2.09 859 11200 (1991) 149 (1985) 2050 159 177 226 323 1000 2850 4370 6730 7270
2020-05-20 09:30 2.19 923 11200 (1991) 149 (1985) 2050 159 177 226 323 1000 2850 4370 6730 7270
2020-05-20 08:30 2.26 968 11200 (1991) 149 (1985) 2050 159 177 226 323 1000 2850 4370 6730 7270
2020-05-20 07:30 2.35 1030 11200 (1991) 149 (1985) 2050 159 177 226 323 1000 2850 4370 6730 7270
2020-05-20 06:30 2.44 1090 11200 (1991) 149 (1985) 2050 159 177 226 323 1000 2850 4370 6730 7270
2020-05-20 05:30 2.54 1160 11200 (1991) 149 (1985) 2050 159 177 226 323 1000 2850 4370 6730 7270
2020-05-20 04:30 2.65 1240 11200 (1991) 149 (1985) 2050 159 177 226 323 1000 2850 4370 6730 7270
2020-05-20 03:30 2.77 1320 11200 (1991) 149 (1985) 2050 159 177 226 323 1000 2850 4370 6730 7270
2020-05-20 02:30 2.90 1420 11200 (1991) 149 (1985) 2050 159 177 226 323 1000 2850 4370 6730 7270
2020-05-20 01:30 3.06 1550 11200 (1991) 149 (1985) 2050 159 177 226 323 1000 2850 4370 6730 7270
2020-05-20 00:30 3.22 1670 11200 (1991) 149 (1985) 2050 159 177 226 323 1000 2850 4370 6730 7270
2020-05-19 23:30 3.41 1830 11500 (1991) 113 (1996) 2200 140 229 364 424 901 2750 4930 6970 7590
2020-05-19 22:30 3.61 2010 11500 (1991) 113 (1996) 2200 140 229 364 424 901 2750 4930 6970 7590
2020-05-19 21:30 3.80 2190 11500 (1991) 113 (1996) 2200 140 229 364 424 901 2750 4930 6970 7590
2020-05-19 20:30 3.98 2400 11500 (1991) 113 (1996) 2200 140 229 364 424 901 2750 4930 6970 7590
2020-05-19 19:30 4.00 2430 11500 (1991) 113 (1996) 2200 140 229 364 424 901 2750 4930 6970 7590
2020-05-19 18:30 3.49 1900 11500 (1991) 113 (1996) 2200 140 229 364 424 901 2750 4930 6970 7590
2020-05-19 17:30 2.40 1060 11500 (1991) 113 (1996) 2200 140 229 364 424 901 2750 4930 6970 7590
2020-05-19 16:30 1.79 681 11500 (1991) 113 (1996) 2200 140 229 364 424 901 2750 4930 6970 7590
2020-05-19 15:30 1.78 675 11500 (1991) 113 (1996) 2200 140 229 364 424 901 2750 4930 6970 7590
2020-05-19 14:30 1.82 698 11500 (1991) 113 (1996) 2200 140 229 364 424 901 2750 4930 6970 7590
2020-05-19 13:30 1.87 727 11500 (1991) 113 (1996) 2200 140 229 364 424 901 2750 4930 6970 7590
2020-05-19 12:30 1.91 750 11500 (1991) 113 (1996) 2200 140 229 364 424 901 2750 4930 6970 7590
2020-05-19 11:30 1.96 780 11500 (1991) 113 (1996) 2200 140 229 364 424 901 2750 4930 6970 7590
2020-05-19 10:30 2.02 816 11500 (1991) 113 (1996) 2200 140 229 364 424 901 2750 4930 6970 7590
2020-05-19 09:30 2.08 853 11500 (1991) 113 (1996) 2200 140 229 364 424 901 2750 4930 6970 7590
2020-05-19 08:30 2.15 897 11500 (1991) 113 (1996) 2200 140 229 364 424 901 2750 4930 6970 7590
2020-05-19 07:30 2.21 935 11500 (1991) 113 (1996) 2200 140 229 364 424 901 2750 4930 6970 7590
2020-05-19 06:30 2.29 988 11500 (1991) 113 (1996) 2200 140 229 364 424 901 2750 4930 6970 7590
2020-05-19 05:30 2.37 1040 11500 (1991) 113 (1996) 2200 140 229 364 424 901 2750 4930 6970 7590
2020-05-19 04:30 2.46 1100 11500 (1991) 113 (1996) 2200 140 229 364 424 901 2750 4930 6970 7590
2020-05-19 03:30 2.55 1160 11500 (1991) 113 (1996) 2200 140 229 364 424 901 2750 4930 6970 7590
2020-05-19 02:30 2.66 1240 11500 (1991) 113 (1996) 2200 140 229 364 424 901 2750 4930 6970 7590
2020-05-19 01:30 2.77 1320 11500 (1991) 113 (1996) 2200 140 229 364 424 901 2750 4930 6970 7590
2020-05-19 00:30 2.90 1420 11500 (1991) 113 (1996) 2200 140 229 364 424 901 2750 4930 6970 7590
2020-05-18 23:30 3.04 1530 11300 (1991) 101 (2004) 2130 146 163 344 449 916 2650 4050 7050 8150
2020-05-18 22:30 3.18 1640 11300 (1991) 101 (2004) 2130 146 163 344 449 916 2650 4050 7050 8150
2020-05-18 21:30 3.29 1730 11300 (1991) 101 (2004) 2130 146 163 344 449 916 2650 4050 7050 8150
2020-05-18 20:30 3.29 1730 11300 (1991) 101 (2004) 2130 146 163 344 449 916 2650 4050 7050 8150
2020-05-18 19:30 3.01 1510 11300 (1991) 101 (2004) 2130 146 163 344 449 916 2650 4050 7050 8150
2020-05-18 18:30 2.61 1210 11300 (1991) 101 (2004) 2130 146 163 344 449 916 2650 4050 7050 8150
2020-05-18 17:30 2.42 1070 11300 (1991) 101 (2004) 2130 146 163 344 449 916 2650 4050 7050 8150
2020-05-18 16:30 2.45 1100 11300 (1991) 101 (2004) 2130 146 163 344 449 916 2650 4050 7050 8150
2020-05-18 15:30 2.55 1160 11300 (1991) 101 (2004) 2130 146 163 344 449 916 2650 4050 7050 8150
2020-05-18 14:30 2.64 1230 11300 (1991) 101 (2004) 2130 146 163 344 449 916 2650 4050 7050 8150
2020-05-18 13:30 2.70 1420 11300 (1991) 101 (2004) 2130 146 163 344 449 916 2650 4050 7050 8150
2020-05-18 12:30 2.69 1410 11300 (1991) 101 (2004) 2130 146 163 344 449 916 2650 4050 7050 8150
2020-05-18 11:30 2.50 1270 11300 (1991) 101 (2004) 2130 146 163 344 449 916 2650 4050 7050 8150
2020-05-18 10:30 2.15 1030 11300 (1991) 101 (2004) 2130 146 163 344 449 916 2650 4050 7050 8150
2020-05-18 09:30 1.98 916 11300 (1991) 101 (2004) 2130 146 163 344 449 916 2650 4050 7050 8150
2020-05-18 08:30 2.01 935 11300 (1991) 101 (2004) 2130 146 163 344 449 916 2650 4050 7050 8150
2020-05-18 07:30 2.04 955 11300 (1991) 101 (2004) 2130 146 163 344 449 916 2650 4050 7050 8150
2020-05-18 06:30 2.08 981 11300 (1991) 101 (2004) 2130 146 163 344 449 916 2650 4050 7050 8150
2020-05-18 05:30 2.13 1010 11300 (1991) 101 (2004) 2130 146 163 344 449 916 2650 4050 7050 8150
2020-05-18 04:30 2.17 1040 11300 (1991) 101 (2004) 2130 146 163 344 449 916 2650 4050 7050 8150
2020-05-18 03:30 2.22 1070 11300 (1991) 101 (2004) 2130 146 163 344 449 916 2650 4050 7050 8150
2020-05-18 02:30 2.28 1120 11300 (1991) 101 (2004) 2130 146 163 344 449 916 2650 4050 7050 8150
2020-05-18 01:30 2.33 1150 11300 (1991) 101 (2004) 2130 146 163 344 449 916 2650 4050 7050 8150
2020-05-18 00:30 2.40 1200 11300 (1991) 101 (2004) 2130 146 163 344 449 916 2650 4050 7050 8150
2020-05-17 23:30 2.46 1240 11300 (1991) 98 (2004) 2210 151 172 251 319 1140 2710 4320 6940 8020
2020-05-17 22:30 2.53 1290 11300 (1991) 98 (2004) 2210 151 172 251 319 1140 2710 4320 6940 8020
2020-05-17 21:30 2.62 1360 11300 (1991) 98 (2004) 2210 151 172 251 319 1140 2710 4320 6940 8020
2020-05-17 20:30 2.71 1430 11300 (1991) 98 (2004) 2210 151 172 251 319 1140 2710 4320 6940 8020
2020-05-17 19:30 2.80 1500 11300 (1991) 98 (2004) 2210 151 172 251 319 1140 2710 4320 6940 8020
2020-05-17 18:30 2.91 1590 11300 (1991) 98 (2004) 2210 151 172 251 319 1140 2710 4320 6940 8020
2020-05-17 17:30 3.03 1680 11300 (1991) 98 (2004) 2210 151 172 251 319 1140 2710 4320 6940 8020
2020-05-17 16:30 3.15 1780 11300 (1991) 98 (2004) 2210 151 172 251 319 1140 2710 4320 6940 8020
2020-05-17 15:30 3.32 1930 11300 (1991) 98 (2004) 2210 151 172 251 319 1140 2710 4320 6940 8020
2020-05-17 14:30 3.49 2080 11300 (1991) 98 (2004) 2210 151 172 251 319 1140 2710 4320 6940 8020
2020-05-17 13:30 3.65 2240 11300 (1991) 98 (2004) 2210 151 172 251 319 1140 2710 4320 6940 8020
2020-05-17 12:30 3.79 2400 11300 (1991) 98 (2004) 2210 151 172 251 319 1140 2710 4320 6940 8020
2020-05-17 11:30 3.86 2480 11300 (1991) 98 (2004) 2210 151 172 251 319 1140 2710 4320 6940 8020
2020-05-17 10:30 3.70 2290 11300 (1991) 98 (2004) 2210 151 172 251 319 1140 2710 4320 6940 8020
2020-05-17 09:30 3.72 2320 11300 (1991) 98 (2004) 2210 151 172 251 319 1140 2710 4320 6940 8020
2020-05-17 08:30 3.89 2510 11300 (1991) 98 (2004) 2210 151 172 251 319 1140 2710 4320 6940 8020
2020-05-17 07:30 4.07 2730 11300 (1991) 98 (2004) 2210 151 172 251 319 1140 2710 4320 6940 8020
2020-05-17 06:30 4.28 2980 11300 (1991) 98 (2004) 2210 151 172 251 319 1140 2710 4320 6940 8020
2020-05-17 05:30 4.49 3250 11300 (1991) 98 (2004) 2210 151 172 251 319 1140 2710 4320 6940 8020
2020-05-17 04:30 4.71 3540 11300 (1991) 98 (2004) 2210 151 172 251 319 1140 2710 4320 6940 8020
2020-05-17 03:30 4.90 3800 11300 (1991) 98 (2004) 2210 151 172 251 319 1140 2710 4320 6940 8020
2020-05-17 02:30 5.11 4100 11300 (1991) 98 (2004) 2210 151 172 251 319 1140 2710 4320 6940 8020
2020-05-17 01:30 5.30 4370 11300 (1991) 98 (2004) 2210 151 172 251 319 1140 2710 4320 6940 8020
2020-05-17 00:30 5.53 4710 11300 (1991) 98 (2004) 2210 151 172 251 319 1140 2710 4320 6940 8020
2020-05-16 23:30 5.81 5140 11300 (1991) 105 (1982) 2400 137 146 205 321 1010 4250 4660 6920 7860
2020-05-16 22:30 6.17 5720 11300 (1991) 105 (1982) 2400 137 146 205 321 1010 4250 4660 6920 7860
2020-05-16 21:30 6.29 5910 11300 (1991) 105 (1982) 2400 137 146 205 321 1010 4250 4660 6920 7860
2020-05-16 20:30 5.96 5380 11300 (1991) 105 (1982) 2400 137 146 205 321 1010 4250 4660 6920 7860
2020-05-16 19:30 5.13 4130 11300 (1991) 105 (1982) 2400 137 146 205 321 1010 4250 4660 6920 7860
2020-05-16 18:30 4.51 3280 11300 (1991) 105 (1982) 2400 137 146 205 321 1010 4250 4660 6920 7860
2020-05-16 17:30 3.82 2430 11300 (1991) 105 (1982) 2400 137 146 205 321 1010 4250 4660 6920 7860
2020-05-16 16:30 3.11 1750 11300 (1991) 105 (1982) 2400 137 146 205 321 1010 4250 4660 6920 7860
2020-05-16 15:30 2.99 1650 11300 (1991) 105 (1982) 2400 137 146 205 321 1010 4250 4660 6920 7860
2020-05-16 14:30 3.13 1770 11300 (1991) 105 (1982) 2400 137 146 205 321 1010 4250 4660 6920 7860
2020-05-16 13:30 3.27 1880 11300 (1991) 105 (1982) 2400 137 146 205 321 1010 4250 4660 6920 7860
2020-05-16 12:30 3.38 1980 11300 (1991) 105 (1982) 2400 137 146 205 321 1010 4250 4660 6920 7860
2020-05-16 11:30 3.36 1960 11300 (1991) 105 (1982) 2400 137 146 205 321 1010 4250 4660 6920 7860
2020-05-16 10:30 3.11 1750 11300 (1991) 105 (1982) 2400 137 146 205 321 1010 4250 4660 6920 7860
2020-05-16 09:30 3.06 1710 11300 (1991) 105 (1982) 2400 137 146 205 321 1010 4250 4660 6920 7860
2020-05-16 08:30 3.21 1830 11300 (1991) 105 (1982) 2400 137 146 205 321 1010 4250 4660 6920 7860
2020-05-16 07:30 3.38 1980 11300 (1991) 105 (1982) 2400 137 146 205 321 1010 4250 4660 6920 7860
2020-05-16 06:30 3.58 2160 11300 (1991) 105 (1982) 2400 137 146 205 321 1010 4250 4660 6920 7860
2020-05-16 05:30 3.77 2370 11300 (1991) 105 (1982) 2400 137 146 205 321 1010 4250 4660 6920 7860
2020-05-16 04:30 3.99 2630 11300 (1991) 105 (1982) 2400 137 146 205 321 1010 4250 4660 6920 7860
2020-05-16 03:30 4.21 2900 11300 (1991) 105 (1982) 2400 137 146 205 321 1010 4250 4660 6920 7860
2020-05-16 02:30 4.45 3200 11300 (1991) 105 (1982) 2400 137 146 205 321 1010 4250 4660 6920 7860
2020-05-16 01:30 4.66 3480 11300 (1991) 105 (1982) 2400 137 146 205 321 1010 4250 4660 6920 7860
2020-05-15 23:30 5.10 4080 11300 (1991) 107 (2000) 2360 138 154 250 301 960 4350 5140 6760 7300
2020-05-15 22:30 5.33 4420 11300 (1991) 107 (2000) 2360 138 154 250 301 960 4350 5140 6760 7300
2020-05-15 21:30 5.75 5050 11300 (1991) 107 (2000) 2360 138 154 250 301 960 4350 5140 6760 7300
2020-05-15 20:30 5.79 5110 11300 (1991) 107 (2000) 2360 138 154 250 301 960 4350 5140 6760 7300
2020-05-15 19:30 5.06 4030 11300 (1991) 107 (2000) 2360 138 154 250 301 960 4350 5140 6760 7300
2020-05-15 18:30 4.68 3500 11300 (1991) 107 (2000) 2360 138 154 250 301 960 4350 5140 6760 7300
2020-05-15 17:30 4.02 2670 11300 (1991) 107 (2000) 2360 138 154 250 301 960 4350 5140 6760 7300
2020-05-15 16:30 3.04 1690 11300 (1991) 107 (2000) 2360 138 154 250 301 960 4350 5140 6760 7300
2020-05-15 15:30 2.33 1150 11300 (1991) 107 (2000) 2360 138 154 250 301 960 4350 5140 6760 7300
2020-05-15 14:30 2.29 1120 11300 (1991) 107 (2000) 2360 138 154 250 301 960 4350 5140 6760 7300
2020-05-15 13:30 2.37 1180 11300 (1991) 107 (2000) 2360 138 154 250 301 960 4350 5140 6760 7300
2020-05-15 12:30 2.46 1240 11300 (1991) 107 (2000) 2360 138 154 250 301 960 4350 5140 6760 7300
2020-05-15 11:30 2.57 1320 11300 (1991) 107 (2000) 2360 138 154 250 301 960 4350 5140 6760 7300
2020-05-15 10:30 2.69 1410 11300 (1991) 107 (2000) 2360 138 154 250 301 960 4350 5140 6760 7300
2020-05-15 09:30 2.81 1510 11300 (1991) 107 (2000) 2360 138 154 250 301 960 4350 5140 6760 7300
2020-05-15 08:30 2.96 1630 11300 (1991) 107 (2000) 2360 138 154 250 301 960 4350 5140 6760 7300
2020-05-15 07:30 3.11 1750 11300 (1991) 107 (2000) 2360 138 154 250 301 960 4350 5140 6760 7300
2020-05-15 06:30 3.29 1900 11300 (1991) 107 (2000) 2360 138 154 250 301 960 4350 5140 6760 7300
2020-05-15 05:30 3.48 2070 11300 (1991) 107 (2000) 2360 138 154 250 301 960 4350 5140 6760 7300
2020-05-15 04:30 3.68 2270 11300 (1991) 107 (2000) 2360 138 154 250 301 960 4350 5140 6760 7300
2020-05-15 03:30 3.90 2520 11300 (1991) 107 (2000) 2360 138 154 250 301 960 4350 5140 6760 7300
2020-05-15 02:30 4.12 2790 11300 (1991) 107 (2000) 2360 138 154 250 301 960 4350 5140 6760 7300
2020-05-15 01:30 4.35 3070 11300 (1991) 107 (2000) 2360 138 154 250 301 960 4350 5140 6760 7300
2020-05-15 00:30 4.56 3340 11300 (1991) 107 (2000) 2360 138 154 250 301 960 4350 5140 6760 7300
2020-05-14 23:30 4.75 3600 11300 (1991) 105 (2000) 2170 141 161 199 288 1030 3550 4530 6040 7040
2020-05-14 22:30 4.79 3650 11300 (1991) 105 (2000) 2170 141 161 199 288 1030 3550 4530 6040 7040
2020-05-14 21:30 4.54 3320 11300 (1991) 105 (2000) 2170 141 161 199 288 1030 3550 4530 6040 7040
2020-05-14 20:30 3.82 2430 11300 (1991) 105 (2000) 2170 141 161 199 288 1030 3550 4530 6040 7040
2020-05-14 19:30 2.56 1320 11300 (1991) 105 (2000) 2170 141 161 199 288 1030 3550 4530 6040 7040
2020-05-14 18:30 1.50 631 11300 (1991) 105 (2000) 2170 141 161 199 288 1030 3550 4530 6040 7040
2020-05-14 17:30 1.31 530 11300 (1991) 105 (2000) 2170 141 161 199 288 1030 3550 4530 6040 7040
2020-05-14 16:30 1.32 535 11300 (1991) 105 (2000) 2170 141 161 199 288 1030 3550 4530 6040 7040
2020-05-14 15:30 1.33 540 11300 (1991) 105 (2000) 2170 141 161 199 288 1030 3550 4530 6040 7040
2020-05-14 14:30 1.34 546 11300 (1991) 105 (2000) 2170 141 161 199 288 1030 3550 4530 6040 7040
2020-05-14 13:30 1.35 551 11300 (1991) 105 (2000) 2170 141 161 199 288 1030 3550 4530 6040 7040
2020-05-14 12:30 1.36 556 11300 (1991) 105 (2000) 2170 141 161 199 288 1030 3550 4530 6040 7040
2020-05-14 11:30 1.36 556 11300 (1991) 105 (2000) 2170 141 161 199 288 1030 3550 4530 6040 7040
2020-05-14 10:30 1.37 561 11300 (1991) 105 (2000) 2170 141 161 199 288 1030 3550 4530 6040 7040
2020-05-14 09:30 1.39 572 11300 (1991) 105 (2000) 2170 141 161 199 288 1030 3550 4530 6040 7040
2020-05-14 08:30 1.39 572 11300 (1991) 105 (2000) 2170 141 161 199 288 1030 3550 4530 6040 7040
2020-05-14 07:30 1.41 582 11300 (1991) 105 (2000) 2170 141 161 199 288 1030 3550 4530 6040 7040
2020-05-14 06:30 1.41 582 11300 (1991) 105 (2000) 2170 141 161 199 288 1030 3550 4530 6040 7040
2020-05-14 05:30 1.43 593 11300 (1991) 105 (2000) 2170 141 161 199 288 1030 3550 4530 6040 7040
2020-05-14 04:30 1.44 598 11300 (1991) 105 (2000) 2170 141 161 199 288 1030 3550 4530 6040 7040
2020-05-14 03:30 1.45 604 11300 (1991) 105 (2000) 2170 141 161 199 288 1030 3550 4530 6040 7040
2020-05-14 02:30 1.46 609 11300 (1991) 105 (2000) 2170 141 161 199 288 1030 3550 4530 6040 7040
2020-05-14 01:30 1.47 615 11300 (1991) 105 (2000) 2170 141 161 199 288 1030 3550 4530 6040 7040
2020-05-14 00:30 1.48 620 11300 (1991) 105 (2000) 2170 141 161 199 288 1030 3550 4530 6040 7040
2020-05-13 23:30 1.50 631 11200 (1991) 145 (1997) 2230 150 186 262 325 1340 4060 4590 5490 6950
2020-05-13 22:30 1.51 636 11200 (1991) 145 (1997) 2230 150 186 262 325 1340 4060 4590 5490 6950
2020-05-13 21:30 1.53 647 11200 (1991) 145 (1997) 2230 150 186 262 325 1340 4060 4590 5490 6950
2020-05-13 20:30 1.54 653 11200 (1991) 145 (1997) 2230 150 186 262 325 1340 4060 4590 5490 6950
2020-05-13 19:30 1.56 664 11200 (1991) 145 (1997) 2230 150 186 262 325 1340 4060 4590 5490 6950
2020-05-13 18:30 1.58 675 11200 (1991) 145 (1997) 2230 150 186 262 325 1340 4060 4590 5490 6950
2020-05-13 17:30 1.60 687 11200 (1991) 145 (1997) 2230 150 186 262 325 1340 4060 4590 5490 6950
2020-05-13 16:30 1.63 704 11200 (1991) 145 (1997) 2230 150 186 262 325 1340 4060 4590 5490 6950
2020-05-13 15:30 1.64 710 11200 (1991) 145 (1997) 2230 150 186 262 325 1340 4060 4590 5490 6950
2020-05-13 14:30 1.64 710 11200 (1991) 145 (1997) 2230 150 186 262 325 1340 4060 4590 5490 6950
2020-05-13 13:30 1.68 733 11200 (1991) 145 (1997) 2230 150 186 262 325 1340 4060 4590 5490 6950
2020-05-13 12:30 1.72 756 11200 (1991) 145 (1997) 2230 150 186 262 325 1340 4060 4590 5490 6950
2020-05-13 11:30 1.75 774 11200 (1991) 145 (1997) 2230 150 186 262 325 1340 4060 4590 5490 6950
2020-05-13 10:30 1.78 792 11200 (1991) 145 (1997) 2230 150 186 262 325 1340 4060 4590 5490 6950
2020-05-13 09:30 1.81 810 11200 (1991) 145 (1997) 2230 150 186 262 325 1340 4060 4590 5490 6950
2020-05-13 08:30 1.85 835 11200 (1991) 145 (1997) 2230 150 186 262 325 1340 4060 4590 5490 6950
2020-05-13 07:30 1.87 847 11200 (1991) 145 (1997) 2230 150 186 262 325 1340 4060 4590 5490 6950
2020-05-13 06:30 1.91 872 11200 (1991) 145 (1997) 2230 150 186 262 325 1340 4060 4590 5490 6950
2020-05-13 05:30 1.94 891 11200 (1991) 145 (1997) 2230 150 186 262 325 1340 4060 4590 5490 6950
2020-05-13 04:30 1.98 916 11200 (1991) 145 (1997) 2230 150 186 262 325 1340 4060 4590 5490 6950
2020-05-13 03:30 2.01 935 11200 (1991) 145 (1997) 2230 150 186 262 325 1340 4060 4590 5490 6950
2020-05-13 02:30 2.04 955 11200 (1991) 145 (1997) 2230 150 186 262 325 1340 4060 4590 5490 6950
2020-05-13 01:30 2.07 974 11200 (1991) 145 (1997) 2230 150 186 262 325 1340 4060 4590 5490 6950
2020-05-13 00:30 2.10 994 11200 (1991) 145 (1997) 2230 150 186 262 325 1340 4060 4590 5490 6950
2020-05-12 23:30 2.14 1020 11200 (1991) 139 (2003) 2280 147 172 264 316 1100 3860 4330 5650 7040
2020-05-12 22:30 2.17 1040 11200 (1991) 139 (2003) 2280 147 172 264 316 1100 3860 4330 5650 7040
2020-05-12 21:30 2.21 1070 11200 (1991) 139 (2003) 2280 147 172 264 316 1100 3860 4330 5650 7040
2020-05-12 20:30 2.25 1100 11200 (1991) 139 (2003) 2280 147 172 264 316 1100 3860 4330 5650 7040
2020-05-12 19:30 2.30 1130 11200 (1991) 139 (2003) 2280 147 172 264 316 1100 3860 4330 5650 7040
2020-05-12 18:30 2.34 1160 11200 (1991) 139 (2003) 2280 147 172 264 316 1100 3860 4330 5650 7040
2020-05-12 17:30 2.39 1190 11200 (1991) 139 (2003) 2280 147 172 264 316 1100 3860 4330 5650 7040
2020-05-12 16:30 2.44 1230 11200 (1991) 139 (2003) 2280 147 172 264 316 1100 3860 4330 5650 7040
2020-05-12 15:30 2.47 1250 11200 (1991) 139 (2003) 2280 147 172 264 316 1100 3860 4330 5650 7040
2020-05-12 14:30 2.50 1270 11200 (1991) 139 (2003) 2280 147 172 264 316 1100 3860 4330 5650 7040
2020-05-12 13:30 2.43 1220 11200 (1991) 139 (2003) 2280 147 172 264 316 1100 3860 4330 5650 7040
2020-05-12 12:30 2.22 1070 11200 (1991) 139 (2003) 2280 147 172 264 316 1100 3860 4330 5650 7040
2020-05-12 11:30 2.00 929 11200 (1991) 139 (2003) 2280 147 172 264 316 1100 3860 4330 5650 7040
2020-05-12 10:30 2.02 942 11200 (1991) 139 (2003) 2280 147 172 264 316 1100 3860 4330 5650 7040
2020-05-12 09:30 2.09 988 11200 (1991) 139 (2003) 2280 147 172 264 316 1100 3860 4330 5650 7040
2020-05-12 08:30 2.17 1040 11200 (1991) 139 (2003) 2280 147 172 264 316 1100 3860 4330 5650 7040
2020-05-12 07:30 2.25 1100 11200 (1991) 139 (2003) 2280 147 172 264 316 1100 3860 4330 5650 7040
2020-05-12 06:30 2.34 1160 11200 (1991) 139 (2003) 2280 147 172 264 316 1100 3860 4330 5650 7040
2020-05-12 05:30 2.45 1240 11200 (1991) 139 (2003) 2280 147 172 264 316 1100 3860 4330 5650 7040
2020-05-12 04:30 2.55 1310 11200 (1991) 139 (2003) 2280 147 172 264 316 1100 3860 4330 5650 7040
2020-05-12 03:30 2.67 1400 11200 (1991) 139 (2003) 2280 147 172 264 316 1100 3860 4330 5650 7040
2020-05-12 02:30 2.80 1500 11200 (1991) 139 (2003) 2280 147 172 264 316 1100 3860 4330 5650 7040
2020-05-12 01:30 2.96 1630 11200 (1991) 139 (2003) 2280 147 172 264 316 1100 3860 4330 5650 7040
2020-05-12 00:30 3.13 1770 11200 (1991) 139 (2003) 2280 147 172 264 316 1100 3860 4330 5650 7040
2020-05-11 23:30 3.30 1910 11200 (1991) 139 (1980) 2390 151 167 295 311 1120 3500 4940 6820 7710
2020-05-11 22:30 3.50 2090 11200 (1991) 139 (1980) 2390 151 167 295 311 1120 3500 4940 6820 7710
2020-05-11 21:30 3.72 2320 11200 (1991) 139 (1980) 2390 151 167 295 311 1120 3500 4940 6820 7710
2020-05-11 20:30 3.95 2580 11200 (1991) 139 (1980) 2390 151 167 295 311 1120 3500 4940 6820 7710
2020-05-11 19:30 4.19 2870 11200 (1991) 139 (1980) 2390 151 167 295 311 1120 3500 4940 6820 7710
2020-05-11 18:30 4.42 3160 11200 (1991) 139 (1980) 2390 151 167 295 311 1120 3500 4940 6820 7710
2020-05-11 17:30 4.64 3450 11200 (1991) 139 (1980) 2390 151 167 295 311 1120 3500 4940 6820 7710
2020-05-11 16:30 4.82 3690 11200 (1991) 139 (1980) 2390 151 167 295 311 1120 3500 4940 6820 7710
2020-05-11 15:30 5.02 3970 11200 (1991) 139 (1980) 2390 151 167 295 311 1120 3500 4940 6820 7710
2020-05-11 14:30 5.14 4140 11200 (1991) 139 (1980) 2390 151 167 295 311 1120 3500 4940 6820 7710
2020-05-11 13:30 5.06 4030 11200 (1991) 139 (1980) 2390 151 167 295 311 1120 3500 4940 6820 7710
2020-05-11 12:30 4.72 3560 11200 (1991) 139 (1980) 2390 151 167 295 311 1120 3500 4940 6820 7710
2020-05-11 11:30 4.13 2800 11200 (1991) 139 (1980) 2390 151 167 295 311 1120 3500 4940 6820 7710
2020-05-11 10:30 3.05 1700 11200 (1991) 139 (1980) 2390 151 167 295 311 1120 3500 4940 6820 7710
2020-05-11 09:30 1.71 750 11200 (1991) 139 (1980) 2390 151 167 295 311 1120 3500 4940 6820 7710
2020-05-11 08:30 1.21 480 11200 (1991) 139 (1980) 2390 151 167 295 311 1120 3500 4940 6820 7710
2020-05-11 07:30 1.21 480 11200 (1991) 139 (1980) 2390 151 167 295 311 1120 3500 4940 6820 7710
2020-05-11 06:30 1.22 485 11200 (1991) 139 (1980) 2390 151 167 295 311 1120 3500 4940 6820 7710
2020-05-11 05:30 1.22 485 11200 (1991) 139 (1980) 2390 151 167 295 311 1120 3500 4940 6820 7710
2020-05-11 04:30 1.23 490 11200 (1991) 139 (1980) 2390 151 167 295 311 1120 3500 4940 6820 7710
2020-05-11 03:30 1.23 490 11200 (1991) 139 (1980) 2390 151 167 295 311 1120 3500 4940 6820 7710
2020-05-11 02:30 1.24 495 11200 (1991) 139 (1980) 2390 151 167 295 311 1120 3500 4940 6820 7710
2020-05-11 01:30 1.24 495 11200 (1991) 139 (1980) 2390 151 167 295 311 1120 3500 4940 6820 7710
2020-05-10 23:30 1.25 500 9020 (1991) 132 (2017) 2390 159 185 318 490 1290 3390 5060 7010 7690
2020-05-10 22:30 1.26 505 9020 (1991) 132 (2017) 2390 159 185 318 490 1290 3390 5060 7010 7690
2020-05-10 21:30 1.27 510 9020 (1991) 132 (2017) 2390 159 185 318 490 1290 3390 5060 7010 7690
2020-05-10 20:30 1.27 510 9020 (1991) 132 (2017) 2390 159 185 318 490 1290 3390 5060 7010 7690
2020-05-10 19:30 1.28 515 9020 (1991) 132 (2017) 2390 159 185 318 490 1290 3390 5060 7010 7690
2020-05-10 18:30 1.27 510 9020 (1991) 132 (2017) 2390 159 185 318 490 1290 3390 5060 7010 7690
2020-05-10 17:30 1.31 530 9020 (1991) 132 (2017) 2390 159 185 318 490 1290 3390 5060 7010 7690
2020-05-10 16:30 1.32 535 9020 (1991) 132 (2017) 2390 159 185 318 490 1290 3390 5060 7010 7690
2020-05-10 15:30 1.33 540 9020 (1991) 132 (2017) 2390 159 185 318 490 1290 3390 5060 7010 7690
2020-05-10 14:30 1.35 551 9020 (1991) 132 (2017) 2390 159 185 318 490 1290 3390 5060 7010 7690
2020-05-10 13:30 1.36 556 9020 (1991) 132 (2017) 2390 159 185 318 490 1290 3390 5060 7010 7690
2020-05-10 12:30 1.38 566 9020 (1991) 132 (2017) 2390 159 185 318 490 1290 3390 5060 7010 7690
2020-05-10 11:30 1.40 577 9020 (1991) 132 (2017) 2390 159 185 318 490 1290 3390 5060 7010 7690
2020-05-10 10:30 1.43 593 9020 (1991) 132 (2017) 2390 159 185 318 490 1290 3390 5060 7010 7690
2020-05-10 09:30 1.45 604 9020 (1991) 132 (2017) 2390 159 185 318 490 1290 3390 5060 7010 7690
2020-05-10 08:30 1.47 615 9020 (1991) 132 (2017) 2390 159 185 318 490 1290 3390 5060 7010 7690
2020-05-10 07:30 1.49 625 9020 (1991) 132 (2017) 2390 159 185 318 490 1290 3390 5060 7010 7690
2020-05-10 06:30 1.50 631 9020 (1991) 132 (2017) 2390 159 185 318 490 1290 3390 5060 7010 7690
2020-05-10 05:30 1.53 647 9020 (1991) 132 (2017) 2390 159 185 318 490 1290 3390 5060 7010 7690
2020-05-10 04:30 1.56 664 9020 (1991) 132 (2017) 2390 159 185 318 490 1290 3390 5060 7010 7690
2020-05-10 03:30 1.59 681 9020 (1991) 132 (2017) 2390 159 185 318 490 1290 3390 5060 7010 7690
2020-05-10 02:30 1.62 698 9020 (1991) 132 (2017) 2390 159 185 318 490 1290 3390 5060 7010 7690
2020-05-10 01:30 1.66 721 9020 (1991) 132 (2017) 2390 159 185 318 490 1290 3390 5060 7010 7690
2020-05-10 00:30 1.70 745 9020 (1991) 132 (2017) 2390 159 185 318 490 1290 3390 5060 7010 7690
2020-05-09 23:30 1.74 768 8490 (1991) 118 (2017) 2130 145 172 381 409 939 3280 3710 6770 7670
2020-05-09 22:30 1.79 798 8490 (1991) 118 (2017) 2130 145 172 381 409 939 3280 3710 6770 7670
2020-05-09 21:30 1.84 829 8490 (1991) 118 (2017) 2130 145 172 381 409 939 3280 3710 6770 7670
2020-05-09 20:30 1.90 866 8490 (1991) 118 (2017) 2130 145 172 381 409 939 3280 3710 6770 7670
2020-05-09 19:30 1.94 891 8490 (1991) 118 (2017) 2130 145 172 381 409 939 3280 3710 6770 7670
2020-05-09 18:30 2.02 942 8490 (1991) 118 (2017) 2130 145 172 381 409 939 3280 3710 6770 7670
2020-05-09 17:30 2.09 988 8490 (1991) 118 (2017) 2130 145 172 381 409 939 3280 3710 6770 7670
2020-05-09 16:30 2.16 1030 8490 (1991) 118 (2017) 2130 145 172 381 409 939 3280 3710 6770 7670
2020-05-09 15:30 2.24 1090 8490 (1991) 118 (2017) 2130 145 172 381 409 939 3280 3710 6770 7670
2020-05-09 14:30 2.35 1160 8490 (1991) 118 (2017) 2130 145 172 381 409 939 3280 3710 6770 7670
2020-05-09 13:30 2.43 1220 8490 (1991) 118 (2017) 2130 145 172 381 409 939 3280 3710 6770 7670
2020-05-09 12:30 2.57 1320 8490 (1991) 118 (2017) 2130 145 172 381 409 939 3280 3710 6770 7670
2020-05-09 11:30 2.70 1420 8490 (1991) 118 (2017) 2130 145 172 381 409 939 3280 3710 6770 7670
2020-05-09 10:30 2.85 1540 8490 (1991) 118 (2017) 2130 145 172 381 409 939 3280 3710 6770 7670
2020-05-09 09:30 2.99 1650 8490 (1991) 118 (2017) 2130 145 172 381 409 939 3280 3710 6770 7670
2020-05-09 08:30 3.16 1790 8490 (1991) 118 (2017) 2130 145 172 381 409 939 3280 3710 6770 7670
2020-05-09 07:30 3.33 1940 8490 (1991) 118 (2017) 2130 145 172 381 409 939 3280 3710 6770 7670
2020-05-09 06:30 3.54 2120 8490 (1991) 118 (2017) 2130 145 172 381 409 939 3280 3710 6770 7670
2020-05-09 05:30 3.76 2360 8490 (1991) 118 (2017) 2130 145 172 381 409 939 3280 3710 6770 7670
2020-05-09 04:30 3.99 2630 8490 (1991) 118 (2017) 2130 145 172 381 409 939 3280 3710 6770 7670
2020-05-09 03:30 4.22 2910 8490 (1991) 118 (2017) 2130 145 172 381 409 939 3280 3710 6770 7670
2020-05-09 02:30 4.44 3190 8490 (1991) 118 (2017) 2130 145 172 381 409 939 3280 3710 6770 7670
2020-05-09 01:30 4.64 3450 8490 (1991) 118 (2017) 2130 145 172 381 409 939 3280 3710 6770 7670
2020-05-09 00:30 4.80 3660 8490 (1991) 118 (2017) 2130 145 172 381 409 939 3280 3710 6770 7670
2020-05-08 23:30 4.76 3610 7580 (1984) 129 (2017) 2000 149 187 321 453 1240 3060 3410 5840 6980
2020-05-08 22:30 4.32 3030 7580 (1984) 129 (2017) 2000 149 187 321 453 1240 3060 3410 5840 6980
2020-05-08 21:30 3.64 2230 7580 (1984) 129 (2017) 2000 149 187 321 453 1240 3060 3410 5840 6980
2020-05-08 20:30 2.97 1630 7580 (1984) 129 (2017) 2000 149 187 321 453 1240 3060 3410 5840 6980
2020-05-08 19:30 2.87 1550 7580 (1984) 129 (2017) 2000 149 187 321 453 1240 3060 3410 5840 6980
2020-05-08 18:30 3.00 1660 7580 (1984) 129 (2017) 2000 149 187 321 453 1240 3060 3410 5840 6980
2020-05-08 17:30 3.09 1730 7580 (1984) 129 (2017) 2000 149 187 321 453 1240 3060 3410 5840 6980
2020-05-08 16:30 3.05 1700 7580 (1984) 129 (2017) 2000 149 187 321 453 1240 3060 3410 5840 6980
2020-05-08 15:30 2.78 1480 7580 (1984) 129 (2017) 2000 149 187 321 453 1240 3060 3410 5840 6980
2020-05-08 14:30 2.65 1380 7580 (1984) 129 (2017) 2000 149 187 321 453 1240 3060 3410 5840 6980
2020-05-08 13:30 2.71 1430 7580 (1984) 129 (2017) 2000 149 187 321 453 1240 3060 3410 5840 6980
2020-05-08 12:30 2.84 1530 7580 (1984) 129 (2017) 2000 149 187 321 453 1240 3060 3410 5840 6980
2020-05-08 11:30 2.98 1640 7580 (1984) 129 (2017) 2000 149 187 321 453 1240 3060 3410 5840 6980
2020-05-08 10:30 3.13 1770 7580 (1984) 129 (2017) 2000 149 187 321 453 1240 3060 3410 5840 6980
2020-05-08 09:30 3.32 1930 7580 (1984) 129 (2017) 2000 149 187 321 453 1240 3060 3410 5840 6980
2020-05-08 08:30 3.53 2110 7580 (1984) 129 (2017) 2000 149 187 321 453 1240 3060 3410 5840 6980
2020-05-08 07:30 3.73 2230 7580 (1984) 129 (2017) 2000 149 187 321 453 1240 3060 3410 5840 6980
2020-05-08 06:30 3.95 2490 7580 (1984) 129 (2017) 2000 149 187 321 453 1240 3060 3410 5840 6980
2020-05-08 05:30 4.15 2730 7580 (1984) 129 (2017) 2000 149 187 321 453 1240 3060 3410 5840 6980
2020-05-08 04:30 4.37 3010 7580 (1984) 129 (2017) 2000 149 187 321 453 1240 3060 3410 5840 6980
2020-05-08 03:30 4.60 3310 7580 (1984) 129 (2017) 2000 149 187 321 453 1240 3060 3410 5840 6980
2020-05-08 02:30 4.92 3760 7580 (1984) 129 (2017) 2000 149 187 321 453 1240 3060 3410 5840 6980
2020-05-08 01:30 5.41 4480 7580 (1984) 129 (2017) 2000 149 187 321 453 1240 3060 3410 5840 6980
2020-05-08 00:30 6.05 5490 7580 (1984) 129 (2017) 2000 149 187 321 453 1240 3060 3410 5840 6980
2020-05-07 23:30 7.10 6930 7070 (2015) 140 (2006) 2090 151 177 248 316 1030 3340 4370 5770 6670
2020-05-07 22:30 7.59 7390 7070 (2015) 140 (2006) 2090 151 177 248 316 1030 3340 4370 5770 6670
2020-05-07 21:30 7.57 7380 7070 (2015) 140 (2006) 2090 151 177 248 316 1030 3340 4370 5770 6670
2020-05-07 20:30 7.53 7340 7070 (2015) 140 (2006) 2090 151 177 248 316 1030 3340 4370 5770 6670
2020-05-07 19:30 7.38 7190 7070 (2015) 140 (2006) 2090 151 177 248 316 1030 3340 4370 5770 6670
2020-05-07 18:30 6.97 6810 7070 (2015) 140 (2006) 2090 151 177 248 316 1030 3340 4370 5770 6670
2020-05-07 17:30 6.02 5440 7070 (2015) 140 (2006) 2090 151 177 248 316 1030 3340 4370 5770 6670
2020-05-07 16:30 5.02 3900 7070 (2015) 140 (2006) 2090 151 177 248 316 1030 3340 4370 5770 6670
2020-05-07 15:30 4.68 3420 7070 (2015) 140 (2006) 2090 151 177 248 316 1030 3340 4370 5770 6670
2020-05-07 14:30 4.10 2670 7070 (2015) 140 (2006) 2090 151 177 248 316 1030 3340 4370 5770 6670
2020-05-07 13:30 3.25 1710 7070 (2015) 140 (2006) 2090 151 177 248 316 1030 3340 4370 5770 6670
2020-05-07 12:30 2.56 1070 7070 (2015) 140 (2006) 2090 151 177 248 316 1030 3340 4370 5770 6670
2020-05-07 11:30 2.51 1040 7070 (2015) 140 (2006) 2090 151 177 248 316 1030 3340 4370 5770 6670
2020-05-07 10:30 2.63 1120 7070 (2015) 140 (2006) 2090 151 177 248 316 1030 3340 4370 5770 6670
2020-05-07 09:30 2.76 1230 7070 (2015) 140 (2006) 2090 151 177 248 316 1030 3340 4370 5770 6670
2020-05-07 08:30 2.91 1370 7070 (2015) 140 (2006) 2090 151 177 248 316 1030 3340 4370 5770 6670
2020-05-07 07:30 3.05 1500 7070 (2015) 140 (2006) 2090 151 177 248 316 1030 3340 4370 5770 6670
2020-05-07 06:30 3.23 1680 7070 (2015) 140 (2006) 2090 151 177 248 316 1030 3340 4370 5770 6670
2020-05-07 05:30 3.41 1870 7070 (2015) 140 (2006) 2090 151 177 248 316 1030 3340 4370 5770 6670
2020-05-07 04:30 3.62 2100 7070 (2015) 140 (2006) 2090 151 177 248 316 1030 3340 4370 5770 6670
2020-05-07 03:30 3.86 2380 7070 (2015) 140 (2006) 2090 151 177 248 316 1030 3340 4370 5770 6670
2020-05-07 02:30 4.09 2660 7070 (2015) 140 (2006) 2090 151 177 248 316 1030 3340 4370 5770 6670
2020-05-07 01:30 4.32 2940 7070 (2015) 140 (2006) 2090 151 177 248 316 1030 3340 4370 5770 6670
2020-05-07 00:30 4.57 3270 7070 (2015) 140 (2006) 2090 151 177 248 316 1030 3340 4370 5770 6670
2020-05-06 23:30 4.85 3660 7870 (1973) 143 (2006) 1950 173 179 245 344 1260 2700 3360 4910 7060
2020-05-06 22:30 5.36 4400 7870 (1973) 143 (2006) 1950 173 179 245 344 1260 2700 3360 4910 7060
2020-05-06 21:30 6.03 5460 7870 (1973) 143 (2006) 1950 173 179 245 344 1260 2700 3360 4910 7060
2020-05-06 20:30 7.06 6890 7870 (1973) 143 (2006) 1950 173 179 245 344 1260 2700 3360 4910 7060
2020-05-06 19:30 7.58 7380 7870 (1973) 143 (2006) 1950 173 179 245 344 1260 2700 3360 4910 7060
2020-05-06 18:30 7.53 7340 7870 (1973) 143 (2006) 1950 173 179 245 344 1260 2700 3360 4910 7060
2020-05-06 17:30 7.54 7350 7870 (1973) 143 (2006) 1950 173 179 245 344 1260 2700 3360 4910 7060
2020-05-06 16:30 7.45 7260 7870 (1973) 143 (2006) 1950 173 179 245 344 1260 2700 3360 4910 7060
2020-05-06 15:30 7.24 7060 7870 (1973) 143 (2006) 1950 173 179 245 344 1260 2700 3360 4910 7060
2020-05-06 14:30 6.70 6560 7870 (1973) 143 (2006) 1950 173 179 245 344 1260 2700 3360 4910 7060
2020-05-06 13:30 5.52 4650 7870 (1973) 143 (2006) 1950 173 179 245 344 1260 2700 3360 4910 7060
2020-05-06 12:30 4.91 3740 7870 (1973) 143 (2006) 1950 173 179 245 344 1260 2700 3360 4910 7060
2020-05-06 11:30 4.52 3210 7870 (1973) 143 (2006) 1950 173 179 245 344 1260 2700 3360 4910 7060
2020-05-06 10:30 3.96 2500 7870 (1973) 143 (2006) 1950 173 179 245 344 1260 2700 3360 4910 7060
2020-05-06 09:30 3.37 1830 7870 (1973) 143 (2006) 1950 173 179 245 344 1260 2700 3360 4910 7060
2020-05-06 08:30 3.27 1730 7870 (1973) 143 (2006) 1950 173 179 245 344 1260 2700 3360 4910 7060
2020-05-06 07:30 3.46 1930 7870 (1973) 143 (2006) 1950 173 179 245 344 1260 2700 3360 4910 7060
2020-05-06 06:30 3.66 2150 7870 (1973) 143 (2006) 1950 173 179 245 344 1260 2700 3360 4910 7060
2020-05-06 05:30 3.88 2400 7870 (1973) 143 (2006) 1950 173 179 245 344 1260 2700 3360 4910 7060
2020-05-06 04:30 4.12 2690 7870 (1973) 143 (2006) 1950 173 179 245 344 1260 2700 3360 4910 7060
2020-05-06 03:30 4.35 2980 7870 (1973) 143 (2006) 1950 173 179 245 344 1260 2700 3360 4910 7060
2020-05-06 02:30 4.59 3300 7870 (1973) 143 (2006) 1950 173 179 245 344 1260 2700 3360 4910 7060
2020-05-06 01:30 4.89 3710 7870 (1973) 143 (2006) 1950 173 179 245 344 1260 2700 3360 4910 7060
2020-05-06 00:30 5.34 4370 7870 (1973) 143 (2006) 1950 173 179 245 344 1260 2700 3360 4910 7060
2020-05-05 23:30 6.01 5430 7850 (1973) 94 (1996) 1760 142 172 221 266 988 2780 2920 5170 7310
2020-05-05 22:30 7.12 6950 7850 (1973) 94 (1996) 1760 142 172 221 266 988 2780 2920 5170 7310
2020-05-05 21:30 7.62 7420 7850 (1973) 94 (1996) 1760 142 172 221 266 988 2780 2920 5170 7310
2020-05-05 20:30 7.60 7400